[[{"header":{"parameterUnit":"m.s-1","parameterCategory":1,"la1":31.0,"la2":29.5877,"lo1":-88.7671,"lo2":-86.6584,"dy":0.0162,"dx":0.0185,"nx":115,"ny":88,"refTime":"2026-04-06T12:00:00:Z","depth":0,"parameterNumber":2,"parameterNumberName":"U-component_of_WINDS"},"data":[0.0,0.0,0.0,0.0,0.0,0.0,0.0,0.0,0.0,0.0,0.0,0.0,0.0,0.0,0.0,0.0,0.0,0.0,0.0,0.0,0.0,0.0,0.0,0.0,0.0,0.0,0.0,0.0,0.0,0.0,0.0,0.0,0.0,0.0,0.0,0.0,0.0,0.0,0.0,0.0,0.0,0.0,0.0,0.0,0.0,0.0,0.0,0.0,0.0,0.0,0.0,0.0,0.0,0.0,0.0,0.0,0.0,0.0,0.0,0.0,0.0,0.0,0.0,0.0,0.0,0.0,0.0,0.0,0.0,0.0,0.0,0.0,0.0,0.0,0.0,0.0,0.0,0.0,0.0,0.0,0.0,0.0,0.0,0.0,0.0,0.0,0.0,0.0,0.0,0.0,0.0,0.0,0.0,0.0,0.0,0.0,0.0,0.0,0.0,0.0,0.0,0.0,0.0,0.0,0.0,0.0,0.0,0.0,0.0,0.0,0.0,0.0,0.0,0.0,0.0,0.0,0.0,0.0,0.0,0.0,0.0,0.0,0.0,0.0,0.0,0.0,0.0,0.0,0.0,0.0,0.0,0.0,0.0,0.0,0.0,0.0,0.0,0.0,0.0,0.0,0.0,0.0,0.0,0.0,0.0,0.0,0.0,0.0,0.0,0.0,0.0,0.0,0.0,0.0,0.0,0.0,0.0,0.0,0.0,0.0,0.0,0.0,0.0,0.0,0.0,0.0,0.0,0.0,0.0,0.0,0.0,0.0,0.0,0.0,0.0,0.0,0.0,0.0,0.0,0.0,0.0,0.0,0.0,0.0,0.0,0.0,0.0,0.0,0.0,0.0,0.0,0.0,0.0,0.0,0.0,0.0,0.0,0.0,0.0,0.0,0.0,0.0,0.0,0.0,0.0,0.0,0.0,0.0,0.0,0.0,0.0,0.0,0.0,0.0,0.0,0.0,0.0,0.0,0.0,0.0,0.0,0.0,0.0,0.0,0.0,0.0,0.0,0.0,0.0,0.0,0.0,0.0,0.0,0.0,0.0,0.0,0.0,0.0,0.0,0.0,0.0,0.0,0.0,0.0,0.0,0.0,0.0,0.0,0.0,0.0,0.0,0.0,0.0,0.0,0.0,0.0,0.0,0.0,0.0,0.0,0.0,0.0,0.0,0.0,0.0,0.0,0.0,0.0,0.0,0.0,0.0,0.0,0.0,0.0,0.0,0.0,0.0,0.0,0.0,0.0,0.0,0.0,0.0,0.0,0.0,0.0,0.0,0.0,0.0,0.0,0.0,0.0,0.0,0.0,0.0,0.0,0.0,0.0,0.0,0.0,0.0,0.0,0.0,0.0,0.0,0.0,0.0,0.0,0.0,0.0,0.0,0.0,0.0,0.0,0.0,0.0,0.0,0.0,0.0,0.0,0.0,0.0,0.0,0.0,0.0,0.0,0.0,0.0,0.0,0.0,0.0,0.0,0.0,0.0,0.0,0.0,0.0,0.0,0.0,0.0,0.0,0.0,0.0,0.0,0.0,0.0,0.0,0.0,0.0,0.0,0.0,0.0,0.0,0.0,0.0,0.0,0.0,0.0,0.0,0.0,0.0,0.0,0.0,0.0,0.0,0.0,0.0,0.0,0.0,0.0,0.0,0.0,0.0,0.0,0.0,0.0,0.0,0.0,0.0,0.0,0.0,0.0,0.0,0.0,0.0,0.0,0.0,0.0,0.0,0.0,0.0,0.0,0.0,0.0,0.0,0.0,0.0,0.0,0.0,0.0,0.0,0.0,0.0,0.0,0.0,0.0,0.0,0.0,0.0,0.0,0.0,0.0,0.0,0.0,0.0,0.0,0.0,0.0,0.0,0.0,0.0,0.0,0.0,0.0,0.0,0.0,0.0,0.0,0.0,0.0,0.0,0.0,0.0,0.0,0.0,0.0,0.0,0.0,0.0,0.0,0.0,0.0,0.0,0.0,0.0,0.0,0.0,0.0,0.0,0.0,0.0,0.0,0.0,0.0,0.0,0.0,0.0,0.0,0.0,0.0,0.0,0.0,0.0,0.0,0.0,0.0,0.0,0.0,0.0,0.0,0.0,0.0,0.0,0.0,0.0,0.0,0.0,0.0,0.0,0.0,0.0,0.0,0.0,0.0,0.0,0.0,0.0,0.0,0.0,0.0,0.0,0.0,0.0,0.0,0.0,0.0,0.0,0.0,0.0,0.0,0.0,0.0,0.0,0.0,0.0,0.0,0.0,0.0,0.0,0.0,0.0,0.0,0.0,0.0,0.0,0.0,0.0,0.0,0.0,0.0,0.0,0.0,0.0,0.0,0.0,0.0,0.0,0.0,0.0,0.0,0.0,0.0,0.0,0.0,0.0,0.0,0.0,0.0,0.0,0.0,0.0,0.0,0.0,0.0,0.0,0.0,0.0,0.0,0.0,0.0,0.0,0.0,0.0,0.0,0.0,0.0,0.0,0.0,0.0,0.0,0.0,0.0,0.0,0.0,0.0,0.0,0.0,0.0,0.0,0.0,0.0,0.0,0.0,0.0,0.0,0.0,0.0,0.0,0.0,0.0,0.0,0.0,0.0,0.0,0.0,0.0,0.0,0.0,0.0,0.0,0.0,0.0,0.0,0.0,0.0,0.0,0.0,0.0,0.0,0.0,0.0,0.0,0.0,0.0,0.0,0.0,0.0,0.0,0.0,0.0,0.0,0.0,0.0,0.0,0.0,0.0,0.0,0.0,0.0,0.0,0.0,0.0,0.0,0.0,0.0,0.0,0.0,0.0,0.0,0.0,0.0,0.0,0.0,0.0,0.0,0.0,0.0,0.0,0.0,0.0,0.0,0.0,0.0,0.0,0.0,0.0,0.0,0.0,0.0,0.0,0.0,0.0,0.0,0.0,0.0,0.0,0.0,0.0,0.0,0.0,0.0,0.0,0.0,0.0,0.0,0.0,0.0,0.0,0.0,0.0,0.0,0.0,0.0,0.0,0.0,0.0,0.0,0.0,0.0,0.0,0.0,0.0,0.0,0.0,0.0,0.0,0.0,0.0,0.0,0.0,0.0,0.0,0.0,0.0,0.0,0.0,0.0,0.0,0.0,0.0,0.0,0.0,0.0,0.0,0.0,0.0,0.0,0.0,0.0,0.0,0.0,0.0,0.0,0.0,0.0,0.0,0.0,0.0,0.0,0.0,0.0,0.0,0.0,0.0,0.0,0.0,0.0,0.0,0.0,0.0,0.0,0.0,0.0,0.0,0.0,0.0,0.0,0.0,0.0,0.0,0.0,0.0,0.0,0.0,0.0,0.0,0.0,0.0,0.0,0.0,0.0,0.0,0.0,0.0,0.0,0.0,0.0,0.0,0.0,0.0,0.0,0.0,0.0,0.0,0.0,0.0,0.0,0.0,0.0,0.0,0.0,0.0,0.0,0.0,0.0,0.0,0.0,0.0,0.0,0.0,0.0,0.0,0.0,0.0,0.0,0.0,0.0,0.0,0.0,0.0,0.0,0.0,0.0,0.0,0.0,0.0,0.0,0.0,0.0,0.0,0.0,0.0,0.0,0.0,0.0,0.0,0.0,0.0,0.0,0.0,0.0,0.0,0.0,0.0,0.0,0.0,0.0,0.0,0.0,0.0,0.0,0.0,0.0,0.0,0.0,0.0,0.0,0.0,0.0,0.0,0.0,0.0,0.0,0.0,0.0,0.0,0.0,0.0,0.0,0.0,0.0,0.0,0.0,0.0,0.0,0.0,0.0,0.0,0.0,0.0,0.0,0.0,0.0,0.0,0.0,0.0,0.0,0.0,0.0,0.0,0.0,0.0,0.0,0.0,0.0,0.0,0.0,0.0,0.0,0.0,0.0,0.0,0.0,0.0,0.0,0.0,0.0,0.0,0.0,0.0,0.0,0.0,0.0,0.0,0.0,0.0,0.0,0.0,0.0,0.0,0.0,0.0,0.0,0.0,0.0,0.0,0.0,0.0,0.0,0.0,0.0,0.0,0.0,0.0,0.0,0.0,0.0,0.0,0.0,0.0,0.0,0.0,0.0,0.0,0.0,0.0,0.0,0.0,0.0,0.0,0.0,0.0,0.0,0.0,0.0,0.0,0.0,0.0,0.0,0.0,0.0,0.0,0.0,0.0,0.0,0.0,0.0,0.0,0.0,0.0,0.0,0.0,0.0,0.0,0.0,0.0,0.0,0.0,0.0,0.0,0.0,0.0,0.0,0.0,0.0,0.0,0.0,0.0,0.0,0.0,0.0,0.0,0.0,0.0,0.0,0.0,0.6187,0.0,0.0,0.0,0.0,0.0,0.0,0.0,0.0,0.0,0.0,0.0,0.0,0.0,0.0,0.0,0.0,0.0,0.0,0.0,0.0,0.0,0.0,0.0,0.0,0.0,0.0,0.0,0.0,0.0,0.0,0.0,0.0,0.0,0.0,0.0,0.0,0.0,0.0,0.0,0.0,0.0,0.0,0.0,0.0,0.0,0.0,0.0,0.0,0.0,0.0,0.0,0.0,0.0,0.0,0.0,0.0,0.0,0.0,0.0,0.0,0.0,0.0,0.0,0.0,0.0,0.0,0.0,0.0,0.0,0.0,0.0,0.0,0.0,0.0,0.0,0.0,0.0,0.0,0.0,0.0,0.0,0.0,0.0,0.0,0.0,0.0,0.0,0.0,0.0,0.0,0.0,0.0,0.0,0.0,0.0,0.0,0.0,0.0,0.0,0.0,0.0,0.0,0.0,0.0,0.0,0.0,0.0,0.0,0.0,0.0,0.6187,0.6187,0.6187,0.6187,0.6187,0.0,0.0,0.0,0.0,0.0,0.0,0.0,0.0,0.0,0.0,0.0,0.0,0.0,0.0,0.0,0.0,0.0,0.0,0.0,0.0,0.0,0.0,0.0,0.0,0.0,0.0,0.0,0.0,0.0,0.0,0.0,0.0,0.0,0.0,0.0,0.0,0.0,0.0,0.0,0.0,0.0,0.0,0.0,0.0,0.0,0.0,0.0,0.0,0.0,0.0,0.0,0.0,0.0,0.0,0.0,0.0,0.0,0.0,0.0,0.0,0.0,0.0,0.0,0.0,0.0,0.0,0.0,0.0,0.0,0.0,0.0,0.0,0.0,0.0,0.0,0.0,0.0,0.0,0.0,0.0,0.0,0.0,0.0,0.0,0.0,0.0,0.0,0.0,0.0,0.0,0.0,0.0,0.0,0.0,0.0,0.0,0.0,0.0,0.0,0.0,0.0,0.0,0.0,0.0,0.0,0.0,0.0,0.0,0.0,0.0,0.0,0.0,0.6229,0.6187,0.6187,0.0,0.0,0.0,0.0,0.0,0.0,0.0,0.0,0.0,0.0,0.0,0.0,0.0,0.0,0.0,0.0,0.0,0.0,0.0,0.0,0.0,0.0,0.0,0.0,0.0,0.0,0.0,0.0,0.0,0.0,0.0,0.0,0.0,0.0,0.0,0.0,0.0,0.0,0.0,0.0,0.0,0.0,0.0,0.0,0.0,0.0,0.0,0.0,0.0,0.0,0.0,0.0,0.0,0.0,0.0,0.0,0.0,0.0,0.0,0.0,0.0,0.0,0.0,0.0,0.0,0.0,0.0,0.0,0.0,0.0,0.0,0.0,0.0,0.0,0.0,0.0,0.0,0.0,0.0,0.0,0.0,0.0,0.0,0.0,0.0,0.0,0.0,0.0,0.0,0.0,0.0,0.0,0.0,0.0,0.0,0.0,0.0,0.0,0.0,0.0,0.0,0.0,0.0,0.0,0.0,0.0,0.0,0.0,0.0,0.0,0.6294,0.6478,0.6304,0.0,0.6187,0.0,0.0,0.0,0.0,0.0,0.0,0.0,0.0,0.0,0.0,0.0,0.0,0.0,0.0,0.0,0.0,0.0,0.0,0.0,0.0,0.0,0.0,0.0,0.0,0.0,0.0,0.0,0.0,0.0,0.0,0.0,0.0,0.0,0.0,0.0,0.0,0.0,0.0,0.0,0.0,0.0,0.0,0.0,0.0,0.0,0.0,0.0,0.0,0.0,0.0,0.0,0.0,0.0,0.0,0.0,0.0,0.0,0.0,0.0,0.0,0.0,0.0,0.0,0.0,0.0,0.0,0.0,0.0,0.0,0.0,0.0,0.0,0.0,0.0,0.0,0.0,0.0,0.0,0.0,0.0,0.0,0.0,0.0,0.0,0.0,0.0,0.0,0.0,0.0,0.0,0.0,0.0,0.0,0.0,0.0,0.0,0.0,0.0,0.0,0.0,0.0,0.0,0.0,0.0,0.0,0.0,0.0,0.0,0.0,0.0,0.0,0.6675,0.66,0.6511,0.0,0.0,0.0,0.0,0.0,0.0,0.0,0.0,0.0,0.0,0.0,0.0,0.0,0.0,0.0,0.0,0.0,0.0,0.0,0.0,0.0,0.0,0.0,0.0,0.0,0.0,0.0,0.0,0.0,0.0,0.0,0.0,0.0,0.0,0.0,0.0,0.0,0.0,0.0,0.0,0.0,0.0,0.0,0.0,0.0,0.0,0.0,0.0,0.0,0.0,0.0,0.0,0.0,0.0,0.0,0.0,0.0,0.0,0.0,0.0,0.0,0.0,0.0,0.0,0.0,0.0,0.0,0.0,0.0,0.0,0.0,0.0,0.0,0.0,0.0,0.0,0.0,0.0,0.0,0.0,0.0,0.0,0.0,0.0,0.0,0.0,0.0,0.0,0.0,0.0,0.0,0.0,0.0,0.0,0.0,0.0,0.0,0.0,0.0,0.0,0.0,0.0,0.0,0.0,0.0,0.0,0.0,0.0,0.0,0.0,0.6351,0.0,0.6628,0.675,0.667,0.6412,0.0,0.0,0.0,0.0,0.0,0.0,0.0,0.0,0.0,0.0,0.0,0.0,0.0,0.0,0.0,0.0,0.0,0.0,0.0,0.0,0.0,0.0,0.0,0.0,0.0,0.0,0.0,0.0,0.0,0.0,0.0,0.0,0.0,0.0,0.0,0.0,0.0,0.0,0.0,0.0,0.0,0.0,0.0,0.0,0.0,0.0,0.0,0.0,0.0,0.0,0.0,0.0,0.0,0.0,0.0,0.0,0.0,0.0,0.0,0.0,0.0,0.0,0.0,0.0,0.0,0.0,0.0,0.0,0.0,0.0,0.0,0.0,0.0,0.0,0.0,0.0,0.0,0.0,0.0,0.0,0.0,0.0,0.0,0.0,0.0,0.0,0.0,0.0,0.0,0.0,0.0,0.0,0.0,0.0,0.0,0.0,0.0,0.0,0.0,0.0,0.0,0.0,0.0,0.0,0.0,0.0,0.0,0.0,0.0,0.6205,0.6215,0.6266,0.6585,0.6619,0.0,0.0,0.0,0.0,0.0,0.0,0.0,0.0,0.0,0.0,0.0,0.0,0.0,0.0,0.0,0.0,0.0,0.0,0.0,0.0,0.0,0.0,0.0,0.0,0.0,0.0,0.0,0.0,0.0,0.0,0.0,0.0,0.0,0.0,0.0,0.0,0.0,0.0,0.0,0.0,0.0,0.0,0.0,0.0,0.0,0.0,0.0,0.0,0.0,0.0,0.0,0.0,0.0,0.0,0.0,0.0,0.0,0.0,0.0,0.0,0.0,0.0,0.0,0.0,0.0,0.0,0.0,0.0,0.0,0.0,0.0,0.0,0.0,0.0,0.0,0.0,0.0,0.0,0.0,0.0,0.0,0.0,0.0,0.0,0.0,0.0,0.0,0.0,0.0,0.0,0.0,0.0,0.0,0.0,0.0,0.0,0.0,0.0,0.0,0.0,0.0,0.0,0.0,0.0,0.0,0.0,0.0,0.0,0.0,0.621,0.645,0.659,0.659,0.6731,0.6675,0.0,0.0,0.0,0.0,0.0,0.0,0.0,0.0,0.0,0.0,0.0,0.0,0.0,0.0,0.0,0.0,0.0,0.0,0.0,0.0,0.0,0.0,0.0,0.0,0.0,0.0,0.0,0.0,0.0,0.0,0.0,0.0,0.0,0.0,0.0,0.0,0.0,0.0,0.0,0.0,0.0,0.0,0.0,0.0,0.0,0.0,0.0,0.0,0.0,0.0,0.0,0.0,0.0,0.0,0.0,0.0,0.0,0.0,0.0,0.0,0.0,0.0,0.0,0.0,0.0,0.0,0.0,0.0,0.0,0.0,0.0,0.0,0.0,0.0,0.0,0.0,0.0,0.0,0.0,0.0,0.0,0.0,0.0,0.0,0.0,0.0,0.0,0.0,0.0,0.0,0.0,0.0,0.0,0.0,0.0,0.0,0.0,0.0,0.0,0.0,0.0,0.0,0.0,0.0,0.0,0.0,0.0,0.0,0.0,0.6304,0.0,0.6859,0.0,0.6769,0.6675,0.0,0.0,0.0,0.0,0.0,0.0,0.0,0.0,0.0,0.0,0.0,0.0,0.0,0.0,0.0,0.0,0.0,0.0,0.0,0.0,0.0,0.0,0.0,0.0,0.0,0.0,0.0,0.0,0.0,0.0,0.0,0.0,0.0,0.0,0.0,0.0,0.0,0.0,0.0,0.0,0.0,0.0,0.0,0.0,0.0,0.0,0.0,0.0,0.0,0.0,0.0,0.0,0.0,0.0,0.0,0.0,0.0,0.0,0.0,0.0,0.0,0.0,0.0,0.0,0.0,0.0,0.0,0.0,0.0,0.0,0.0,0.0,0.0,0.0,0.0,0.0,0.0,0.0,0.0,0.0,0.0,0.0,0.0,0.0,0.0,0.0,0.0,0.0,0.0,0.0,0.0,0.0,0.0,0.0,0.0,0.0,0.0,0.0,0.0,0.0,0.0,0.0,0.0,0.0,0.0,0.0,0.0,0.0,0.6323,0.6511,0.6961,0.6989,0.6539,0.6703,0.6619,0.0,0.0,0.0,0.0,0.0,0.0,0.0,0.0,0.0,0.0,0.0,0.0,0.0,0.0,0.0,0.0,0.0,0.0,0.0,0.0,0.0,0.0,0.0,0.0,0.0,0.0,0.0,0.0,0.0,0.0,0.0,0.0,0.0,0.0,0.0,0.0,0.0,0.0,0.0,0.0,0.0,0.0,0.0,0.0,0.0,0.0,0.0,0.0,0.0,0.0,0.0,0.0,0.0,0.0,0.0,0.0,0.0,0.0,0.0,0.0,0.0,0.0,0.0,0.0,0.0,0.0,0.0,0.0,0.0,0.0,0.0,0.0,0.0,0.0,0.0,0.0,0.0,0.0,0.0,0.0,0.0,0.0,0.0,0.0,0.0,0.0,0.0,0.0,0.0,0.0,0.0,0.0,0.0,0.0,0.0,0.0,0.0,0.0,0.0,0.0,0.0,0.0,0.0,0.0,0.0,0.0,0.0,0.0,0.0,0.6989,0.7261,0.7286,0.6989,0.6859,0.6675,0.0,0.0,0.0,0.0,0.0,0.0,0.0,0.0,0.0,0.0,0.0,0.0,0.0,0.0,0.0,0.0,0.0,0.0,0.0,0.0,0.0,0.0,0.0,0.0,0.0,0.0,0.0,0.0,0.0,0.0,0.0,0.0,0.0,0.0,0.0,0.0,0.0,0.0,0.0,0.0,0.0,0.0,0.0,0.0,0.0,0.0,0.0,0.0,0.0,0.0,0.0,0.0,0.0,0.0,0.0,0.0,0.0,0.0,0.0,0.0,0.0,0.0,0.0,0.0,0.0,0.0,0.0,0.0,0.0,0.0,0.0,0.0,0.0,0.0,0.0,0.0,0.0,0.0,0.0,0.0,0.0,0.0,0.0,0.0,0.0,0.0,0.0,0.0,0.0,0.0,0.0,0.0,0.0,0.0,0.0,0.0,0.0,0.0,0.0,0.0,0.0,0.0,0.0,0.0,0.0,0.0,0.0,0.0,0.0,0.7974,0.8031,0.7889,0.7546,0.738,0.7129,0.6776,0.0,0.0,0.0,0.0,0.0,0.0,0.0,0.0,0.0,0.0,0.0,0.0,0.0,0.0,0.0,0.0,0.0,0.0,0.0,0.0,0.0,0.0,0.0,0.0,0.0,0.0,0.0,0.0,0.0,0.0,0.0,0.0,0.0,0.0,0.0,0.0,0.0,0.0,0.0,0.0,0.0,0.0,0.0,0.0,0.0,0.0,0.0,0.0,0.0,0.0,0.0,0.0,0.0,0.0,0.0,0.0,0.0,0.0,0.0,0.0,0.0,0.0,0.0,0.0,0.0,0.0,0.0,0.0,0.0,0.0,0.0,0.0,0.0,0.0,0.0,0.0,0.0,0.0,0.0,0.0,0.0,0.0,0.0,0.0,0.0,0.0,0.0,0.0,0.0,0.0,0.0,0.0,0.0,0.0,0.0,0.0,0.0,0.0,0.0,0.0,0.0,0.0,0.0,0.0,0.0,0.0,0.0,0.0,0.9367,0.9253,0.8893,0.8212,0.8183,0.787,0.0,0.0,0.0,0.0,0.0,0.0,0.0,0.0,0.0,0.0,0.0,0.0,0.0,0.0,0.0,0.0,0.0,0.0,0.0,0.0,0.0,0.0,0.0,0.0,0.0,0.0,0.0,0.0,0.0,0.0,0.0,0.0,0.0,0.0,0.0,0.0,0.0,0.0,0.0,0.0,0.0,0.0,0.0,0.0,0.0,0.0,0.0,0.0,0.0,0.0,0.0,0.0,0.0,0.0,0.0,0.0,0.0,0.0,0.0,0.0,0.0,0.0,0.0,0.0,0.0,0.0,0.0,0.0,0.0,0.0,0.0,0.0,0.0,0.0,0.0,0.0,0.0,0.0,0.0,0.0,0.0,0.0,0.0,0.0,0.0,0.0,0.0,0.0,0.0,0.0,0.0,0.0,0.0,0.0,0.0,0.0,0.0,0.0,0.0,0.0,0.0,0.0,0.0,0.0,0.0,0.0,0.0,0.0,0.0,1.0326,1.1098,1.0892,0.956,0.9177,0.8628,0.0,0.0,0.0,0.0,0.0,0.0,0.0,0.0,0.0,0.0,0.0,0.0,0.0,0.0,0.0,0.0,0.0,0.0,0.0,0.0,0.0,0.0,0.0,0.0,0.0,0.0,0.0,0.0,0.0,0.0,0.0,0.0,0.0,0.0,0.0,0.0,0.0,0.0,0.0,0.0,0.0,0.0,0.0,0.0,0.0,0.0,0.0,0.0,0.0,0.0,0.0,0.0,0.0,0.0,0.0,0.0,0.0,0.0,0.0,0.0,0.0,0.0,0.0,0.0,0.0,0.0,0.0,0.0,0.0,0.0,0.0,0.0,0.0,0.0,0.0,0.0,0.0,0.0,0.0,0.0,0.0,0.0,0.0,0.0,0.0,0.0,0.0,0.0,0.0,0.0,0.0,0.0,0.0,0.0,0.0,0.0,0.0,0.0,0.0,0.0,0.0,0.0,0.0,0.0,0.0,0.0,0.0,0.0,1.0365,1.1275,1.2523,1.2677,1.1671,1.0563,0.9613,0.0,0.0,0.0,0.0,0.0,0.0,0.0,0.0,0.0,0.0,0.0,0.0,0.0,0.0,0.0,0.0,0.0,0.0,0.0,0.0,0.0,0.0,0.0,0.0,0.0,0.0,0.0,0.0,0.0,0.0,0.0,0.0,0.0,0.0,0.0,0.0,0.0,0.0,0.0,0.0,0.0,0.0,0.0,0.0,0.0,0.0,0.0,0.0,0.0,0.0,0.0,0.0,0.0,0.0,0.0,0.0,0.0,0.0,0.0,0.0,0.0,0.0,0.0,0.0,0.0,0.0,0.0,0.0,0.0,0.0,0.0,0.0,0.0,0.0,0.0,0.0,0.0,0.0,0.0,0.0,0.0,0.0,0.0,0.0,0.0,0.0,0.0,0.0,0.0,0.0,0.0,0.0,0.0,0.0,0.0,0.0,0.0,0.0,0.0,0.0,0.0,0.0,0.0,0.0,0.0,0.0,0.0,0.0,1.1222,1.2276,1.3642,1.425,1.3967,1.222,1.0805,0.0,0.0,0.0,0.0,0.0,0.0,0.0,0.0,0.0,0.0,0.0,0.0,0.0,0.0,0.0,0.0,0.0,0.0,0.0,0.0,0.0,0.0,0.0,0.0,0.0,0.0,0.0,0.0,0.0,0.0,0.0,0.0,0.0,0.0,0.0,0.0,0.0,0.0,0.0,0.0,0.0,0.0,0.0,0.0,0.0,0.0,0.0,0.0,0.0,0.0,0.0,0.0,0.0,0.0,0.0,0.0,0.0,0.0,0.0,0.0,0.0,0.0,0.0,0.0,0.0,0.0,0.0,0.0,0.0,0.0,0.0,0.0,0.0,0.0,0.0,0.0,0.0,0.0,0.0,0.0,0.0,0.0,0.0,0.0,0.0,0.0,0.0,0.0,0.0,0.0,0.0,0.0,0.0,0.0,0.0,0.0,0.0,0.0,0.0,0.0,0.0,0.0,0.0,0.0,0.0,0.0,0.0,0.0,1.2587,1.3498,1.4795,1.5269,1.4839,1.3467,1.2134,0.0,0.0,0.0,0.0,0.0,0.0,0.0,0.0,0.0,0.0,0.0,0.0,0.0,0.0,0.0,0.0,0.0,0.0,0.0,0.0,0.0,0.0,0.0,0.0,0.0,0.0,0.0,0.0,0.0,0.0,0.0,0.0,0.0,0.0,0.0,0.0,0.0,0.0,0.0,0.0,0.0,0.0,0.0,0.0,0.0,0.0,0.0,0.0,0.9477,0.0,0.0,0.0,0.0,0.0,0.0,0.0,0.0,0.0,0.0,0.0,0.0,0.0,0.0,0.0,0.0,0.0,0.0,0.0,0.0,0.0,0.0,0.0,0.0,0.0,0.0,0.0,0.0,0.0,0.0,0.0,0.0,0.0,0.0,0.0,0.0,0.0,0.0,0.0,0.0,0.0,0.0,0.0,0.0,0.0,0.0,0.0,0.0,0.0,0.0,0.0,0.0,0.0,0.0,0.0,0.0,0.0,0.0,0.0,1.372,1.451,1.5627,1.6045,1.5646,1.4752,1.35,0.0,0.0,0.0,0.0,0.0,0.0,0.0,0.0,0.0,0.0,0.0,0.0,0.0,0.0,0.0,0.0,0.0,0.0,0.0,0.0,0.0,0.0,0.0,0.0,0.0,0.0,0.0,0.0,0.0,0.0,0.0,0.0,0.0,0.0,0.0,0.0,0.0,0.0,0.0,0.0,0.0,0.0,0.0,0.0,0.0,0.0,0.0,0.0,0.0,0.0,0.0,0.0,0.0,0.0,0.0,0.0,0.0,0.0,0.0,0.0,0.0,0.0,0.0,0.0,0.0,0.0,0.0,0.0,0.0,0.0,0.0,0.0,0.0,0.0,0.0,0.0,0.0,0.0,0.0,0.0,0.0,0.0,0.0,0.0,0.0,0.0,0.0,0.0,0.0,0.0,0.0,0.0,0.0,0.0,0.0,0.0,0.0,0.0,0.0,0.0,0.0,0.0,0.0,0.0,0.0,0.0,0.0,1.3305,1.464,1.5285,1.6291,1.667,1.6289,1.5748,1.4545,1.2618,0.0,0.0,0.0,0.0,0.0,0.0,0.0,0.0,0.0,0.0,0.0,0.0,0.0,0.0,0.0,0.0,0.0,0.0,0.0,0.0,0.0,0.0,0.0,0.0,0.0,0.0,0.0,0.0,0.0,0.0,0.0,0.0,0.0,0.0,0.0,0.0,0.0,0.0,0.8271,0.9348,0.0,0.0,0.0,0.0,0.0,0.0,0.0,0.0,1.1051,0.0,0.0,0.0,0.0,0.0,0.0,0.0,0.0,0.0,0.0,0.0,0.0,0.0,0.0,0.0,0.0,0.0,0.0,0.0,0.0,0.0,0.0,0.0,0.0,0.0,0.0,0.0,0.0,0.0,0.0,0.0,0.0,0.0,0.0,0.0,0.0,0.0,0.0,0.0,0.0,0.0,0.0,0.0,0.0,0.0,0.0,0.0,0.0,0.0,0.0,0.0,0.0,0.0,0.0,0.0,0.0,1.1629,1.3816,1.5206,1.5701,1.6798,1.703,1.6326,1.563,1.4451,1.283,0.0,0.0,0.0,0.0,0.0,0.0,0.0,0.0,0.0,0.0,0.0,0.0,0.0,0.0,0.0,0.0,0.0,0.0,0.0,0.0,0.0,0.0,0.0,0.0,0.0,0.0,0.0,0.0,0.0,0.0,0.0,0.0,0.0,0.0,0.0,0.0,0.0,0.0,0.0,0.9977,1.0551,0.0,0.0,0.0,0.0,0.0,0.0,0.0,0.0,1.1236,0.0,0.0,0.0,0.0,0.0,0.0,0.0,0.0,0.0,0.0,0.0,0.0,0.0,0.0,0.0,0.0,0.0,0.0,0.0,0.0,0.0,0.0,0.0,0.0,0.0,0.0,0.0,0.0,0.0,0.0,0.0,0.0,0.0,0.0,0.0,0.0,0.0,0.0,0.0,0.0,0.0,0.0,0.0,0.0,0.0,0.0,0.0,0.0,0.0,0.0,0.0,0.0,0.0,0.0,0.0,1.2139,1.432,1.5712,1.6222,1.7041,1.705,1.6113,1.5191,1.3944,0.0,0.0,0.0,0.0,0.0,0.0,0.0,0.0,0.0,0.0,0.0,0.0,0.0,0.0,0.0,0.0,0.0,0.0,0.0,0.0,0.0,0.0,0.0,0.0,0.0,0.0,0.0,0.0,0.0,0.0,0.0,0.0,0.0,0.0,0.0,0.0,0.0,0.0,0.0,0.0,1.0889,1.1608,1.1542,0.0,0.0,0.0,0.0,0.0,0.0,1.2026,1.1737,0.0,0.0,0.0,0.0,0.0,0.0,0.0,0.0,0.0,0.0,0.0,0.0,0.0,0.0,0.0,0.0,0.0,0.0,0.0,0.0,0.0,0.0,0.0,0.0,0.0,0.0,0.0,0.0,0.0,0.0,0.0,0.0,0.0,0.0,0.0,0.0,0.0,0.0,0.0,0.0,0.0,0.0,0.0,0.0,0.0,0.0,0.0,0.0,0.0,0.0,0.0,0.0,0.0,0.0,0.0,1.2294,1.4378,1.5693,1.6189,1.6815,1.6639,1.5648,1.4542,1.3294,0.0,0.0,0.0,0.0,0.0,0.0,0.0,0.0,0.0,0.0,0.0,0.0,0.0,0.0,0.0,0.0,0.0,0.0,0.0,0.0,0.0,0.0,0.0,0.0,0.0,0.0,0.0,0.0,0.0,0.0,0.0,0.0,0.0,0.0,0.0,0.0,0.0,0.0,0.0,0.0,0.0,1.2645,1.2575,1.2777,0.0,0.0,0.0,0.0,1.2988,1.2822,0.0,0.0,0.0,0.0,0.0,0.0,0.0,0.0,0.0,0.0,0.0,0.0,0.0,0.0,0.0,0.0,0.0,0.0,0.0,0.0,0.0,0.0,0.0,0.0,0.0,0.0,0.0,0.0,0.0,0.0,0.0,0.0,0.0,0.0,0.0,0.0,0.0,0.0,0.0,0.0,0.0,0.0,0.0,0.0,0.0,0.0,0.0,0.0,0.0,0.0,0.0,0.0,0.0,0.0,0.0,0.0,1.159,1.3321,1.4395,1.4825,1.5491,1.5441,1.4678,1.3736,1.2664,0.0,0.0,0.0,0.0,0.0,0.0,0.0,0.0,0.0,0.0,0.0,0.0,0.0,0.0,0.0,0.0,0.0,0.0,0.0,0.0,0.0,0.0,0.0,0.0,0.0,0.0,0.0,0.0,0.0,0.0,0.0,0.0,0.0,0.0,0.0,0.0,0.0,0.0,0.0,0.0,0.0,1.3194,1.31,1.3484,1.3857,0.0,0.0,1.3786,1.4075,1.4087,0.0,0.0,0.0,0.0,0.0,0.0,0.0,0.0,0.0,0.0,0.0,0.0,0.0,0.0,0.0,0.0,0.0,0.0,0.0,0.0,0.0,0.0,0.0,0.0,0.0,0.0,0.0,0.0,0.0,0.0,0.0,0.0,0.0,0.0,0.0,0.0,0.0,0.0,0.0,0.0,0.0,0.0,0.0,0.0,0.0,0.0,0.0,0.0,0.0,0.0,0.0,0.0,0.0,0.0,0.0,0.891,1.0348,1.1845,1.2826,1.3237,1.3778,1.3758,1.3108,1.2425,1.159,0.0,0.0,0.0,0.0,0.0,0.0,0.0,0.0,0.0,0.0,0.0,0.0,0.0,0.0,0.0,0.0,0.0,0.0,0.0,0.0,0.0,0.0,0.0,0.0,0.0,0.0,0.0,0.0,0.0,0.0,0.0,0.0,0.0,0.0,0.0,0.0,0.0,0.0,0.0,0.0,0.0,0.0,1.4228,1.4587,0.0,0.0,0.0,1.4956,1.5353,0.0,0.0,0.0,0.0,0.0,0.0,0.0,0.0,0.0,0.0,0.0,0.0,0.0,0.0,0.0,0.0,0.0,0.0,0.0,0.0,0.0,0.0,0.0,0.0,0.0,0.0,0.0,0.0,0.0,0.0,0.0,0.0,0.0,0.0,0.0,0.0,0.0,0.0,0.0,0.0,0.0,0.0,0.0,0.0,0.0,0.0,0.0,0.0,0.0,0.0,0.0,0.0,0.0,0.0,0.0,0.0,0.0,0.9278,1.0599,1.1444,1.1805,1.2233,1.2189,1.1695,1.1388,0.0,0.0,0.0,0.0,0.0,0.0,0.0,0.0,0.0,0.0,0.0,0.0,0.0,0.0,0.0,0.0,0.0,0.0,0.0,0.0,0.0,0.0,0.0,0.0,0.0,0.0,0.0,0.7993,0.0,0.0,0.0,0.0,0.0,0.0,0.0,0.0,0.0,0.0,0.0,0.0,0.0,0.0,1.459,1.5199,1.5755,1.6166,0.0,0.0,1.6211,1.6549,1.6598,1.6284,0.0,0.0,0.0,0.0,0.0,0.0,0.0,0.0,0.0,0.0,0.0,0.0,0.0,0.0,0.0,0.0,0.0,0.0,0.0,0.0,0.0,0.0,0.0,0.0,0.0,0.0,0.0,0.0,0.0,0.0,0.0,0.0,0.0,0.0,0.0,0.0,0.0,0.0,0.0,0.0,0.0,0.0,0.0,0.0,0.0,0.0,0.0,0.0,0.0,0.0,0.0,0.0,0.0,0.0,0.0,0.8742,0.9749,1.0443,1.0784,1.1058,1.1091,1.0786,1.093,1.0511,0.0,0.0,0.0,0.0,0.0,0.0,0.0,0.0,0.0,0.0,0.0,0.0,0.0,0.0,0.0,0.0,0.0,0.0,0.0,0.0,0.0,0.0,0.0,0.0,0.0,0.0,0.0,0.0,0.0,0.0,0.0,0.0,0.0,0.0,0.0,0.0,0.0,0.0,0.0,0.0,0.0,1.5269,1.5697,1.689,1.7665,0.0,0.0,1.7677,1.7443,1.7406,1.696,1.568,0.0,0.0,0.0,0.0,0.0,0.0,0.0,0.0,0.0,0.0,0.0,0.0,0.0,0.0,0.0,0.0,0.0,0.0,0.0,0.0,0.0,0.0,0.0,0.0,0.0,0.0,0.0,0.0,0.0,0.0,0.0,0.0,0.0,0.0,0.0,0.0,0.0,0.0,0.0,0.0,0.0,0.0,0.0,0.0,0.0,0.0,0.0,0.0,0.0,0.0,0.0,0.0,0.0,0.6869,0.7657,0.8678,0.9216,0.9162,0.9404,0.9523,0.9475,0.9741,0.9552,0.0,0.0,0.0,0.0,0.0,0.0,0.0,0.0,0.0,0.0,0.0,0.0,0.0,0.0,0.0,0.0,0.0,0.0,0.0,0.0,0.0,0.0,0.0,0.0,0.0,0.0,0.0,0.0,0.9006,0.9232,0.9393,0.0,0.0,0.0,0.0,0.0,0.0,0.0,0.0,0.0,0.0,1.5596,1.6473,1.7917,0.0,0.0,1.9048,1.8995,1.856,1.8354,1.781,1.6453,1.5294,0.0,0.0,0.0,0.0,0.0,0.0,0.0,0.0,0.0,0.0,0.0,0.0,0.0,0.0,0.0,0.0,0.0,0.0,0.0,0.0,0.0,0.0,0.0,0.0,0.0,0.0,0.0,0.0,0.0,0.0,0.0,0.0,0.0,0.0,0.0,0.0,0.0,0.0,0.0,0.0,0.0,0.0,0.0,0.0,0.0,0.0,0.0,0.0,0.0,0.0,0.0,0.0,0.6453,0.7084,0.8079,0.8524,0.8399,0.859,0.8684,0.8669,0.9096,0.9003,0.0,0.0,0.0,0.0,0.0,0.0,0.0,0.0,0.0,0.0,0.0,0.0,0.0,0.0,0.0,0.0,0.0,0.0,0.0,0.0,0.0,0.0,0.0,0.0,0.0,0.0,0.0,0.0,0.8724,0.8834,0.8842,0.0,0.0,0.0,0.0,0.0,0.0,0.0,0.0,0.0,0.0,1.5466,1.6603,1.8134,1.9166,1.9201,1.9341,1.9201,1.8556,1.8182,1.7575,1.6424,0.0,0.0,0.0,0.0,0.0,0.0,0.0,0.0,0.0,0.0,0.0,0.0,0.0,0.0,0.0,0.0,0.0,0.0,0.0,0.0,0.0,0.0,0.0,0.0,0.0,0.0,0.0,0.0,0.0,0.0,0.6269,0.0,0.0,0.0,0.0,0.0,0.0,0.0,0.0,0.0,0.0,0.0,0.0,0.0,0.0,0.0,0.0,0.0,0.0,0.0,0.0,0.0,0.0,0.6642,0.7266,0.8166,0.8644,0.8787,0.8843,0.8823,0.8623,0.9238,0.9102,0.8051,0.0,0.0,0.0,0.0,0.0,0.0,0.0,0.0,0.0,0.0,0.0,0.0,0.0,0.0,0.0,0.0,0.0,0.0,0.0,0.0,0.0,0.0,0.0,0.0,0.0,0.0,0.8323,0.8576,0.8571,0.0,0.0,0.0,0.0,0.0,0.0,0.0,0.0,0.0,0.0,1.3554,1.484,1.5784,1.73,1.817,1.7741,1.8052,1.802,1.7195,1.6645,1.6084,0.0,0.0,0.0,0.0,0.0,0.0,0.0,0.0,0.0,0.0,0.0,0.0,0.0,0.0,0.0,0.0,0.0,0.0,0.0,0.0,0.0,0.0,0.0,0.0,0.0,0.0,0.0,0.7189,0.6809,0.0,0.0,0.0,0.0,0.0,0.0,0.0,0.0,0.0,0.0,0.0,0.7189,0.7695,0.0,0.0,0.0,0.0,0.0,0.0,0.0,0.0,0.0,0.0,0.0,0.0,0.6817,0.7435,0.8329,0.8811,0.8859,0.8973,0.8962,0.88,0.8873,0.8398,0.7263,0.0,0.0,0.0,0.0,0.0,0.0,0.0,0.0,0.0,0.0,0.0,0.0,0.0,0.0,0.0,0.0,0.0,0.0,0.0,0.0,0.0,0.0,0.0,0.0,0.0,0.7589,0.0,0.0,0.0,0.0,0.0,0.0,0.0,0.0,0.0,0.0,0.0,1.0477,1.122,1.2653,1.3955,1.4783,1.6333,1.7303,0.0,0.0,0.0,0.0,0.0,0.0,0.0,0.0,0.0,0.0,0.0,0.0,0.0,0.0,1.436,1.4818,1.4916,1.4932,1.5068,0.0,0.0,0.0,0.0,0.0,0.0,0.0,0.0,0.0,0.0,0.0,0.0,0.0,0.0,0.7477,0.0,0.686,0.0,0.0,0.0,0.0,0.0,0.0,0.0,0.0,0.7811,0.8089,0.7839,0.8299,0.8293,0.0,0.7928,0.75,0.0,0.0,0.0,0.0,0.0,0.0,0.0,0.0,0.704,0.7649,0.8551,0.9022,0.8989,0.9136,0.9141,0.8979,0.8665,0.8122,0.7263,0.6762,0.6187,0.0,0.0,0.0,0.0,0.0,0.0,0.0,0.0,0.0,0.0,0.0,0.0,0.0,0.0,0.0,0.0,0.0,0.0,0.0,0.0,0.0,0.0,0.0,0.7485,0.0,0.0,0.0,0.0,0.0,0.0,0.0,0.0,0.0,0.9793,1.0136,1.0512,1.0974,1.2105,1.3139,1.3924,0.0,0.0,0.0,0.0,0.0,0.0,0.0,1.3876,1.3436,1.3222,1.3146,1.3305,1.3485,1.3739,1.4028,0.0,0.0,1.5302,1.5503,1.5762,1.6311,1.621,1.6095,1.6328,1.6531,1.6869,0.0,0.0,0.0,0.0,0.0,0.0,0.0,0.0,0.8067,0.7553,0.0,0.6587,0.0,0.0,0.0,0.0,0.0,0.6609,0.0,0.0,0.8098,0.8507,0.8717,0.8767,0.8801,0.8733,0.8761,0.8535,0.8034,0.7053,0.0,0.0,0.0,0.0,0.0,0.0,0.729,0.793,0.8818,0.9217,0.913,0.9367,0.9372,0.9098,0.8648,0.8323,0.8094,0.7555,0.7046,0.6628,0.606,0.0,0.0,0.0,0.0,0.0,0.0,0.0,0.0,0.0,0.0,0.0,0.0,0.0,0.0,0.0,0.0,0.0,0.0,0.0,0.0,0.7396,0.0,0.0,0.0,0.0,0.0,0.0,0.0,0.0,0.0,0.0,1.0097,1.0428,1.0838,1.1429,0.0,0.0,0.0,0.0,1.4538,1.4295,1.4453,1.4418,1.375,1.3383,1.316,1.3091,0.0,0.0,1.3784,1.3856,1.3911,1.4136,1.4303,1.4711,1.548,1.5815,1.6249,1.7154,1.7045,1.6929,1.7222,1.7302,1.7638,0.9437,0.0,0.0,0.0,0.0,0.9041,0.9118,0.9251,0.8353,0.7702,0.7175,0.6526,0.0,0.0,0.0,0.0,0.0,0.0,0.627,0.6766,0.7183,0.7388,0.7517,0.7572,0.7605,0.7517,0.7539,0.7353,0.6966,0.6625,0.6557,0.6801,0.0,0.0,0.0,0.0,0.7573,0.8258,0.8948,0.9372,0.9514,0.9497,0.9372,0.9103,0.8881,0.8654,0.8443,0.8106,0.769,0.7251,0.6748,0.0,0.0,0.0,0.0,0.0,0.0,0.0,0.0,0.0,0.0,0.0,0.0,0.0,0.0,0.0,0.0,0.0,0.0,0.0,0.7925,0.8126,0.8056,0.0,0.0,0.0,0.0,0.0,0.0,0.0,0.0,0.0,1.0818,1.0967,1.1135,0.0,0.0,1.2274,1.2552,1.2899,1.3111,1.303,1.3058,0.0,0.0,1.2558,1.2422,1.2499,1.2832,1.3152,1.3344,1.3471,1.3528,1.3497,1.3518,1.3627,1.3817,1.5017,1.6173,1.7008,1.7251,1.731,1.7366,1.7645,1.8009,0.882,0.8737,0.9226,0.9455,0.9495,0.9375,0.956,0.9904,0.876,0.7912,0.7226,0.6266,0.5365,0.4546,0.4301,0.0,0.0,0.0,0.5176,0.5574,0.588,0.6043,0.6115,0.6225,0.6218,0.6115,0.6115,0.6009,0.5779,0.5708,0.5778,0.6029,0.0,0.0,0.6331,0.6636,0.7103,0.7646,0.8208,0.856,0.8685,0.8619,0.8465,0.8302,0.8151,0.801,0.7878,0.7807,0.7647,0.7459,0.7119,0.6743,0.0,0.0,0.0,0.0,0.0,0.0,0.0,0.0,0.0,0.0,0.0,0.4977,0.5364,0.0,0.0,0.0,0.7352,0.8034,0.8607,0.8804,0.0,0.0,0.0,0.0,0.0,0.0,0.0,1.0175,1.0799,1.1363,1.1689,1.1887,1.1948,1.1769,1.2081,1.2386,1.2535,0.0,1.2786,1.2847,1.2861,1.2827,1.2739,1.2642,1.2608,1.2786,1.3037,1.3268,1.341,1.3519,1.3539,1.3464,1.3437,1.341,1.3329,1.4493,1.5632,1.6346,1.663,1.6764,1.6844,1.7057,1.7269,0.7454,0.7431,0.8545,0.9118,0.9351,0.953,0.986,1.0123,0.8991,0.7998,0.706,0.5737,0.4524,0.3485,0.3078,0.0,0.3495,0.3611,0.3848,0.4136,0.4435,0.4586,0.4633,0.4766,0.4761,0.4626,0.4626,0.4569,0.4499,0.4409,0.4257,0.4141,0.4753,0.5195,0.5485,0.577,0.6072,0.636,0.6831,0.7079,0.7,0.6963,0.6915,0.6899,0.6705,0.6654,0.6642,0.677,0.7017,0.7315,0.7168,0.7077,0.7035,0.0,0.0,0.0,0.0,0.0,0.0,0.0,0.0,0.0,0.0,0.0,0.0,0.0,0.0,0.0,0.8421,0.0,0.9274,0.956,0.0,0.0,0.0,0.943,0.972,1.0378,1.0928,1.1268,0.0,0.0,1.2556,1.2956,1.3024,1.2481,1.2611,1.2868,1.305,1.3186,1.3275,1.3397,1.3431,1.3431,1.339,1.3281,1.3281,1.3526,1.3605,1.3632,1.3741,1.3774,1.3795,1.3768,1.3795,1.3781,1.3788,1.4181,1.4662,1.5354,1.5567,1.5711,1.5989,1.5997,1.6038,0.595,0.5929,0.6211,0.6959,0.7965,0.8152,0.8365,0.855,0.7481,0.657,0.5693,0.4573,0.3502,0.2523,0.238,0.2387,0.2529,0.2634,0.2751,0.284,0.303,0.3053,0.3037,0.3111,0.3136,0.3037,0.3034,0.3037,0.297,0.292,0.2842,0.2698,0.2868,0.3416,0.4284,0.439,0.4607,0.4973,0.5257,0.5414,0.5399,0.5346,0.5327,0.5265,0.5232,0.5192,0.5216,0.547,0.6022,0.689,0.6891,0.7076,0.7498,0.6964,0.0,0.0,0.0,0.0,0.0,0.0,0.0,0.0,0.0,0.6153,0.6726,0.0,0.7616,0.0,0.9067,0.9737,1.0172,1.0414,0.0,0.0,1.0407,1.0507,1.0921,1.1321,1.1721,1.2135,1.2683,1.3017,1.3166,1.3436,1.3592,1.345,1.3484,1.3551,1.3627,1.3612,1.3653,1.3687,1.3693,1.3693,1.37,1.3709,1.3709,1.3734,1.3747,1.3761,1.3795,1.3795,1.3795,1.3795,1.3795,1.3795,1.3815,1.4019,1.4239,1.4479,1.4987,1.5468,1.5554,1.5639,1.576,0.4288,0.4274,0.4292,0.4723,0.5522,0.6377,0.6849,0.6936,0.5905,0.5007,0.4133,0.2683,0.175,0.1222,0.1166,0.1207,0.1223,0.1271,0.1279,0.1329,0.143,0.1433,0.1383,0.1433,0.1421,0.1391,0.1383,0.1363,0.1334,0.1333,0.1284,0.123,0.1197,0.1532,0.2174,0.2861,0.3306,0.3547,0.369,0.3764,0.3764,0.3745,0.3702,0.3669,0.3644,0.3615,0.3644,0.4148,0.4858,0.5825,0.6061,0.6436,0.6934,0.6479,0.5903,0.0,0.0,0.0,0.0,0.0,0.0,0.0,0.0,0.0,0.0,0.0,0.8713,0.9341,0.9953,1.0475,1.0955,1.1328,1.1536,1.1597,1.159,1.1705,1.2091,1.2352,1.2651,1.2969,1.3342,1.3649,1.3695,1.3899,1.3998,1.4048,1.4004,1.4021,1.3953,1.3939,1.3966,1.3991,1.4095,1.4119,1.418,1.4194,1.4194,1.4194,1.414,1.4143,1.4092,1.4045,1.4018,1.4079,1.4099,1.4119,1.4187,1.4261,1.4367,1.4456,1.4766,1.4976,1.4943,1.4986,1.5087,0.2543,0.2524,0.2547,0.2513,0.2651,0.416,0.5001,0.5306,0.4346,0.3461,0.25,0.0759,0.0,0.0,0.0,0.0,0.0,0.0,0.0,0.0,0.0,0.0,0.0,0.0,0.0,0.0,0.0,0.0,0.0,0.0,0.0,0.0,0.0,0.0,0.0,0.1329,0.204,0.2097,0.2157,0.2207,0.2167,0.2105,0.2117,0.2088,0.2025,0.1996,0.2037,0.273,0.3528,0.4351,0.4812,0.5309,0.5803,0.5414,0.4959,0.0,0.4336,0.0,0.0,0.0,0.0,0.0,0.0,0.0,0.0,0.9196,0.9595,1.0235,1.0557,1.0898,1.1398,1.1896,1.228,1.2459,1.2686,1.2874,1.3071,1.3288,1.3519,1.3626,1.3933,1.4146,1.4166,1.4251,1.4333,1.4346,1.4353,1.4312,1.419,1.4129,1.415,1.4306,1.4428,1.4444,1.4532,1.4593,1.4586,1.4599,1.455,1.4509,1.4455,1.4401,1.4387,1.4475,1.4502,1.4525,1.4674,1.4681,1.4681,1.466,1.4699,1.4676,1.4479,1.4462,1.4353,0.0553,0.0552,0.0554,0.0557,0.0561,0.0886,0.1951,0.3376,0.2814,0.202,0.1093,0.0315,0.0,0.0,0.0,0.0,0.0,0.0,0.0,0.0,0.0,0.0,0.0,0.0,0.0,0.0,0.0,0.0,0.0,0.0,0.0,0.0,0.0,0.0,0.0,0.0,0.0,0.0,0.0444,0.0485,0.0485,0.0439,0.0432,0.0461,0.0456,0.0,0.0432,0.0907,0.1668,0.2687,0.3057,0.0,0.0,0.0,0.0,0.0,0.0,0.0,0.0,0.0,0.0,0.0,0.5882,0.6652,0.8018,0.8654,0.9087,0.9258,0.9479,0.9897,1.0615,1.1327,1.1957,1.2466,1.2976,1.3336,1.3485,1.3612,1.3817,1.3973,1.415,1.4299,1.4401,1.4455,1.4516,1.4572,1.4613,1.4599,1.4559,1.4401,1.4319,1.4448,1.4516,1.4482,1.4394,1.4421,1.4468,1.4387,1.4468,1.4475,1.4407,1.4491,1.4552,1.4557,1.4566,1.466,1.4701,1.4694,1.4714,1.4694,1.4701,1.4681,1.462,1.4613,1.4613,0.0,0.0,0.0,0.0,0.0,0.0,0.0567,0.1457,0.1221,0.0841,0.0324,0.0092,0.0,0.0,0.0,0.0,0.0,0.0,0.0,0.0,0.0,0.0,0.0,0.0,0.0,0.0,0.0,0.0,0.0,0.0,0.0,0.0,0.0,0.0,0.0,0.0,0.0,0.0,0.0,0.0,0.0,0.0,0.0,0.0,0.0,0.0,0.0,0.0,0.0,0.0,0.0,0.0,0.0,0.0,0.0,0.2413,0.2496,0.2728,0.3144,0.3537,0.4122,0.4919,0.5227,0.5961,0.732,0.7732,0.8014,0.8202,0.8391,0.8882,0.982,1.0735,1.1617,1.2363,1.3212,1.3763,1.3844,1.398,1.4095,1.417,1.4251,1.4353,1.4496,1.4516,1.4577,1.4667,1.4694,1.4701,1.4681,1.4572,1.457,1.4713,1.474,1.4746,1.474,1.474,1.4726,1.4746,1.474,1.4706,1.469,1.4692,1.4687,1.4733,1.4808,1.4869,1.4943,1.4957,1.4957,1.4957,1.4957,1.4957,1.495,1.4802,1.4694,0.0,0.0,0.0,0.0,0.0,0.0,0.0,0.0,0.0,0.0,0.0,0.0,0.0,0.0,0.0,0.0,0.0,0.0,0.0,0.0,0.0,0.0,0.0,0.0,0.0,0.0,0.0,0.0,0.0,0.0,0.0,0.0,0.0,0.0,0.0,0.0,0.0,0.0,0.0,0.0,0.0,0.0,0.0,0.0,0.0,0.0,0.0,0.0341,0.0644,0.0973,0.1237,0.1522,0.1778,0.1706,0.1624,0.1636,0.192,0.2325,0.2814,0.3233,0.3687,0.421,0.4465,0.518,0.6463,0.6644,0.6756,0.7022,0.7199,0.7688,0.8756,0.9878,1.0945,1.1879,1.301,1.3674,1.3795,1.3982,1.4069,1.424,1.4298,1.4434,1.4584,1.4611,1.4652,1.4735,1.4841,1.4769,1.4769,1.4748,1.4794,1.4869,1.4896,1.503,1.5059,1.5052,1.5106,1.5025,1.4991,1.501,1.4923,1.4869,1.4855,1.4875,1.4964,1.5085,1.5166,1.514,1.5181,1.5181,1.5181,1.5181,1.516,1.4991,1.4796,0.0,0.0,0.0,0.0,0.0,0.0,0.0,0.0,0.0,0.0,0.0,0.0,0.0,0.0,0.0,0.0,0.0,0.0,0.0,0.0,0.0,0.0,0.0,0.0,0.0,0.0,0.0,0.0,0.0,0.0,0.0,0.0,0.0,0.0,0.0,0.0,0.0,0.0,0.0,0.0,0.0,0.0,0.0,0.0,0.0,0.0,0.0,0.0,0.0117,0.0154,0.0194,0.0271,0.0,0.0304,0.0453,0.0817,0.09,0.1297,0.2106,0.2221,0.2477,0.2895,0.3075,0.3722,0.511,0.5385,0.548,0.5592,0.5623,0.6078,0.7137,0.8217,0.922,1.0229,1.127,1.2153,1.2652,1.309,1.3517,1.3971,1.4406,1.4726,1.4848,1.4889,1.493,1.5072,1.5072,1.5106,1.5072,1.5011,1.4896,1.4821,1.4889,1.4916,1.4896,1.4769,1.4809,1.4755,1.4923,1.495,1.4802,1.497,1.5011,1.4775,1.4991,1.5092,1.5045,1.5099,1.5167,1.5181,1.5181,1.5181,1.5181,1.5126,1.5099,0.0,0.0,0.0,0.0,0.0,0.0,0.0,0.0,0.0,0.0,0.0,0.0,0.0,0.0,0.0,0.0,0.0,0.0,0.0,0.0,0.0,0.0,0.0,0.0,0.0,0.0,0.0,0.0,0.0,0.0,0.0,0.0,0.0,0.0,0.0,0.0,0.0,0.0,0.0,0.0,0.0,0.0,0.0,0.0,0.0,0.0,0.0,0.0,0.0,0.0,0.0,0.0,0.0,0.0236,0.0469,0.0696,0.114,0.1601,0.2034,0.2292,0.2549,0.2761,0.2806,0.3117,0.3788,0.39,0.3939,0.3979,0.4047,0.4461,0.5439,0.6439,0.7407,0.8387,0.9374,1.0302,1.1176,1.1934,1.2666,1.3455,1.4231,1.4755,1.495,1.5017,1.5071,1.5153,1.5181,1.5181,1.5181,1.5126,1.5059,1.5004,1.5038,1.5052,1.4991,1.4977,1.4977,1.4984,1.5038,1.5052,1.4991,1.5113,1.5106,1.5018,1.5099,1.5147,1.5086,1.5133,1.5174,1.5181,1.5181,1.5181,1.5181,1.5181,1.5181,0.0,0.0,0.0,0.0,0.0,0.0,0.0,0.0,0.0,0.0,0.0,0.0,0.0,0.0,0.0,0.0,0.0,0.0,0.0,0.0,0.0,0.0,0.0,0.0,0.0,0.0,0.0,0.0,0.0,0.0,0.0,0.0,0.0,0.0,0.0,0.0,0.0,0.0,0.0,0.0,0.0,0.0,0.0,0.0,0.0,0.0,0.0,0.0,0.0,0.0,0.0,0.0041,0.0163,0.0489,0.0772,0.1049,0.1637,0.2079,0.2276,0.2639,0.2816,0.2825,0.2867,0.2942,0.2904,0.2904,0.2909,0.2927,0.3034,0.3408,0.4252,0.5019,0.5845,0.6681,0.7502,0.8507,0.9686,1.0766,1.1879,1.2996,1.4106,1.4896,1.4984,1.5064,1.5065,1.52,1.5181,1.5181,1.5181,1.5181,1.5181,1.5181,1.5181,1.5174,1.5181,1.5167,1.5167,1.5181,1.5174,1.516,1.516,1.5174,1.5153,1.5126,1.5147,1.52,1.5147,1.516,1.5174,1.5181,1.5181,1.5181,1.5181,1.5181,1.5181,0.0,0.0,0.0,0.0,0.0,0.0,0.0,0.0,0.0,0.0,0.0,0.0,0.0,0.0,0.0,0.0,0.0,0.0,0.0,0.0,0.0,0.0,0.0,0.0,0.0,0.0,0.0,0.0,0.0,0.0,0.0,0.0,0.0,0.0,0.0,0.0,0.0,0.0,0.0,0.0,0.0,0.0,0.0,0.0,0.0,0.0,0.0,0.0,0.0,0.0,0.0,0.0216,0.056,0.069,0.1077,0.1892,0.2028,0.2312,0.2758,0.2885,0.2912,0.2988,0.2992,0.3009,0.2987,0.2992,0.2983,0.3013,0.3007,0.3241,0.3697,0.425,0.477,0.5269,0.5882,0.6811,0.837,0.9861,1.1276,1.2752,1.4171,1.5147,1.514,1.5147,1.516,1.5174,1.5181,1.5181,1.5181,1.5181,1.5181,1.5181,1.5181,1.5181,1.5181,1.5181,1.5181,1.5181,1.5181,1.5181,1.5181,1.5174,1.5153,1.5099,1.516,1.514,1.5086,1.5086,1.5181,1.5181,1.5181,1.5181,1.5181,1.5181,1.5181,0.0,0.0,0.0,0.0,0.0,0.0,0.0,0.0,0.0,0.0,0.0,0.0,0.0,0.0,0.0,0.0,0.0,0.0,0.0,0.0,0.0,0.0,0.0,0.0,0.0,0.0,0.0,0.0,0.0,0.0,0.0,0.0,0.0,0.0,0.0,0.0,0.0,0.0,0.0,0.0,0.0,0.0,0.0,0.0,0.0,0.0,0.0,0.0,0.0,0.0,0.0,0.0217,0.0652,0.0957,0.1391,0.2045,0.2422,0.2676,0.2896,0.2926,0.2993,0.3007,0.2979,0.2994,0.3006,0.3022,0.3075,0.3065,0.3063,0.315,0.3318,0.3455,0.3648,0.3896,0.4086,0.4995,0.685,0.8656,1.0408,1.2261,1.4052,1.5181,1.5181,1.5181,1.5181,1.5181,1.5181,1.5181,1.5181,1.5181,1.5181,1.5181,1.5181,1.5181,1.5181,1.5181,1.5181,1.5181,1.5181,1.5181,1.5181,1.5181,1.5153,1.5099,1.514,1.5167,1.5126,1.5126,1.5181,1.5181,1.5181,1.5181,1.5181,1.5181,1.5181,0.0,0.0,0.0,0.0,0.0,0.0,0.0,0.0,0.0,0.0,0.0,0.0,0.0,0.0,0.0,0.0,0.0,0.0,0.0,0.0,0.0,0.0,0.0,0.0,0.0,0.0,0.0,0.0,0.0,0.0,0.0,0.0,0.0,0.0,0.0,0.0,0.0,0.0,0.0,0.0,0.0,0.0,0.0,0.0,0.0,0.0,0.0,0.0,0.0,0.0,0.0,0.0266,0.0885,0.1239,0.1681,0.2303,0.2693,0.2911,0.2939,0.2961,0.3024,0.3034,0.3054,0.3018,0.3022,0.3088,0.3099,0.3099,0.31,0.3088,0.3024,0.302,0.302,0.302,0.302,0.3833,0.5713,0.7579,0.9444,1.1369,1.3051,1.4373,1.4388,1.4382,1.4476,1.4664,1.4852,1.5087,1.5181,1.5181,1.5181,1.5181,1.5181,1.5181,1.5181,1.5181,1.5181,1.5181,1.5181,1.5181,1.5181,1.5181,1.5181,1.514,1.5174,1.5174,1.5153,1.5174,1.5181,1.5181,1.5181,1.5181,1.5181,1.5181,1.5181,0.0,0.0,0.0,0.0,0.0,0.0,0.0,0.0,0.0,0.0,0.0,0.0,0.0,0.0,0.0,0.0,0.0,0.0,0.0,0.0,0.0,0.0,0.0,0.0,0.0,0.0,0.0,0.0,0.0,0.0,0.0,0.0,0.0,0.0,0.0,0.0,0.0,0.0,0.0,0.0,0.0,0.0,0.0,0.0,0.0,0.0,0.0,0.0,0.0,0.0,0.0,0.0415,0.1338,0.1475,0.198,0.2811,0.2953,0.2969,0.2994,0.3002,0.3016,0.3088,0.3092,0.3096,0.3093,0.31,0.3104,0.3101,0.3107,0.3104,0.3101,0.3096,0.3094,0.3094,0.3096,0.3812,0.5151,0.672,0.8303,0.9841,1.1412,1.2292,1.2341,1.2739,1.3228,1.37,1.4153,1.4623,1.5107,1.5194,1.5181,1.5181,1.5181,1.5181,1.5181,1.5181,1.5181,1.5181,1.5181,1.5181,1.5181,1.5181,1.5181,1.5181,1.5181,1.5181,1.5181,1.5181,1.5181,1.5181,1.5181,1.5181,1.5181,1.5181,1.5181,0.0,0.0,0.0,0.0,0.0,0.0,0.0,0.0,0.0,0.0,0.0,0.0,0.0,0.0,0.0,0.0,0.0,0.0,0.0,0.0,0.0,0.0,0.0,0.0,0.0,0.0,0.0,0.0,0.0,0.0,0.0,0.0,0.0,0.0,0.0,0.0,0.0,0.0,0.0,0.0,0.0,0.0,0.0,0.0,0.0,0.0,0.0,0.0,0.0,0.0,0.0,0.0463,0.1436,0.2129,0.2592,0.2964,0.298,0.2995,0.3007,0.3025,0.3088,0.3097,0.31,0.31,0.3104,0.3117,0.3129,0.3132,0.31,0.311,0.3103,0.3125,0.31,0.31,0.3149,0.354,0.4708,0.5931,0.715,0.8376,0.9568,1.0293,1.0454,1.1032,1.1903,1.2757,1.3513,1.4279,1.5073,1.5248,1.5181,1.5181,1.5181,1.5181,1.5181,1.5181,1.5181,1.5181,1.5181,1.5181,1.5181,1.5181,1.5181,1.5181,1.5181,1.5181,1.5181,1.5181,1.5181,1.5181,1.5181,1.5181,1.5181,1.5181,1.5181,0.0,0.0,0.0,0.0,0.0,0.0,0.0,0.0,0.0,0.0,0.0,0.0,0.0,0.0,0.0,0.0,0.0,0.0,0.0,0.0,0.0,0.0,0.0,0.0,0.0,0.0,0.0,0.0,0.0,0.0,0.0,0.0,0.0,0.0,0.0,0.0,0.0,0.0,0.0,0.0,0.0,0.0,0.0,0.0,0.0,0.0,0.0,0.0,0.0,0.0,0.0,0.0468,0.1449,0.2477,0.3038,0.3039,0.3057,0.3021,0.3024,0.3089,0.31,0.31,0.31,0.3103,0.3114,0.3135,0.31,0.3114,0.3129,0.3093,0.3135,0.3106,0.313,0.3129,0.3129,0.3427,0.4273,0.5113,0.6113,0.7067,0.7792,0.8172,0.8367,0.9196,1.0166,1.1241,1.2358,1.3447,1.4527,1.4951,1.504,1.5181,1.5181,1.5181,1.5181,1.5187,1.5187,1.5187,1.5181,1.5181,1.5181,1.5181,1.5181,1.5181,1.5181,1.5181,1.5181,1.5181,1.5181,1.5181,1.5181,1.5181,1.5181,1.5181,1.5181,0.0,0.0,0.0,0.0,0.0,0.0,0.0,0.0,0.0,0.0,0.0,0.0,0.0,0.0,0.0,0.0,0.0,0.0,0.0,0.0,0.0,0.0,0.0,0.0,0.0,0.0,0.0,0.0,0.0,0.0,0.0,0.0,0.0,0.0,0.0,0.0,0.0,0.0,0.0,0.0,0.0,0.0,0.0,0.0,0.0,0.0,0.0,0.0,0.0,0.0,0.0,0.0,0.1522,0.2521,0.3096,0.3092,0.3097,0.3099,0.31,0.3101,0.3106,0.3111,0.3106,0.3121,0.3095,0.3104,0.3116,0.3138,0.3099,0.31,0.3101,0.3096,0.3091,0.3092,0.3133,0.333,0.3833,0.4401,0.5171,0.5911,0.6176,0.6188,0.6382,0.708,0.8113,0.9224,1.0567,1.2101,1.3543,1.4209,1.4656,1.5073,1.5262,1.5296,1.5242,1.5194,1.5194,1.5194,1.5187,1.5181,1.5181,1.5181,1.5181,1.5181,1.5181,1.5181,1.5181,1.5181,1.5181,1.5181,1.5181,1.5181,1.5181,1.5181,1.5181,0.0,0.0,0.0,0.0,0.0,0.0,0.0,0.0,0.0,0.0,0.0,0.0,0.0,0.0,0.0,0.0,0.0,0.0,0.0,0.0,0.0,0.0,0.0,0.0,0.0,0.0,0.0,0.0,0.0,0.0,0.0,0.0,0.0,0.0,0.0,0.0,0.0,0.0,0.0,0.0,0.0,0.0,0.0,0.0,0.0,0.0,0.0,0.0,0.0,0.0,0.0382,0.1001,0.1955,0.2719,0.31,0.31,0.31,0.3111,0.3129,0.3132,0.3092,0.3108,0.3114,0.3118,0.313,0.3146,0.3161,0.3176,0.319,0.3152,0.3202,0.3154,0.3136,0.3099,0.3093,0.3155,0.342,0.3646,0.3815,0.4068,0.4158,0.4152,0.4351,0.5096,0.6185,0.7324,0.8898,1.0708,1.2504,1.3614,1.4533,1.5253,1.5349,1.5452,1.5418,1.535,1.5296,1.5255,1.5221,1.5187,1.5181,1.5181,1.5181,1.5181,1.5181,1.5181,1.5181,1.5181,1.5181,1.5187,1.5194,1.5187,1.5181,1.5208,1.5255,0.0,0.0,0.0,0.0,0.0,0.0,0.0,0.0,0.0,0.0,0.0,0.0,0.0,0.0,0.0,0.0,0.0,0.0,0.0,0.0,0.0,0.0,0.0,0.0,0.0,0.0,0.0,0.0,0.0,0.0,0.0,0.0,0.0,0.0,0.0,0.0,0.0,0.0,0.0,0.0,0.0,0.0,0.0,0.0,0.0,0.0,0.0,0.0193,0.0288,0.043,0.0954,0.1669,0.2288,0.2814,0.31,0.31,0.3101,0.3112,0.3092,0.3096,0.3111,0.3135,0.3093,0.3149,0.3159,0.318,0.319,0.3205,0.3217,0.3179,0.323,0.3179,0.3212,0.3131,0.3128,0.3185,0.3204,0.3219,0.3228,0.3329,0.3279,0.3179,0.3431,0.3937,0.4843,0.5889,0.7545,0.9579,1.1535,1.2976,1.4164,1.5109,1.5505,1.5539,1.556,1.5527,1.5418,1.5337,1.5269,1.5215,1.5181,1.5181,1.5181,1.5181,1.5181,1.5181,1.5181,1.5181,1.5181,1.5194,1.5262,1.5276,1.5309,1.5377,1.5411,0.0,0.0,0.0,0.0,0.0,0.0,0.0,0.0,0.0,0.0,0.0,0.0,0.0,0.0,0.0,0.0,0.0,0.0,0.0,0.0,0.0,0.0,0.0,0.0,0.0,0.0,0.0,0.0,0.0,0.0,0.0,0.0,0.0,0.0,0.0,0.0,0.0,0.0,0.0,0.0,0.0,0.0,0.0,0.0,0.0,0.0,0.0,0.0684,0.0925,0.1006,0.1771,0.2204,0.2438,0.2867,0.3111,0.3114,0.3107,0.3128,0.3097,0.3112,0.3125,0.3104,0.3109,0.3109,0.3187,0.3194,0.3204,0.3223,0.3228,0.3179,0.3179,0.3179,0.3227,0.323,0.322,0.3223,0.3228,0.323,0.3179,0.3179,0.3179,0.3179,0.323,0.3685,0.4137,0.4885,0.6509,0.8573,1.0586,1.2268,1.3848,1.4821,1.5646,1.5757,1.5791,1.5683,1.5581,1.554,1.5425,1.5303,1.5215,1.5194,1.5181,1.5181,1.5208,1.5201,1.5181,1.5187,1.5181,1.5187,1.5255,1.5371,1.5438,1.5479,1.5499,0.0,0.0,0.0,0.0,0.0,0.0,0.0,0.0,0.0,0.0,0.0,0.0,0.0,0.0,0.0,0.0,0.0,0.0,0.0,0.0,0.0,0.0,0.0,0.0,0.0,0.0,0.0,0.0,0.0,0.0,0.0,0.0,0.0,0.0,0.0,0.0,0.0,0.0,0.0,0.0,0.0,0.0,0.0,0.0,0.0,0.0,0.0692,0.1536,0.1974,0.2001,0.2192,0.2533,0.2823,0.3018,0.3114,0.3114,0.3116,0.313,0.3155,0.3161,0.3176,0.3152,0.3151,0.316,0.3217,0.3219,0.3223,0.3179,0.3179,0.3179,0.3179,0.3179,0.3179,0.3179,0.318,0.3179,0.3179,0.3179,0.3179,0.3179,0.3179,0.3179,0.3231,0.3332,0.3534,0.4035,0.5585,0.7624,0.9649,1.1739,1.3368,1.5095,1.5981,1.5974,1.594,1.5832,1.5757,1.5744,1.5622,1.5438,1.5323,1.5221,1.5201,1.5181,1.5262,1.5282,1.5221,1.5194,1.5187,1.5248,1.5343,1.5472,1.5479,1.5506,1.5533,0.0,0.0,0.0,0.0,0.0,0.0,0.0,0.0,0.0,0.0,0.0,0.0,0.0,0.0,0.0,0.0,0.0,0.0,0.0,0.0,0.0,0.0,0.0,0.0,0.0,0.0,0.0,0.0,0.0,0.0,0.0,0.0,0.0,0.0,0.0,0.0,0.0,0.0,0.0,0.0,0.0,0.0,0.0,0.0,0.0,0.0349,0.1151,0.1954,0.2395,0.2424,0.2608,0.2848,0.3044,0.3093,0.3093,0.3093,0.3093,0.3107,0.318,0.3189,0.3202,0.3223,0.3179,0.3179,0.323,0.3179,0.3179,0.3179,0.3179,0.3179,0.3179,0.3179,0.3236,0.3246,0.3238,0.318,0.318,0.3179,0.3179,0.3179,0.3179,0.3179,0.3179,0.3179,0.3179,0.3583,0.4944,0.6849,0.875,1.0868,1.2923,1.4526,1.5728,1.5801,1.5952,1.5956,1.5894,1.5888,1.5771,1.5588,1.5493,1.5357,1.535,1.5357,1.5364,1.5364,1.5337,1.5337,1.5404,1.5466,1.5527,1.5574,1.5608,1.5649,1.5655,0.0,0.0,0.0,0.0,0.0,0.0,0.0,0.0,0.0,0.0,0.0,0.0,0.0,0.0,0.0,0.0,0.0,0.0,0.0,0.0,0.0,0.0,0.0,0.0,0.0,0.0,0.0,0.0,0.0,0.0,0.0,0.0,0.0,0.0,0.0,0.0,0.0,0.0,0.0,0.0,0.0,0.0,0.0,0.0,0.0,0.0704,0.1517,0.2177,0.2519,0.2499,0.2871,0.306,0.3107,0.3105,0.3105,0.3108,0.3112,0.3123,0.319,0.3202,0.321,0.3234,0.3242,0.3239,0.3247,0.325,0.3247,0.324,0.3184,0.3236,0.318,0.3232,0.3249,0.3264,0.3251,0.3193,0.3184,0.3182,0.3179,0.3179,0.3179,0.3179,0.3179,0.3179,0.323,0.3332,0.4641,0.61,0.7858,0.9765,1.1869,1.3922,1.4825,1.5479,1.5731,1.6017,1.5976,1.5949,1.5852,1.575,1.5716,1.5635,1.5566,1.5539,1.5472,1.5465,1.5499,1.5526,1.556,1.5628,1.5642,1.5792,1.5888,1.5935,1.5906,0.0,0.0,0.0,0.0,0.0,0.0,0.0,0.0,0.0,0.0,0.0,0.0,0.0,0.0,0.0,0.0,0.0,0.0,0.0,0.0,0.0,0.0,0.0,0.0,0.0,0.0,0.0,0.0,0.0,0.0,0.0,0.0,0.0,0.0,0.0,0.0,0.0,0.0,0.0,0.0,0.0,0.0,0.0,0.0,0.0809,0.1379,0.1798,0.2613,0.306,0.3099,0.3127,0.3208,0.3205,0.3156,0.3155,0.3155,0.3156,0.3212,0.3223,0.324,0.3258,0.3265,0.3283,0.325,0.3302,0.3298,0.3287,0.3273,0.3265,0.3257,0.3243,0.3254,0.327,0.3281,0.3291,0.329,0.3269,0.3246,0.3235,0.318,0.3179,0.3179,0.3179,0.3179,0.3281,0.3382,0.4238,0.5395,0.7003,0.8661,1.0767,1.2918,1.4171,1.4925,1.5814,1.6071,1.6051,1.6024,1.5927,1.59,1.5872,1.5825,1.5715,1.5648,1.5573,1.5607,1.5681,1.5641,1.5648,1.5723,1.5764,1.5894,1.5983,1.6078,1.6119,0.0,0.0,0.0,0.0,0.0,0.0,0.0,0.0,0.0,0.0,0.0,0.0,0.0,0.0,0.0,0.0,0.0,0.0,0.0,0.0,0.0,0.0,0.0,0.0,0.0,0.0,0.0,0.0,0.0,0.0,0.0,0.0,0.0,0.0,0.0,0.0,0.0,0.0,0.0,0.0,0.0,0.0,0.0,0.0,0.1015,0.1633,0.1738,0.2702,0.3154,0.3254,0.3251,0.3245,0.3182,0.318,0.318,0.3179,0.3179,0.3239,0.3253,0.3266,0.328,0.3296,0.3314,0.3318,0.3321,0.3321,0.3315,0.3302,0.3295,0.329,0.3276,0.3284,0.33,0.3367,0.3318,0.3318,0.3311,0.328,0.3245,0.3235,0.3179,0.3179,0.3179,0.3187,0.3235,0.3287,0.3687,0.4845,0.5748,0.7559,0.9715,1.1668,1.3223,1.4476,1.5678,1.6119,1.6112,1.6098,1.6078,1.6015,1.6001,1.594,1.5879,1.5832,1.5805,1.5852,1.5906,1.5852,1.5825,1.5893,1.599,1.6003,1.603,1.6098,1.6119,0.0,0.0,0.0,0.0,0.0,0.0,0.0,0.0,0.0,0.0,0.0,0.0,0.0,0.0,0.0,0.0,0.0,0.0,0.0,0.0,0.0,0.0,0.0,0.0,0.0,0.0,0.0,0.0,0.0,0.0,0.0,0.0,0.0,0.0,0.0,0.0,0.0,0.0,0.0,0.0,0.0,0.0,0.0,0.0,0.1011,0.1569,0.1823,0.2579,0.3235,0.3187,0.3262,0.3262,0.3253,0.3194,0.3193,0.3195,0.3251,0.3262,0.3281,0.3291,0.3306,0.3328,0.3336,0.3337,0.3339,0.3341,0.3337,0.3329,0.3322,0.3315,0.332,0.3325,0.3339,0.3354,0.3343,0.3347,0.3402,0.3318,0.3285,0.3257,0.3209,0.3211,0.3207,0.3209,0.3199,0.3292,0.3694,0.4146,0.5053,0.6503,0.8661,1.0767,1.2418,1.4377,1.5628,1.6133,1.6133,1.6133,1.6133,1.6133,1.6133,1.6035,1.5981,1.6022,1.6029,1.6035,1.6035,1.5995,1.6001,1.6126,1.6119,1.6078,1.6092,1.6126,1.6119,0.0,0.0,0.0,0.0,0.0,0.0,0.0,0.0,0.0,0.0,0.0,0.0,0.0,0.0,0.0,0.0,0.0,0.0,0.0,0.0,0.0,0.0,0.0,0.0,0.0,0.0,0.0,0.0,0.0,0.0,0.0,0.0,0.0,0.0,0.0,0.0,0.0,0.0,0.0,0.0,0.0,0.0,0.0,0.0,0.1064,0.1519,0.1821,0.2578,0.3242,0.3265,0.3272,0.3287,0.3299,0.3305,0.3253,0.3246,0.3296,0.33,0.3313,0.3336,0.3402,0.3363,0.3377,0.339,0.3392,0.3392,0.3377,0.3359,0.334,0.3273,0.327,0.3345,0.3358,0.337,0.3381,0.3384,0.337,0.3355,0.3336,0.3311,0.3256,0.3248,0.3238,0.3234,0.3233,0.3275,0.3418,0.3566,0.4021,0.5671,0.7707,0.9765,1.1718,1.3772,1.5728,1.5983,1.6133,1.6133,1.6133,1.6133,1.6133,1.6133,1.6133,1.6133,1.6133,1.6119,1.6119,1.6133,1.6133,1.6133,1.6133,1.6133,1.6133,1.6133,1.6133,0.0,0.0,0.0,0.0,0.0,0.0,0.0,0.0,0.0,0.0,0.0,0.0,0.0,0.0,0.0,0.0,0.0,0.0,0.0,0.0,0.0,0.0,0.0,0.0,0.0,0.0,0.0,0.0,0.0,0.0,0.0,0.0,0.0,0.0,0.0,0.0,0.0,0.0,0.0,0.0,0.0,0.0,0.0,0.0,0.1024,0.1588,0.1844,0.2663,0.3233,0.3299,0.3314,0.3329,0.3344,0.3355,0.3352,0.333,0.3324,0.333,0.3341,0.3413,0.337,0.3389,0.3404,0.3411,0.3411,0.3408,0.3404,0.339,0.3382,0.3369,0.3371,0.3381,0.3388,0.3392,0.3403,0.3403,0.3395,0.339,0.3377,0.3359,0.3336,0.3321,0.3264,0.3314,0.3318,0.3309,0.3294,0.3287,0.3283,0.5145,0.7285,0.9974,1.2234,1.4221,1.5827,1.5977,1.6133,1.6133,1.6133,1.6133,1.6133,1.6133,1.6133,1.6133,1.6133,1.6133,1.6133,1.6133,1.6133,1.6133,1.6133,1.6133,1.6133,1.6133,1.6133,0.0,0.0,0.0,0.0,0.0,0.0,0.0,0.0,0.0,0.0,0.0,0.0,0.0,0.0,0.0,0.0,0.0,0.0,0.0,0.0,0.0,0.0,0.0,0.0,0.0,0.0,0.0,0.0,0.0,0.0,0.0,0.0,0.0,0.0,0.0,0.0,0.0,0.0,0.0,0.0,0.0,0.0,0.0,0.0,0.1089,0.171,0.1812,0.2744,0.3216,0.3332,0.335,0.3367,0.3378,0.3399,0.3388,0.335,0.334,0.3354,0.3367,0.3377,0.3389,0.3405,0.341,0.3411,0.3411,0.3411,0.3411,0.3411,0.3408,0.3405,0.3401,0.341,0.341,0.341,0.341,0.3411,0.3408,0.3407,0.3405,0.3385,0.3358,0.335,0.335,0.3354,0.336,0.3351,0.3336,0.3373,0.3571,0.5281,0.7534,1.0616,1.3051,1.4981,1.6033,1.6033,1.6133,1.6133,1.6133,1.6133,1.6133,1.6133,1.6133,1.6133,1.6133,1.6133,1.6133,1.6133,1.6133,1.6133,1.6133,1.6133,1.6133,1.6133,1.6133,0.0,0.0,0.0,0.0,0.0,0.0,0.0,0.0,0.0,0.0,0.0,0.0,0.0,0.0,0.0,0.0,0.0,0.0,0.0,0.0,0.0,0.0,0.0,0.0,0.0,0.0,0.0,0.0,0.0,0.0,0.0,0.0,0.0,0.0,0.0,0.0,0.0,0.0,0.0,0.0,0.0,0.0,0.0,0.0,0.104,0.1768,0.1926,0.276,0.3288,0.336,0.3365,0.3381,0.3401,0.3408,0.3411,0.3403,0.3401,0.3401,0.3403,0.3401,0.3401,0.3411,0.3411,0.3411,0.3411,0.3411,0.3411,0.3411,0.3411,0.3411,0.3411,0.3411,0.3411,0.3411,0.3411,0.3411,0.3411,0.3411,0.3411,0.341,0.3384,0.3389,0.3393,0.3399,0.3401,0.339,0.3377,0.3412,0.4013,0.5673,0.7827,1.0923,1.3212,1.5137,1.5983,1.5983,1.6133,1.6133,1.6133,1.6133,1.6133,1.6133,1.6133,1.6133,1.6133,1.6133,1.6133,1.6133,1.6133,1.6133,1.6133,1.6133,1.6133,1.6133,1.6133,0.0,0.0,0.0,0.0,0.0,0.0,0.0,0.0,0.0,0.0,0.0,0.0,0.0,0.0,0.0,0.0,0.0,0.0,0.0,0.0,0.0,0.0,0.0,0.0,0.0,0.0,0.0,0.0,0.0,0.0,0.0,0.0,0.0,0.0,0.0,0.0,0.0,0.0,0.0,0.0,0.0,0.0,0.0158,0.0527,0.1316,0.179,0.2316,0.2899,0.3324,0.3392,0.3392,0.3396,0.3408,0.3411,0.3411,0.3411,0.3411,0.341,0.3411,0.3411,0.3411,0.3411,0.3411,0.3411,0.3411,0.3411,0.3411,0.3411,0.3411,0.3411,0.3411,0.3411,0.3411,0.3411,0.3411,0.3411,0.3411,0.3411,0.3411,0.3411,0.3411,0.3411,0.3411,0.341,0.3407,0.3401,0.3439,0.3475,0.4437,0.6092,0.8461,1.1222,1.3262,1.5031,1.5578,1.5827,1.6083,1.6133,1.6133,1.6133,1.6133,1.6133,1.6133,1.6133,1.6133,1.6133,1.6133,1.6133,1.6133,1.6133,1.6133,1.6133,1.6133,1.6133,1.6133,0.0,0.0,0.0,0.0,0.0,0.0,0.0,0.0,0.0,0.0,0.0,0.0,0.0,0.0,0.0,0.0,0.0,0.0,0.0,0.0,0.0,0.0,0.0,0.0,0.0,0.0,0.0,0.0,0.0,0.0,0.0,0.0,0.0,0.0,0.0,0.0,0.0,0.0,0.0,0.0,0.0,0.0,0.0479,0.0958,0.1545,0.2131,0.2612,0.3089,0.3356,0.341,0.3408,0.3408,0.3411,0.3411,0.3411,0.3411,0.3411,0.3411,0.3411,0.3411,0.3411,0.3411,0.3411,0.3411,0.3411,0.3411,0.3411,0.3411,0.3411,0.3411,0.3411,0.3411,0.3411,0.3411,0.3411,0.3411,0.3411,0.3412,0.3411,0.3411,0.3411,0.3411,0.3411,0.3411,0.341,0.3408,0.3449,0.3485,0.4663,0.6177,0.8201,1.0632,1.2565,1.4231,1.5031,1.5436,1.5784,1.6083,1.6083,1.6133,1.6133,1.6133,1.6133,1.6133,1.6133,1.6133,1.6133,1.6133,1.6133,1.6133,1.6133,1.6133,1.6133,1.6133,1.6133,0.0,0.0,0.0,0.0,0.0,0.0,0.0,0.0,0.0,0.0,0.0,0.0,0.0,0.0,0.0,0.0,0.0,0.0,0.0,0.0,0.0,0.0,0.0,0.0,0.0,0.0,0.0,0.0,0.0,0.0,0.0,0.0,0.0,0.0,0.0,0.0,0.0,0.0,0.0,0.0,0.0,0.0426,0.0799,0.1119,0.1918,0.2558,0.2612,0.3144,0.3411,0.3411,0.3411,0.3411,0.3411,0.3411,0.3411,0.3411,0.3411,0.3411,0.3411,0.3412,0.3414,0.3412,0.3412,0.3414,0.3419,0.3414,0.3412,0.3411,0.3411,0.3411,0.3411,0.3411,0.3412,0.3418,0.342,0.3418,0.3416,0.3412,0.3412,0.3411,0.3411,0.3411,0.3411,0.3411,0.3411,0.341,0.3463,0.3501,0.4444,0.5878,0.7451,0.9518,1.1519,1.3144,1.4357,1.4937,1.5485,1.5884,1.5983,1.6083,1.6133,1.6133,1.6133,1.6133,1.6133,1.6133,1.6133,1.6133,1.6133,1.6133,1.6133,1.6133,1.6133,1.6133,1.6133,0.0,0.0,0.0,0.0,0.0,0.0,0.0,0.0,0.0,0.0,0.0,0.0,0.0,0.0,0.0,0.0,0.0,0.0,0.0,0.0,0.0,0.0,0.0,0.0,0.0,0.0,0.0,0.0,0.0,0.0,0.0,0.0,0.0,0.0,0.0,0.0,0.0,0.0,0.0,0.0,0.0,0.0586,0.1066,0.1492,0.2078,0.2772,0.3038,0.3304,0.3358,0.3411,0.3411,0.3411,0.3411,0.3411,0.3411,0.3412,0.3412,0.3415,0.3414,0.3415,0.3419,0.3488,0.3426,0.342,0.3433,0.3425,0.3414,0.3411,0.3411,0.3411,0.3411,0.3412,0.3416,0.3427,0.3429,0.3425,0.3425,0.342,0.3412,0.3411,0.3411,0.3411,0.3411,0.3411,0.3411,0.3411,0.3464,0.3676,0.4464,0.519,0.6565,0.7912,0.9787,1.1546,1.282,1.3981,1.5137,1.5578,1.5877,1.6033,1.6133,1.6133,1.6133,1.6133,1.6133,1.6133,1.6133,1.6133,1.6133,1.6133,1.6133,1.6133,1.6133,1.6133,1.6133,0.0,0.0,0.0,0.0,0.0,0.0,0.0,0.0,0.0,0.0,0.0,0.0,0.0,0.0,0.0,0.0,0.0,0.0,0.0,0.0,0.0,0.0,0.0,0.0,0.0,0.0,0.0,0.0,0.0,0.0,0.0,0.0,0.0,0.0,0.0,0.0,0.0,0.0,0.0,0.0,0.0,0.0746,0.1226,0.1758,0.2452,0.2985,0.3251,0.3358,0.3358,0.3411,0.3411,0.3411,0.3411,0.3411,0.3411,0.3414,0.342,0.3425,0.3425,0.3427,0.3435,0.3502,0.3453,0.345,0.3448,0.3437,0.3429,0.3411,0.3411,0.3412,0.3414,0.3412,0.3426,0.349,0.3422,0.3418,0.343,0.343,0.3419,0.3411,0.3411,0.3411,0.3411,0.3411,0.3411,0.3411,0.3411,0.3517,0.3834,0.4456,0.5123,0.6434,0.7822,0.9506,1.1125,1.2664,1.4145,1.518,1.5479,1.5983,1.6133,1.6096,1.6139,1.6133,1.6133,1.6133,1.6133,1.609,1.6139,1.6133,1.6133,1.6133,1.6133,1.6133,1.6133,0.0,0.0,0.0,0.0,0.0,0.0,0.0,0.0,0.0,0.0,0.0,0.0,0.0,0.0,0.0,0.0,0.0,0.0,0.0,0.0,0.0,0.0,0.0,0.0,0.0,0.0,0.0,0.0,0.0,0.0,0.0,0.0,0.0,0.0,0.0,0.0,0.0,0.0,0.0,0.0,0.0,0.1066,0.1545,0.2025,0.2718,0.3304,0.3358,0.3411,0.3411,0.3411,0.3411,0.3411,0.3411,0.3411,0.3411,0.3412,0.3438,0.3506,0.351,0.351,0.3518,0.3524,0.3479,0.3482,0.3521,0.351,0.3503,0.3437,0.3427,0.3422,0.3416,0.3419,0.3441,0.3452,0.344,0.3433,0.3446,0.3441,0.343,0.3414,0.3411,0.3411,0.3411,0.3411,0.3411,0.3411,0.3411,0.3464,0.3569,0.3829,0.4398,0.5216,0.6473,0.7831,0.9621,1.1575,1.3106,1.4239,1.5125,1.5627,1.6034,1.6148,1.6121,1.6117,1.6207,1.6225,1.6164,1.6103,1.6164,1.6212,1.6153,1.6133,1.6133,1.6133,1.6133,0.0,0.0,0.0,0.0,0.0,0.0,0.0,0.0,0.0,0.0,0.0,0.0,0.0,0.0,0.0,0.0,0.0,0.0,0.0,0.0,0.0,0.0,0.0,0.0,0.0,0.0,0.0,0.0,0.0,0.0,0.0,0.0,0.0,0.0,0.0,0.0,0.0,0.0,0.0,0.0,0.0639,0.1332,0.1918,0.2292,0.3038,0.3358,0.3411,0.3411,0.3411,0.3411,0.3411,0.3411,0.3411,0.3411,0.3411,0.3418,0.3441,0.3521,0.3486,0.3501,0.3514,0.3513,0.3508,0.3512,0.351,0.3495,0.3483,0.3472,0.3464,0.3465,0.3474,0.3474,0.3489,0.3505,0.3498,0.3483,0.3482,0.346,0.3442,0.3422,0.3411,0.3411,0.3411,0.3411,0.3411,0.3411,0.3411,0.3411,0.3464,0.3517,0.3883,0.4453,0.5426,0.6546,0.7996,0.9742,1.1476,1.2754,1.4061,1.524,1.5576,1.6024,1.629,1.6327,1.6354,1.6368,1.632,1.63,1.6354,1.6361,1.6246,1.6157,1.6151,1.6173,1.6133,0.0,0.0,0.0,0.0,0.0,0.0,0.0,0.0,0.0,0.0,0.0,0.0,0.0,0.0,0.0,0.0,0.0,0.0,0.0,0.0,0.0,0.0,0.0,0.0,0.0,0.0,0.0,0.0,0.0,0.0,0.0,0.0,0.0,0.0,0.0,0.0,0.0,0.0,0.0213,0.0533,0.1012,0.1545,0.2184,0.2612,0.3038,0.3411,0.3411,0.3411,0.3411,0.3411,0.3411,0.3411,0.3411,0.3411,0.3411,0.342,0.3452,0.3489,0.3528,0.3546,0.3555,0.3557,0.354,0.3538,0.3542,0.3524,0.351,0.3504,0.3506,0.3505,0.3505,0.3506,0.3516,0.3532,0.3527,0.351,0.3506,0.3484,0.3508,0.3433,0.3412,0.3412,0.3411,0.3411,0.3411,0.3411,0.3411,0.3411,0.3411,0.3464,0.3517,0.3934,0.4395,0.526,0.6376,0.7624,0.9403,1.1171,1.2734,1.4254,1.5385,1.5825,1.6184,1.6524,1.649,1.6476,1.6497,1.6503,1.6503,1.6469,1.6381,1.63,1.6239,1.6212,1.6191,0.0,0.0,0.0,0.0,0.0,0.0,0.0,0.0,0.0,0.0,0.0,0.0,0.0,0.0,0.0,0.0,0.0,0.0,0.0,0.0,0.0,0.0,0.0,0.0,0.0,0.0,0.0,0.0,0.0,0.0,0.0,0.0,0.0,0.0,0.0,0.0,0.0,0.0,0.0533,0.0906,0.1385,0.2025,0.2505,0.2825,0.3144,0.3358,0.3411,0.3411,0.3411,0.3411,0.3411,0.3411,0.3411,0.3411,0.3411,0.3431,0.3476,0.3525,0.3568,0.358,0.3583,0.358,0.3581,0.357,0.3558,0.3549,0.354,0.3528,0.3524,0.3519,0.3513,0.352,0.3527,0.3531,0.3529,0.3525,0.3528,0.3506,0.3528,0.3448,0.3423,0.3415,0.3412,0.3411,0.3411,0.3411,0.3411,0.3411,0.3411,0.3411,0.3411,0.3461,0.3819,0.4062,0.509,0.628,0.7687,0.9567,1.1465,1.302,1.4271,1.5455,1.5976,1.6298,1.6489,1.6585,1.6653,1.6646,1.6598,1.6558,1.6564,1.6476,1.6422,1.6415,1.6408,0.0,0.0,0.0,0.0,0.0,0.0,0.0,0.0,0.0,0.0,0.0,0.0,0.0,0.0,0.0,0.0,0.0,0.0,0.0,0.0,0.0,0.0,0.0,0.0,0.0,0.0,0.0,0.0,0.0,0.0,0.0,0.0,0.0,0.0,0.0,0.0426,0.0533,0.0693,0.0906,0.1385,0.1865,0.2452,0.2825,0.3091,0.3251,0.3411,0.3411,0.3414,0.3415,0.3414,0.3414,0.3412,0.3411,0.3414,0.3422,0.3476,0.3514,0.3549,0.3581,0.3589,0.3589,0.3589,0.3589,0.3588,0.3579,0.3572,0.3568,0.3557,0.3551,0.3549,0.3549,0.3553,0.3555,0.3554,0.3553,0.3551,0.3551,0.3531,0.3497,0.351,0.3431,0.3418,0.3415,0.3411,0.3411,0.3411,0.3411,0.3411,0.3411,0.3411,0.3411,0.341,0.3459,0.3761,0.4241,0.529,0.6557,0.8032,0.9787,1.155,1.298,1.4192,1.5415,1.6184,1.6554,1.6743,1.6863,1.6822,1.6748,1.6822,1.6829,1.6707,1.6612,1.6605,1.6585,0.0,0.0,0.0,0.0,0.0,0.0,0.0,0.0,0.0,0.0,0.0,0.0,0.0,0.0,0.0,0.0,0.0,0.0,0.0,0.0,0.0,0.0,0.0,0.0,0.0,0.0,0.0,0.0,0.0,0.0,0.0,0.0,0.0,0.0,0.0,0.0533,0.1012,0.1226,0.1545,0.1971,0.2399,0.2772,0.3144,0.3304,0.3358,0.3411,0.3414,0.3419,0.3429,0.3434,0.3437,0.3448,0.3449,0.345,0.3465,0.3513,0.3476,0.3558,0.3583,0.3589,0.3589,0.3589,0.3589,0.3589,0.3588,0.3584,0.3584,0.3581,0.3584,0.3587,0.3588,0.3589,0.3588,0.3588,0.3584,0.358,0.3566,0.3497,0.3513,0.3467,0.3442,0.3427,0.3419,0.3415,0.3411,0.3411,0.3411,0.3411,0.3411,0.3411,0.3411,0.3411,0.3411,0.3566,0.3997,0.4368,0.5317,0.6475,0.7687,0.9477,1.131,1.3259,1.4802,1.587,1.6741,1.6853,1.6944,1.6958,1.6931,1.6978,1.6978,1.6876,1.6788,1.6788,1.6761,0.0,0.0,0.0,0.0,0.0,0.0,0.0,0.0,0.0,0.0,0.0,0.0,0.0,0.0,0.0,0.0,0.0,0.0,0.0,0.0,0.0,0.0,0.0,0.0,0.0,0.0,0.0,0.0,0.0,0.0,0.0,0.0,0.0,0.0,0.0,0.0,0.1012,0.1332,0.1918,0.2505,0.2718,0.3091,0.3411,0.3358,0.3411,0.3412,0.3419,0.3435,0.3511,0.3521,0.348,0.3494,0.3494,0.3501,0.352,0.3535,0.3547,0.3565,0.3583,0.3589,0.3589,0.3589,0.3589,0.3589,0.3589,0.3589,0.3589,0.3589,0.3589,0.3589,0.3589,0.3589,0.3589,0.3589,0.3587,0.3585,0.3579,0.3559,0.3528,0.3487,0.3514,0.3444,0.3429,0.3425,0.3412,0.3411,0.3411,0.3411,0.3411,0.3411,0.3411,0.3411,0.3411,0.3411,0.3517,0.389,0.421,0.5111,0.6172,0.7606,0.9621,1.1945,1.4318,1.5382,1.6394,1.6768,1.6919,1.6978,1.6978,1.6978,1.6978,1.6978,1.6958,1.6924,1.6904,0.0,0.0,0.0,0.0,0.0,0.0,0.0,0.0,0.0,0.0,0.0,0.0,0.0,0.0,0.0,0.0,0.0,0.0,0.0,0.0,0.0,0.0,0.0,0.0,0.0,0.0,0.0,0.0,0.0,0.0,0.0,0.0,0.0,0.0,0.0,0.0586,0.1012,0.1226,0.2078,0.2772,0.3038,0.3198,0.3411,0.3414,0.3414,0.3419,0.3429,0.3444,0.3508,0.3517,0.3487,0.3499,0.3502,0.3523,0.3536,0.349,0.3565,0.3579,0.3584,0.3589,0.3589,0.3589,0.3589,0.3589,0.3589,0.3589,0.3589,0.3589,0.3589,0.3589,0.3589,0.3589,0.3589,0.3589,0.3589,0.3589,0.3589,0.3566,0.354,0.3509,0.3533,0.3514,0.3444,0.3429,0.3416,0.3411,0.3411,0.3411,0.3411,0.3411,0.3411,0.3411,0.3411,0.3411,0.3411,0.3464,0.3837,0.421,0.5113,0.6546,0.8087,1.0627,1.3216,1.4803,1.592,1.6394,1.6768,1.6978,1.6978,1.6978,1.6978,1.6978,1.6978,1.6958,1.6965,0.0,0.0,0.0,0.0,0.0,0.0,0.0,0.0,0.0,0.0,0.0,0.0,0.0,0.0,0.0,0.0,0.0,0.0,0.0,0.0,0.0,0.0,0.0,0.0,0.0,0.0,0.0,0.0,0.0,0.0,0.0,0.0,0.0,0.0,0.0,0.0533,0.0853,0.0959,0.2025,0.2666,0.3095,0.3261,0.343,0.3433,0.3442,0.3446,0.3461,0.3479,0.3491,0.3505,0.3529,0.3542,0.3549,0.3558,0.3564,0.3569,0.3579,0.3589,0.3589,0.3589,0.3589,0.3589,0.3589,0.3589,0.3589,0.3589,0.3589,0.3589,0.3589,0.3589,0.3589,0.3589,0.3589,0.3589,0.3589,0.3589,0.3589,0.3579,0.3546,0.3509,0.3483,0.3464,0.3445,0.3422,0.3412,0.3411,0.3411,0.3411,0.3411,0.3411,0.3411,0.3411,0.3411,0.3411,0.3411,0.3411,0.3571,0.3944,0.4263,0.5536,0.7181,0.9727,1.2055,1.3638,1.5066,1.6131,1.6499,1.6768,1.6978,1.6978,1.6978,1.6978,1.6978,1.6978,1.6992,0.0,0.0,0.0,0.0,0.0,0.0,0.0,0.0,0.0,0.0,0.0,0.0,0.0,0.0,0.0,0.0,0.0,0.0,0.0,0.0,0.0,0.0,0.0,0.0,0.0,0.0,0.0,0.0,0.0,0.0,0.0,0.0,0.0,0.0,0.0,0.0426,0.0693,0.096,0.1654,0.2351,0.2732,0.312,0.3397,0.352,0.3484,0.3501,0.351,0.3524,0.3484,0.3496,0.3562,0.3573,0.3577,0.358,0.3583,0.3585,0.3585,0.3589,0.3589,0.3589,0.3589,0.3589,0.3589,0.3589,0.3589,0.3589,0.3589,0.3589,0.3589,0.3589,0.3589,0.3589,0.3589,0.3589,0.3589,0.3589,0.3589,0.3585,0.355,0.351,0.349,0.3469,0.3448,0.3423,0.3412,0.3412,0.3412,0.3411,0.3411,0.3411,0.3411,0.3411,0.3411,0.3411,0.3411,0.3411,0.3464,0.3517,0.3944,0.4951,0.6225,0.8455,1.0521,1.2473,1.3797,1.4961,1.6026,1.6505,1.6715,1.6926,1.6978,1.6978,1.6978,1.6985,1.7005,0.0,0.0,0.0,0.0,0.0,0.0,0.0,0.0,0.0,0.0,0.0,0.0,0.0,0.0,0.0,0.0,0.0,0.0,0.0,0.0,0.0,0.0,0.0,0.0,0.0,0.0,0.0,0.0,0.0,0.0,0.0,0.0,0.0,0.0,0.0,0.0,0.0,0.0,0.1287,0.2044,0.2316,0.2807,0.3401,0.3524,0.3487,0.3498,0.351,0.3529,0.3485,0.3499,0.3572,0.3585,0.3589,0.3589,0.3589,0.3589,0.3589,0.3589,0.3589,0.3589,0.3589,0.3589,0.3589,0.3589,0.3589,0.3589,0.3589,0.3589,0.3589,0.3589,0.3589,0.3589,0.3589,0.3589,0.3589,0.3589,0.3589,0.3574,0.3549,0.3519,0.3494,0.3475,0.351,0.3434,0.3415,0.3415,0.3418,0.3419,0.3427,0.342,0.3414,0.3414,0.3415,0.3411,0.3411,0.3411,0.3411,0.3411,0.3517,0.4315,0.5377,0.6865,0.8826,1.0513,1.2261,1.3586,1.4645,1.592,1.6558,1.6821,1.6926,1.6978,1.6978,1.7012,1.7046]},{"header":{"parameterUnit":"m.s-1","parameterCategory":1,"la1":31.0,"la2":29.5877,"lo1":-88.7671,"lo2":-86.6584,"dy":0.0162,"dx":0.0185,"nx":115,"ny":88,"refTime":"2026-04-06T12:00:00:Z","depth":0,"parameterNumber":3,"parameterNumberName":"V-component_of_WINDS"},"data":[0.0,0.0,0.0,0.0,0.0,0.0,0.0,0.0,0.0,0.0,0.0,0.0,0.0,0.0,0.0,0.0,0.0,0.0,0.0,0.0,0.0,0.0,0.0,0.0,0.0,0.0,0.0,0.0,0.0,0.0,0.0,0.0,0.0,0.0,0.0,0.0,0.0,0.0,0.0,0.0,0.0,0.0,0.0,0.0,0.0,0.0,0.0,0.0,0.0,0.0,0.0,0.0,0.0,0.0,0.0,0.0,0.0,0.0,0.0,0.0,0.0,0.0,0.0,0.0,0.0,0.0,0.0,0.0,0.0,0.0,0.0,0.0,0.0,0.0,0.0,0.0,0.0,0.0,0.0,0.0,0.0,0.0,0.0,0.0,0.0,0.0,0.0,0.0,0.0,0.0,0.0,0.0,0.0,0.0,0.0,0.0,0.0,0.0,0.0,0.0,0.0,0.0,0.0,0.0,0.0,0.0,0.0,0.0,0.0,0.0,0.0,0.0,0.0,0.0,0.0,0.0,0.0,0.0,0.0,0.0,0.0,0.0,0.0,0.0,0.0,0.0,0.0,0.0,0.0,0.0,0.0,0.0,0.0,0.0,0.0,0.0,0.0,0.0,0.0,0.0,0.0,0.0,0.0,0.0,0.0,0.0,0.0,0.0,0.0,0.0,0.0,0.0,0.0,0.0,0.0,0.0,0.0,0.0,0.0,0.0,0.0,0.0,0.0,0.0,0.0,0.0,0.0,0.0,0.0,0.0,0.0,0.0,0.0,0.0,0.0,0.0,0.0,0.0,0.0,0.0,0.0,0.0,0.0,0.0,0.0,0.0,0.0,0.0,0.0,0.0,0.0,0.0,0.0,0.0,0.0,0.0,0.0,0.0,0.0,0.0,0.0,0.0,0.0,0.0,0.0,0.0,0.0,0.0,0.0,0.0,0.0,0.0,0.0,0.0,0.0,0.0,0.0,0.0,0.0,0.0,0.0,0.0,0.0,0.0,0.0,0.0,0.0,0.0,0.0,0.0,0.0,0.0,0.0,0.0,0.0,0.0,0.0,0.0,0.0,0.0,0.0,0.0,0.0,0.0,0.0,0.0,0.0,0.0,0.0,0.0,0.0,0.0,0.0,0.0,0.0,0.0,0.0,0.0,0.0,0.0,0.0,0.0,0.0,0.0,0.0,0.0,0.0,0.0,0.0,0.0,0.0,0.0,0.0,0.0,0.0,0.0,0.0,0.0,0.0,0.0,0.0,0.0,0.0,0.0,0.0,0.0,0.0,0.0,0.0,0.0,0.0,0.0,0.0,0.0,0.0,0.0,0.0,0.0,0.0,0.0,0.0,0.0,0.0,0.0,0.0,0.0,0.0,0.0,0.0,0.0,0.0,0.0,0.0,0.0,0.0,0.0,0.0,0.0,0.0,0.0,0.0,0.0,0.0,0.0,0.0,0.0,0.0,0.0,0.0,0.0,0.0,0.0,0.0,0.0,0.0,0.0,0.0,0.0,0.0,0.0,0.0,0.0,0.0,0.0,0.0,0.0,0.0,0.0,0.0,0.0,0.0,0.0,0.0,0.0,0.0,0.0,0.0,0.0,0.0,0.0,0.0,0.0,0.0,0.0,0.0,0.0,0.0,0.0,0.0,0.0,0.0,0.0,0.0,0.0,0.0,0.0,0.0,0.0,0.0,0.0,0.0,0.0,0.0,0.0,0.0,0.0,0.0,0.0,0.0,0.0,0.0,0.0,0.0,0.0,0.0,0.0,0.0,0.0,0.0,0.0,0.0,0.0,0.0,0.0,0.0,0.0,0.0,0.0,0.0,0.0,0.0,0.0,0.0,0.0,0.0,0.0,0.0,0.0,0.0,0.0,0.0,0.0,0.0,0.0,0.0,0.0,0.0,0.0,0.0,0.0,0.0,0.0,0.0,0.0,0.0,0.0,0.0,0.0,0.0,0.0,0.0,0.0,0.0,0.0,0.0,0.0,0.0,0.0,0.0,0.0,0.0,0.0,0.0,0.0,0.0,0.0,0.0,0.0,0.0,0.0,0.0,0.0,0.0,0.0,0.0,0.0,0.0,0.0,0.0,0.0,0.0,0.0,0.0,0.0,0.0,0.0,0.0,0.0,0.0,0.0,0.0,0.0,0.0,0.0,0.0,0.0,0.0,0.0,0.0,0.0,0.0,0.0,0.0,0.0,0.0,0.0,0.0,0.0,0.0,0.0,0.0,0.0,0.0,0.0,0.0,0.0,0.0,0.0,0.0,0.0,0.0,0.0,0.0,0.0,0.0,0.0,0.0,0.0,0.0,0.0,0.0,0.0,0.0,0.0,0.0,0.0,0.0,0.0,0.0,0.0,0.0,0.0,0.0,0.0,0.0,0.0,0.0,0.0,0.0,0.0,0.0,0.0,0.0,0.0,0.0,0.0,0.0,0.0,0.0,0.0,0.0,0.0,0.0,0.0,0.0,0.0,0.0,0.0,0.0,0.0,0.0,0.0,0.0,0.0,0.0,0.0,0.0,0.0,0.0,0.0,0.0,0.0,0.0,0.0,0.0,0.0,0.0,0.0,0.0,0.0,0.0,0.0,0.0,0.0,0.0,0.0,0.0,0.0,0.0,0.0,0.0,0.0,0.0,0.0,0.0,0.0,0.0,0.0,0.0,0.0,0.0,0.0,0.0,0.0,0.0,0.0,0.0,0.0,0.0,0.0,0.0,0.0,0.0,0.0,0.0,0.0,0.0,0.0,0.0,0.0,0.0,0.0,0.0,0.0,0.0,0.0,0.0,0.0,0.0,0.0,0.0,0.0,0.0,0.0,0.0,0.0,0.0,0.0,0.0,0.0,0.0,0.0,0.0,0.0,0.0,0.0,0.0,0.0,0.0,0.0,0.0,0.0,0.0,0.0,0.0,0.0,0.0,0.0,0.0,0.0,0.0,0.0,0.0,0.0,0.0,0.0,0.0,0.0,0.0,0.0,0.0,0.0,0.0,0.0,0.0,0.0,0.0,0.0,0.0,0.0,0.0,0.0,0.0,0.0,0.0,0.0,0.0,0.0,0.0,0.0,0.0,0.0,0.0,0.0,0.0,0.0,0.0,0.0,0.0,0.0,0.0,0.0,0.0,0.0,0.0,0.0,0.0,0.0,0.0,0.0,0.0,0.0,0.0,0.0,0.0,0.0,0.0,0.0,0.0,0.0,0.0,0.0,0.0,0.0,0.0,0.0,0.0,0.0,0.0,0.0,0.0,0.0,0.0,0.0,0.0,0.0,0.0,0.0,0.0,0.0,0.0,0.0,0.0,0.0,0.0,0.0,0.0,0.0,0.0,0.0,0.0,0.0,0.0,0.0,0.0,0.0,0.0,0.0,0.0,0.0,0.0,0.0,0.0,0.0,0.0,0.0,0.0,0.0,0.0,0.0,0.0,0.0,0.0,0.0,0.0,0.0,0.0,0.0,0.0,0.0,0.0,0.0,0.0,0.0,0.0,0.0,0.0,0.0,0.0,0.0,0.0,0.0,0.0,0.0,0.0,0.0,0.0,0.0,0.0,0.0,0.0,0.0,0.0,0.0,0.0,0.0,0.0,0.0,0.0,0.0,0.0,0.0,0.0,0.0,0.0,0.0,0.0,0.0,0.0,0.0,0.0,0.0,0.0,0.0,0.0,0.0,0.0,0.0,0.0,0.0,0.0,0.0,0.0,0.0,0.0,0.0,0.0,0.0,0.0,0.0,0.0,0.0,0.0,0.0,0.0,0.0,0.0,0.0,0.0,0.0,0.0,0.0,0.0,0.0,0.0,0.0,0.0,0.0,0.0,0.0,0.0,0.0,0.0,0.0,0.0,0.0,0.0,0.0,0.0,0.0,0.0,0.0,0.0,0.0,0.0,0.0,0.0,0.0,0.0,0.0,0.0,0.0,0.0,0.0,0.0,0.0,0.0,0.0,0.0,0.0,0.0,0.0,0.0,0.0,0.0,0.0,0.0,0.0,0.0,0.0,0.0,0.0,0.0,0.0,0.0,0.0,0.0,0.0,0.0,0.0,0.0,0.0,0.0,0.0,0.0,0.0,0.0,0.0,0.0,0.0,0.0,0.0,0.0,0.0,0.0,0.0,0.0,0.0,0.0,0.0,0.0,0.0,0.0,0.0,0.0,0.0,0.0,0.0,0.0,0.0,0.0,0.0,0.0,0.0,0.0,0.0,0.0,0.0,0.0,0.0,0.0,0.0,0.0,0.0,0.0,0.0,0.0,0.0,0.0,0.0,0.0,0.0,0.0,0.0,0.0,0.0,2.4988,0.0,0.0,0.0,0.0,0.0,0.0,0.0,0.0,0.0,0.0,0.0,0.0,0.0,0.0,0.0,0.0,0.0,0.0,0.0,0.0,0.0,0.0,0.0,0.0,0.0,0.0,0.0,0.0,0.0,0.0,0.0,0.0,0.0,0.0,0.0,0.0,0.0,0.0,0.0,0.0,0.0,0.0,0.0,0.0,0.0,0.0,0.0,0.0,0.0,0.0,0.0,0.0,0.0,0.0,0.0,0.0,0.0,0.0,0.0,0.0,0.0,0.0,0.0,0.0,0.0,0.0,0.0,0.0,0.0,0.0,0.0,0.0,0.0,0.0,0.0,0.0,0.0,0.0,0.0,0.0,0.0,0.0,0.0,0.0,0.0,0.0,0.0,0.0,0.0,0.0,0.0,0.0,0.0,0.0,0.0,0.0,0.0,0.0,0.0,0.0,0.0,0.0,0.0,0.0,0.0,0.0,0.0,0.0,0.0,0.0,2.4988,2.4988,2.4988,2.4988,2.4988,0.0,0.0,0.0,0.0,0.0,0.0,0.0,0.0,0.0,0.0,0.0,0.0,0.0,0.0,0.0,0.0,0.0,0.0,0.0,0.0,0.0,0.0,0.0,0.0,0.0,0.0,0.0,0.0,0.0,0.0,0.0,0.0,0.0,0.0,0.0,0.0,0.0,0.0,0.0,0.0,0.0,0.0,0.0,0.0,0.0,0.0,0.0,0.0,0.0,0.0,0.0,0.0,0.0,0.0,0.0,0.0,0.0,0.0,0.0,0.0,0.0,0.0,0.0,0.0,0.0,0.0,0.0,0.0,0.0,0.0,0.0,0.0,0.0,0.0,0.0,0.0,0.0,0.0,0.0,0.0,0.0,0.0,0.0,0.0,0.0,0.0,0.0,0.0,0.0,0.0,0.0,0.0,0.0,0.0,0.0,0.0,0.0,0.0,0.0,0.0,0.0,0.0,0.0,0.0,0.0,0.0,0.0,0.0,0.0,0.0,0.0,0.0,2.5098,2.4988,2.4988,0.0,0.0,0.0,0.0,0.0,0.0,0.0,0.0,0.0,0.0,0.0,0.0,0.0,0.0,0.0,0.0,0.0,0.0,0.0,0.0,0.0,0.0,0.0,0.0,0.0,0.0,0.0,0.0,0.0,0.0,0.0,0.0,0.0,0.0,0.0,0.0,0.0,0.0,0.0,0.0,0.0,0.0,0.0,0.0,0.0,0.0,0.0,0.0,0.0,0.0,0.0,0.0,0.0,0.0,0.0,0.0,0.0,0.0,0.0,0.0,0.0,0.0,0.0,0.0,0.0,0.0,0.0,0.0,0.0,0.0,0.0,0.0,0.0,0.0,0.0,0.0,0.0,0.0,0.0,0.0,0.0,0.0,0.0,0.0,0.0,0.0,0.0,0.0,0.0,0.0,0.0,0.0,0.0,0.0,0.0,0.0,0.0,0.0,0.0,0.0,0.0,0.0,0.0,0.0,0.0,0.0,0.0,0.0,0.0,0.0,2.5363,2.6042,2.5401,0.0,2.4988,0.0,0.0,0.0,0.0,0.0,0.0,0.0,0.0,0.0,0.0,0.0,0.0,0.0,0.0,0.0,0.0,0.0,0.0,0.0,0.0,0.0,0.0,0.0,0.0,0.0,0.0,0.0,0.0,0.0,0.0,0.0,0.0,0.0,0.0,0.0,0.0,0.0,0.0,0.0,0.0,0.0,0.0,0.0,0.0,0.0,0.0,0.0,0.0,0.0,0.0,0.0,0.0,0.0,0.0,0.0,0.0,0.0,0.0,0.0,0.0,0.0,0.0,0.0,0.0,0.0,0.0,0.0,0.0,0.0,0.0,0.0,0.0,0.0,0.0,0.0,0.0,0.0,0.0,0.0,0.0,0.0,0.0,0.0,0.0,0.0,0.0,0.0,0.0,0.0,0.0,0.0,0.0,0.0,0.0,0.0,0.0,0.0,0.0,0.0,0.0,0.0,0.0,0.0,0.0,0.0,0.0,0.0,0.0,0.0,0.0,0.0,2.6959,2.6656,2.6235,0.0,0.0,0.0,0.0,0.0,0.0,0.0,0.0,0.0,0.0,0.0,0.0,0.0,0.0,0.0,0.0,0.0,0.0,0.0,0.0,0.0,0.0,0.0,0.0,0.0,0.0,0.0,0.0,0.0,0.0,0.0,0.0,0.0,0.0,0.0,0.0,0.0,0.0,0.0,0.0,0.0,0.0,0.0,0.0,0.0,0.0,0.0,0.0,0.0,0.0,0.0,0.0,0.0,0.0,0.0,0.0,0.0,0.0,0.0,0.0,0.0,0.0,0.0,0.0,0.0,0.0,0.0,0.0,0.0,0.0,0.0,0.0,0.0,0.0,0.0,0.0,0.0,0.0,0.0,0.0,0.0,0.0,0.0,0.0,0.0,0.0,0.0,0.0,0.0,0.0,0.0,0.0,0.0,0.0,0.0,0.0,0.0,0.0,0.0,0.0,0.0,0.0,0.0,0.0,0.0,0.0,0.0,0.0,0.0,0.0,2.5591,0.0,2.677,2.7263,2.7001,2.5898,0.0,0.0,0.0,0.0,0.0,0.0,0.0,0.0,0.0,0.0,0.0,0.0,0.0,0.0,0.0,0.0,0.0,0.0,0.0,0.0,0.0,0.0,0.0,0.0,0.0,0.0,0.0,0.0,0.0,0.0,0.0,0.0,0.0,0.0,0.0,0.0,0.0,0.0,0.0,0.0,0.0,0.0,0.0,0.0,0.0,0.0,0.0,0.0,0.0,0.0,0.0,0.0,0.0,0.0,0.0,0.0,0.0,0.0,0.0,0.0,0.0,0.0,0.0,0.0,0.0,0.0,0.0,0.0,0.0,0.0,0.0,0.0,0.0,0.0,0.0,0.0,0.0,0.0,0.0,0.0,0.0,0.0,0.0,0.0,0.0,0.0,0.0,0.0,0.0,0.0,0.0,0.0,0.0,0.0,0.0,0.0,0.0,0.0,0.0,0.0,0.0,0.0,0.0,0.0,0.0,0.0,0.0,0.0,0.0,2.5063,2.5101,2.525,2.666,2.6732,0.0,0.0,0.0,0.0,0.0,0.0,0.0,0.0,0.0,0.0,0.0,0.0,0.0,0.0,0.0,0.0,0.0,0.0,0.0,0.0,0.0,0.0,0.0,0.0,0.0,0.0,0.0,0.0,0.0,0.0,0.0,0.0,0.0,0.0,0.0,0.0,0.0,0.0,0.0,0.0,0.0,0.0,0.0,0.0,0.0,0.0,0.0,0.0,0.0,0.0,0.0,0.0,0.0,0.0,0.0,0.0,0.0,0.0,0.0,0.0,0.0,0.0,0.0,0.0,0.0,0.0,0.0,0.0,0.0,0.0,0.0,0.0,0.0,0.0,0.0,0.0,0.0,0.0,0.0,0.0,0.0,0.0,0.0,0.0,0.0,0.0,0.0,0.0,0.0,0.0,0.0,0.0,0.0,0.0,0.0,0.0,0.0,0.0,0.0,0.0,0.0,0.0,0.0,0.0,0.0,0.0,0.0,0.0,0.0,2.5022,2.6049,2.6618,2.6618,2.7187,2.6959,0.0,0.0,0.0,0.0,0.0,0.0,0.0,0.0,0.0,0.0,0.0,0.0,0.0,0.0,0.0,0.0,0.0,0.0,0.0,0.0,0.0,0.0,0.0,0.0,0.0,0.0,0.0,0.0,0.0,0.0,0.0,0.0,0.0,0.0,0.0,0.0,0.0,0.0,0.0,0.0,0.0,0.0,0.0,0.0,0.0,0.0,0.0,0.0,0.0,0.0,0.0,0.0,0.0,0.0,0.0,0.0,0.0,0.0,0.0,0.0,0.0,0.0,0.0,0.0,0.0,0.0,0.0,0.0,0.0,0.0,0.0,0.0,0.0,0.0,0.0,0.0,0.0,0.0,0.0,0.0,0.0,0.0,0.0,0.0,0.0,0.0,0.0,0.0,0.0,0.0,0.0,0.0,0.0,0.0,0.0,0.0,0.0,0.0,0.0,0.0,0.0,0.0,0.0,0.0,0.0,0.0,0.0,0.0,0.0,2.5401,0.0,2.7638,0.0,2.7339,2.6959,0.0,0.0,0.0,0.0,0.0,0.0,0.0,0.0,0.0,0.0,0.0,0.0,0.0,0.0,0.0,0.0,0.0,0.0,0.0,0.0,0.0,0.0,0.0,0.0,0.0,0.0,0.0,0.0,0.0,0.0,0.0,0.0,0.0,0.0,0.0,0.0,0.0,0.0,0.0,0.0,0.0,0.0,0.0,0.0,0.0,0.0,0.0,0.0,0.0,0.0,0.0,0.0,0.0,0.0,0.0,0.0,0.0,0.0,0.0,0.0,0.0,0.0,0.0,0.0,0.0,0.0,0.0,0.0,0.0,0.0,0.0,0.0,0.0,0.0,0.0,0.0,0.0,0.0,0.0,0.0,0.0,0.0,0.0,0.0,0.0,0.0,0.0,0.0,0.0,0.0,0.0,0.0,0.0,0.0,0.0,0.0,0.0,0.0,0.0,0.0,0.0,0.0,0.0,0.0,0.0,0.0,0.0,0.0,2.5477,2.6235,2.7854,2.7968,2.6349,2.7073,2.6732,0.0,0.0,0.0,0.0,0.0,0.0,0.0,0.0,0.0,0.0,0.0,0.0,0.0,0.0,0.0,0.0,0.0,0.0,0.0,0.0,0.0,0.0,0.0,0.0,0.0,0.0,0.0,0.0,0.0,0.0,0.0,0.0,0.0,0.0,0.0,0.0,0.0,0.0,0.0,0.0,0.0,0.0,0.0,0.0,0.0,0.0,0.0,0.0,0.0,0.0,0.0,0.0,0.0,0.0,0.0,0.0,0.0,0.0,0.0,0.0,0.0,0.0,0.0,0.0,0.0,0.0,0.0,0.0,0.0,0.0,0.0,0.0,0.0,0.0,0.0,0.0,0.0,0.0,0.0,0.0,0.0,0.0,0.0,0.0,0.0,0.0,0.0,0.0,0.0,0.0,0.0,0.0,0.0,0.0,0.0,0.0,0.0,0.0,0.0,0.0,0.0,0.0,0.0,0.0,0.0,0.0,0.0,0.0,0.0,2.7968,2.8987,2.9021,2.7968,2.7638,2.6959,0.0,0.0,0.0,0.0,0.0,0.0,0.0,0.0,0.0,0.0,0.0,0.0,0.0,0.0,0.0,0.0,0.0,0.0,0.0,0.0,0.0,0.0,0.0,0.0,0.0,0.0,0.0,0.0,0.0,0.0,0.0,0.0,0.0,0.0,0.0,0.0,0.0,0.0,0.0,0.0,0.0,0.0,0.0,0.0,0.0,0.0,0.0,0.0,0.0,0.0,0.0,0.0,0.0,0.0,0.0,0.0,0.0,0.0,0.0,0.0,0.0,0.0,0.0,0.0,0.0,0.0,0.0,0.0,0.0,0.0,0.0,0.0,0.0,0.0,0.0,0.0,0.0,0.0,0.0,0.0,0.0,0.0,0.0,0.0,0.0,0.0,0.0,0.0,0.0,0.0,0.0,0.0,0.0,0.0,0.0,0.0,0.0,0.0,0.0,0.0,0.0,0.0,0.0,0.0,0.0,0.0,0.0,0.0,0.0,3.1909,3.2137,3.1568,3.0124,2.9602,2.8658,2.7176,0.0,0.0,0.0,0.0,0.0,0.0,0.0,0.0,0.0,0.0,0.0,0.0,0.0,0.0,0.0,0.0,0.0,0.0,0.0,0.0,0.0,0.0,0.0,0.0,0.0,0.0,0.0,0.0,0.0,0.0,0.0,0.0,0.0,0.0,0.0,0.0,0.0,0.0,0.0,0.0,0.0,0.0,0.0,0.0,0.0,0.0,0.0,0.0,0.0,0.0,0.0,0.0,0.0,0.0,0.0,0.0,0.0,0.0,0.0,0.0,0.0,0.0,0.0,0.0,0.0,0.0,0.0,0.0,0.0,0.0,0.0,0.0,0.0,0.0,0.0,0.0,0.0,0.0,0.0,0.0,0.0,0.0,0.0,0.0,0.0,0.0,0.0,0.0,0.0,0.0,0.0,0.0,0.0,0.0,0.0,0.0,0.0,0.0,0.0,0.0,0.0,0.0,0.0,0.0,0.0,0.0,0.0,0.0,3.748,3.7025,3.5505,3.2937,3.2743,3.1492,0.0,0.0,0.0,0.0,0.0,0.0,0.0,0.0,0.0,0.0,0.0,0.0,0.0,0.0,0.0,0.0,0.0,0.0,0.0,0.0,0.0,0.0,0.0,0.0,0.0,0.0,0.0,0.0,0.0,0.0,0.0,0.0,0.0,0.0,0.0,0.0,0.0,0.0,0.0,0.0,0.0,0.0,0.0,0.0,0.0,0.0,0.0,0.0,0.0,0.0,0.0,0.0,0.0,0.0,0.0,0.0,0.0,0.0,0.0,0.0,0.0,0.0,0.0,0.0,0.0,0.0,0.0,0.0,0.0,0.0,0.0,0.0,0.0,0.0,0.0,0.0,0.0,0.0,0.0,0.0,0.0,0.0,0.0,0.0,0.0,0.0,0.0,0.0,0.0,0.0,0.0,0.0,0.0,0.0,0.0,0.0,0.0,0.0,0.0,0.0,0.0,0.0,0.0,0.0,0.0,0.0,0.0,0.0,0.0,3.9048,4.1875,4.1646,3.8076,3.6722,3.4605,0.0,0.0,0.0,0.0,0.0,0.0,0.0,0.0,0.0,0.0,0.0,0.0,0.0,0.0,0.0,0.0,0.0,0.0,0.0,0.0,0.0,0.0,0.0,0.0,0.0,0.0,0.0,0.0,0.0,0.0,0.0,0.0,0.0,0.0,0.0,0.0,0.0,0.0,0.0,0.0,0.0,0.0,0.0,0.0,0.0,0.0,0.0,0.0,0.0,0.0,0.0,0.0,0.0,0.0,0.0,0.0,0.0,0.0,0.0,0.0,0.0,0.0,0.0,0.0,0.0,0.0,0.0,0.0,0.0,0.0,0.0,0.0,0.0,0.0,0.0,0.0,0.0,0.0,0.0,0.0,0.0,0.0,0.0,0.0,0.0,0.0,0.0,0.0,0.0,0.0,0.0,0.0,0.0,0.0,0.0,0.0,0.0,0.0,0.0,0.0,0.0,0.0,0.0,0.0,0.0,0.0,0.0,0.0,3.8431,4.118,4.5252,4.6101,4.346,4.048,3.7337,0.0,0.0,0.0,0.0,0.0,0.0,0.0,0.0,0.0,0.0,0.0,0.0,0.0,0.0,0.0,0.0,0.0,0.0,0.0,0.0,0.0,0.0,0.0,0.0,0.0,0.0,0.0,0.0,0.0,0.0,0.0,0.0,0.0,0.0,0.0,0.0,0.0,0.0,0.0,0.0,0.0,0.0,0.0,0.0,0.0,0.0,0.0,0.0,0.0,0.0,0.0,0.0,0.0,0.0,0.0,0.0,0.0,0.0,0.0,0.0,0.0,0.0,0.0,0.0,0.0,0.0,0.0,0.0,0.0,0.0,0.0,0.0,0.0,0.0,0.0,0.0,0.0,0.0,0.0,0.0,0.0,0.0,0.0,0.0,0.0,0.0,0.0,0.0,0.0,0.0,0.0,0.0,0.0,0.0,0.0,0.0,0.0,0.0,0.0,0.0,0.0,0.0,0.0,0.0,0.0,0.0,0.0,0.0,4.0465,4.3618,4.7575,4.9188,4.8213,4.3877,3.989,0.0,0.0,0.0,0.0,0.0,0.0,0.0,0.0,0.0,0.0,0.0,0.0,0.0,0.0,0.0,0.0,0.0,0.0,0.0,0.0,0.0,0.0,0.0,0.0,0.0,0.0,0.0,0.0,0.0,0.0,0.0,0.0,0.0,0.0,0.0,0.0,0.0,0.0,0.0,0.0,0.0,0.0,0.0,0.0,0.0,0.0,0.0,0.0,0.0,0.0,0.0,0.0,0.0,0.0,0.0,0.0,0.0,0.0,0.0,0.0,0.0,0.0,0.0,0.0,0.0,0.0,0.0,0.0,0.0,0.0,0.0,0.0,0.0,0.0,0.0,0.0,0.0,0.0,0.0,0.0,0.0,0.0,0.0,0.0,0.0,0.0,0.0,0.0,0.0,0.0,0.0,0.0,0.0,0.0,0.0,0.0,0.0,0.0,0.0,0.0,0.0,0.0,0.0,0.0,0.0,0.0,0.0,0.0,4.3448,4.603,4.9353,5.0434,4.9014,4.6202,4.2846,0.0,0.0,0.0,0.0,0.0,0.0,0.0,0.0,0.0,0.0,0.0,0.0,0.0,0.0,0.0,0.0,0.0,0.0,0.0,0.0,0.0,0.0,0.0,0.0,0.0,0.0,0.0,0.0,0.0,0.0,0.0,0.0,0.0,0.0,0.0,0.0,0.0,0.0,0.0,0.0,0.0,0.0,0.0,0.0,0.0,0.0,0.0,0.0,3.2188,0.0,0.0,0.0,0.0,0.0,0.0,0.0,0.0,0.0,0.0,0.0,0.0,0.0,0.0,0.0,0.0,0.0,0.0,0.0,0.0,0.0,0.0,0.0,0.0,0.0,0.0,0.0,0.0,0.0,0.0,0.0,0.0,0.0,0.0,0.0,0.0,0.0,0.0,0.0,0.0,0.0,0.0,0.0,0.0,0.0,0.0,0.0,0.0,0.0,0.0,0.0,0.0,0.0,0.0,0.0,0.0,0.0,0.0,0.0,4.523,4.7276,5.0038,5.089,4.9623,4.7692,4.4766,0.0,0.0,0.0,0.0,0.0,0.0,0.0,0.0,0.0,0.0,0.0,0.0,0.0,0.0,0.0,0.0,0.0,0.0,0.0,0.0,0.0,0.0,0.0,0.0,0.0,0.0,0.0,0.0,0.0,0.0,0.0,0.0,0.0,0.0,0.0,0.0,0.0,0.0,0.0,0.0,0.0,0.0,0.0,0.0,0.0,0.0,0.0,0.0,0.0,0.0,0.0,0.0,0.0,0.0,0.0,0.0,0.0,0.0,0.0,0.0,0.0,0.0,0.0,0.0,0.0,0.0,0.0,0.0,0.0,0.0,0.0,0.0,0.0,0.0,0.0,0.0,0.0,0.0,0.0,0.0,0.0,0.0,0.0,0.0,0.0,0.0,0.0,0.0,0.0,0.0,0.0,0.0,0.0,0.0,0.0,0.0,0.0,0.0,0.0,0.0,0.0,0.0,0.0,0.0,0.0,0.0,0.0,4.3519,4.6786,4.8385,5.0607,5.1305,5.032,4.8647,4.5956,4.2176,0.0,0.0,0.0,0.0,0.0,0.0,0.0,0.0,0.0,0.0,0.0,0.0,0.0,0.0,0.0,0.0,0.0,0.0,0.0,0.0,0.0,0.0,0.0,0.0,0.0,0.0,0.0,0.0,0.0,0.0,0.0,0.0,0.0,0.0,0.0,0.0,0.0,0.0,3.264,3.5428,0.0,0.0,0.0,0.0,0.0,0.0,0.0,0.0,3.4524,0.0,0.0,0.0,0.0,0.0,0.0,0.0,0.0,0.0,0.0,0.0,0.0,0.0,0.0,0.0,0.0,0.0,0.0,0.0,0.0,0.0,0.0,0.0,0.0,0.0,0.0,0.0,0.0,0.0,0.0,0.0,0.0,0.0,0.0,0.0,0.0,0.0,0.0,0.0,0.0,0.0,0.0,0.0,0.0,0.0,0.0,0.0,0.0,0.0,0.0,0.0,0.0,0.0,0.0,0.0,0.0,4.039,4.5814,4.9351,5.0956,5.2577,5.2707,5.1292,4.9013,4.6272,4.2969,0.0,0.0,0.0,0.0,0.0,0.0,0.0,0.0,0.0,0.0,0.0,0.0,0.0,0.0,0.0,0.0,0.0,0.0,0.0,0.0,0.0,0.0,0.0,0.0,0.0,0.0,0.0,0.0,0.0,0.0,0.0,0.0,0.0,0.0,0.0,0.0,0.0,0.0,0.0,3.6594,3.7489,0.0,0.0,0.0,0.0,0.0,0.0,0.0,0.0,3.4711,0.0,0.0,0.0,0.0,0.0,0.0,0.0,0.0,0.0,0.0,0.0,0.0,0.0,0.0,0.0,0.0,0.0,0.0,0.0,0.0,0.0,0.0,0.0,0.0,0.0,0.0,0.0,0.0,0.0,0.0,0.0,0.0,0.0,0.0,0.0,0.0,0.0,0.0,0.0,0.0,0.0,0.0,0.0,0.0,0.0,0.0,0.0,0.0,0.0,0.0,0.0,0.0,0.0,0.0,0.0,4.2073,4.7579,5.0994,5.2144,5.3237,5.2865,5.0909,4.8087,4.508,0.0,0.0,0.0,0.0,0.0,0.0,0.0,0.0,0.0,0.0,0.0,0.0,0.0,0.0,0.0,0.0,0.0,0.0,0.0,0.0,0.0,0.0,0.0,0.0,0.0,0.0,0.0,0.0,0.0,0.0,0.0,0.0,0.0,0.0,0.0,0.0,0.0,0.0,0.0,0.0,3.9098,4.0234,3.8502,0.0,0.0,0.0,0.0,0.0,0.0,3.7288,3.6191,0.0,0.0,0.0,0.0,0.0,0.0,0.0,0.0,0.0,0.0,0.0,0.0,0.0,0.0,0.0,0.0,0.0,0.0,0.0,0.0,0.0,0.0,0.0,0.0,0.0,0.0,0.0,0.0,0.0,0.0,0.0,0.0,0.0,0.0,0.0,0.0,0.0,0.0,0.0,0.0,0.0,0.0,0.0,0.0,0.0,0.0,0.0,0.0,0.0,0.0,0.0,0.0,0.0,0.0,0.0,4.3775,4.9029,5.2143,5.3054,5.3637,5.2873,5.0686,4.7471,4.4257,0.0,0.0,0.0,0.0,0.0,0.0,0.0,0.0,0.0,0.0,0.0,0.0,0.0,0.0,0.0,0.0,0.0,0.0,0.0,0.0,0.0,0.0,0.0,0.0,0.0,0.0,0.0,0.0,0.0,0.0,0.0,0.0,0.0,0.0,0.0,0.0,0.0,0.0,0.0,0.0,0.0,4.2861,4.1292,4.037,0.0,0.0,0.0,0.0,3.9974,3.9535,0.0,0.0,0.0,0.0,0.0,0.0,0.0,0.0,0.0,0.0,0.0,0.0,0.0,0.0,0.0,0.0,0.0,0.0,0.0,0.0,0.0,0.0,0.0,0.0,0.0,0.0,0.0,0.0,0.0,0.0,0.0,0.0,0.0,0.0,0.0,0.0,0.0,0.0,0.0,0.0,0.0,0.0,0.0,0.0,0.0,0.0,0.0,0.0,0.0,0.0,0.0,0.0,0.0,0.0,0.0,0.0,4.5742,4.9933,5.2799,5.4261,5.4359,5.352,5.1829,4.8604,4.5375,0.0,0.0,0.0,0.0,0.0,0.0,0.0,0.0,0.0,0.0,0.0,0.0,0.0,0.0,0.0,0.0,0.0,0.0,0.0,0.0,0.0,0.0,0.0,0.0,0.0,0.0,0.0,0.0,0.0,0.0,0.0,0.0,0.0,0.0,0.0,0.0,0.0,0.0,0.0,0.0,0.0,4.3839,4.2847,4.2523,4.2649,0.0,0.0,4.2508,4.3318,4.3355,0.0,0.0,0.0,0.0,0.0,0.0,0.0,0.0,0.0,0.0,0.0,0.0,0.0,0.0,0.0,0.0,0.0,0.0,0.0,0.0,0.0,0.0,0.0,0.0,0.0,0.0,0.0,0.0,0.0,0.0,0.0,0.0,0.0,0.0,0.0,0.0,0.0,0.0,0.0,0.0,0.0,0.0,0.0,0.0,0.0,0.0,0.0,0.0,0.0,0.0,0.0,0.0,0.0,0.0,0.0,4.1036,4.6319,5.1307,5.4206,5.4871,5.5261,5.4421,5.2329,4.9036,4.5742,0.0,0.0,0.0,0.0,0.0,0.0,0.0,0.0,0.0,0.0,0.0,0.0,0.0,0.0,0.0,0.0,0.0,0.0,0.0,0.0,0.0,0.0,0.0,0.0,0.0,0.0,0.0,0.0,0.0,0.0,0.0,0.0,0.0,0.0,0.0,0.0,0.0,0.0,0.0,0.0,0.0,0.0,4.5646,4.5656,0.0,0.0,0.0,4.603,4.7338,0.0,0.0,0.0,0.0,0.0,0.0,0.0,0.0,0.0,0.0,0.0,0.0,0.0,0.0,0.0,0.0,0.0,0.0,0.0,0.0,0.0,0.0,0.0,0.0,0.0,0.0,0.0,0.0,0.0,0.0,0.0,0.0,0.0,0.0,0.0,0.0,0.0,0.0,0.0,0.0,0.0,0.0,0.0,0.0,0.0,0.0,0.0,0.0,0.0,0.0,0.0,0.0,0.0,0.0,0.0,0.0,0.0,4.7182,5.2535,5.5472,5.5836,5.6343,5.5553,5.3302,5.0329,0.0,0.0,0.0,0.0,0.0,0.0,0.0,0.0,0.0,0.0,0.0,0.0,0.0,0.0,0.0,0.0,0.0,0.0,0.0,0.0,0.0,0.0,0.0,0.0,0.0,0.0,0.0,2.7535,0.0,0.0,0.0,0.0,0.0,0.0,0.0,0.0,0.0,0.0,0.0,0.0,0.0,0.0,4.717,4.8576,4.9219,4.9661,0.0,0.0,4.9893,5.0933,5.1082,5.0116,0.0,0.0,0.0,0.0,0.0,0.0,0.0,0.0,0.0,0.0,0.0,0.0,0.0,0.0,0.0,0.0,0.0,0.0,0.0,0.0,0.0,0.0,0.0,0.0,0.0,0.0,0.0,0.0,0.0,0.0,0.0,0.0,0.0,0.0,0.0,0.0,0.0,0.0,0.0,0.0,0.0,0.0,0.0,0.0,0.0,0.0,0.0,0.0,0.0,0.0,0.0,0.0,0.0,0.0,0.0,4.9111,5.3414,5.6345,5.7831,5.7899,5.7057,5.5326,5.3425,5.0121,0.0,0.0,0.0,0.0,0.0,0.0,0.0,0.0,0.0,0.0,0.0,0.0,0.0,0.0,0.0,0.0,0.0,0.0,0.0,0.0,0.0,0.0,0.0,0.0,0.0,0.0,0.0,0.0,0.0,0.0,0.0,0.0,0.0,0.0,0.0,0.0,0.0,0.0,0.0,0.0,0.0,5.0434,5.1243,5.3163,5.4267,0.0,0.0,5.4304,5.3683,5.3571,5.2197,4.8259,0.0,0.0,0.0,0.0,0.0,0.0,0.0,0.0,0.0,0.0,0.0,0.0,0.0,0.0,0.0,0.0,0.0,0.0,0.0,0.0,0.0,0.0,0.0,0.0,0.0,0.0,0.0,0.0,0.0,0.0,0.0,0.0,0.0,0.0,0.0,0.0,0.0,0.0,0.0,0.0,0.0,0.0,0.0,0.0,0.0,0.0,0.0,0.0,0.0,0.0,0.0,0.0,0.0,4.4631,4.9568,5.5774,5.8813,5.8466,5.9377,5.9081,5.7387,5.5598,5.2497,0.0,0.0,0.0,0.0,0.0,0.0,0.0,0.0,0.0,0.0,0.0,0.0,0.0,0.0,0.0,0.0,0.0,0.0,0.0,0.0,0.0,0.0,0.0,0.0,0.0,0.0,0.0,0.0,3.1471,3.1609,3.1521,0.0,0.0,0.0,0.0,0.0,0.0,0.0,0.0,0.0,0.0,5.2864,5.5171,5.6935,0.0,0.0,5.8624,5.8353,5.7016,5.6385,5.4713,5.0636,4.707,0.0,0.0,0.0,0.0,0.0,0.0,0.0,0.0,0.0,0.0,0.0,0.0,0.0,0.0,0.0,0.0,0.0,0.0,0.0,0.0,0.0,0.0,0.0,0.0,0.0,0.0,0.0,0.0,0.0,0.0,0.0,0.0,0.0,0.0,0.0,0.0,0.0,0.0,0.0,0.0,0.0,0.0,0.0,0.0,0.0,0.0,0.0,0.0,0.0,0.0,0.0,0.0,4.5916,5.0403,5.7482,6.0654,5.9764,6.1118,6.1065,5.9331,5.8042,5.5089,0.0,0.0,0.0,0.0,0.0,0.0,0.0,0.0,0.0,0.0,0.0,0.0,0.0,0.0,0.0,0.0,0.0,0.0,0.0,0.0,0.0,0.0,0.0,0.0,0.0,0.0,0.0,0.0,3.3209,3.2897,3.2571,0.0,0.0,0.0,0.0,0.0,0.0,0.0,0.0,0.0,0.0,5.53,5.8023,6.0015,6.1251,6.1363,6.181,6.1363,5.9191,5.7998,5.606,5.249,0.0,0.0,0.0,0.0,0.0,0.0,0.0,0.0,0.0,0.0,0.0,0.0,0.0,0.0,0.0,0.0,0.0,0.0,0.0,0.0,0.0,0.0,0.0,0.0,0.0,0.0,0.0,0.0,0.0,0.0,3.2924,0.0,0.0,0.0,0.0,0.0,0.0,0.0,0.0,0.0,0.0,0.0,0.0,0.0,0.0,0.0,0.0,0.0,0.0,0.0,0.0,0.0,0.0,4.7073,5.2113,5.8101,6.1505,6.2274,6.3173,6.2781,6.1113,6.0905,5.808,5.2116,0.0,0.0,0.0,0.0,0.0,0.0,0.0,0.0,0.0,0.0,0.0,0.0,0.0,0.0,0.0,0.0,0.0,0.0,0.0,0.0,0.0,0.0,0.0,0.0,0.0,0.0,3.5963,3.5382,3.4458,0.0,0.0,0.0,0.0,0.0,0.0,0.0,0.0,0.0,0.0,5.4109,5.7773,5.9424,6.225,6.3628,6.2126,6.3215,6.3102,5.9844,5.7929,5.5977,0.0,0.0,0.0,0.0,0.0,0.0,0.0,0.0,0.0,0.0,0.0,0.0,0.0,0.0,0.0,0.0,0.0,0.0,0.0,0.0,0.0,0.0,0.0,0.0,0.0,0.0,0.0,3.9507,3.8742,0.0,0.0,0.0,0.0,0.0,0.0,0.0,0.0,0.0,0.0,0.0,4.9204,4.9997,0.0,0.0,0.0,0.0,0.0,0.0,0.0,0.0,0.0,0.0,0.0,0.0,4.8508,5.3115,5.9498,6.2941,6.3289,6.4101,6.4024,6.2863,6.1669,5.7476,4.9904,0.0,0.0,0.0,0.0,0.0,0.0,0.0,0.0,0.0,0.0,0.0,0.0,0.0,0.0,0.0,0.0,0.0,0.0,0.0,0.0,0.0,0.0,0.0,0.0,0.0,3.6485,0.0,0.0,0.0,0.0,0.0,0.0,0.0,0.0,0.0,0.0,0.0,4.9289,5.2366,5.6491,6.0,6.2173,6.4608,6.6012,0.0,0.0,0.0,0.0,0.0,0.0,0.0,0.0,0.0,0.0,0.0,0.0,0.0,0.0,5.4184,5.1464,5.0255,4.9516,4.9189,0.0,0.0,0.0,0.0,0.0,0.0,0.0,0.0,0.0,0.0,0.0,0.0,0.0,0.0,4.5285,0.0,4.3011,0.0,0.0,0.0,0.0,0.0,0.0,0.0,0.0,5.3258,5.5152,5.578,5.6582,5.6543,0.0,5.6635,5.3579,0.0,0.0,0.0,0.0,0.0,0.0,0.0,0.0,5.0094,5.4426,6.1084,6.445,6.4217,6.5262,6.5301,6.414,6.1896,5.7791,5.1679,4.7924,4.402,0.0,0.0,0.0,0.0,0.0,0.0,0.0,0.0,0.0,0.0,0.0,0.0,0.0,0.0,0.0,0.0,0.0,0.0,0.0,0.0,0.0,0.0,0.0,3.8617,0.0,0.0,0.0,0.0,0.0,0.0,0.0,0.0,0.0,4.632,4.968,5.315,5.5647,5.9005,6.1982,6.4131,0.0,0.0,0.0,0.0,0.0,0.0,0.0,5.9657,5.8636,5.8285,5.8542,5.9707,6.0828,6.1812,6.2628,0.0,0.0,5.8904,5.7356,5.6596,5.6074,5.5615,5.5445,5.5906,5.6946,5.8231,0.0,0.0,0.0,0.0,0.0,0.0,0.0,0.0,5.1481,5.073,0.0,4.7435,0.0,0.0,0.0,0.0,0.0,4.759,0.0,0.0,5.8544,6.1011,6.252,6.3381,6.3376,6.2636,6.3342,6.1954,5.8316,5.1196,0.0,0.0,0.0,0.0,0.0,0.0,5.1873,5.6201,6.2743,6.5842,6.5223,6.665,6.6688,6.4991,6.178,5.9223,5.7361,5.3335,4.9935,4.7351,4.3289,0.0,0.0,0.0,0.0,0.0,0.0,0.0,0.0,0.0,0.0,0.0,0.0,0.0,0.0,0.0,0.0,0.0,0.0,0.0,0.0,4.2486,0.0,0.0,0.0,0.0,0.0,0.0,0.0,0.0,0.0,0.0,5.1201,5.3803,5.6748,5.914,0.0,0.0,0.0,0.0,6.8953,6.8166,6.8731,6.8379,6.5925,6.4166,6.3095,6.311,0.0,0.0,6.6636,6.698,6.7248,6.7959,6.8762,6.8476,6.558,6.4174,6.3259,6.225,6.2118,6.223,6.2231,6.3465,6.5114,5.9372,0.0,0.0,0.0,0.0,5.5321,5.7366,5.9243,5.8508,5.777,5.6893,5.4375,0.0,0.0,0.0,0.0,0.0,0.0,5.6961,6.0561,6.3973,6.5797,6.6294,6.7113,6.707,6.6294,6.6488,6.5172,6.2346,5.9594,5.4883,4.8392,0.0,0.0,0.0,0.0,5.3884,5.8758,6.3671,6.6688,6.7694,6.7578,6.6688,6.503,6.3444,6.1819,6.0074,5.7675,5.4933,5.18,4.8202,0.0,0.0,0.0,0.0,0.0,0.0,0.0,0.0,0.0,0.0,0.0,0.0,0.0,0.0,0.0,0.0,0.0,0.0,0.0,4.5526,4.6086,4.5543,0.0,0.0,0.0,0.0,0.0,0.0,0.0,0.0,0.0,5.9453,6.0459,6.1579,0.0,0.0,6.7248,6.8349,6.9596,7.0311,7.0088,7.0242,0.0,0.0,6.7553,6.7022,6.7644,6.9449,7.1178,7.2215,7.2906,7.3214,7.2822,7.2937,7.2639,7.129,6.9529,6.8186,6.7741,6.8083,6.8471,6.8537,6.9796,7.1235,6.8142,6.2912,6.0828,6.012,6.0589,6.2267,6.4451,6.6769,6.5708,6.5028,6.4361,6.1557,5.9093,5.6967,5.5419,0.0,0.0,0.0,6.2285,6.5349,6.8067,6.9503,6.9889,7.0703,7.0625,6.9889,6.9889,6.8683,6.6468,6.5651,6.2507,5.7065,0.0,0.0,5.1566,5.4047,5.7335,6.144,6.5661,6.8176,6.8868,6.805,6.7124,6.6121,6.492,6.3796,6.2749,6.1105,5.9077,5.6659,5.2961,4.9149,0.0,0.0,0.0,0.0,0.0,0.0,0.0,0.0,0.0,0.0,0.0,3.4999,3.6996,0.0,0.0,0.0,4.4079,4.63,4.8659,4.9933,0.0,0.0,0.0,0.0,0.0,0.0,0.0,5.7703,6.1243,6.4237,6.6083,6.7199,6.7545,6.6744,6.8513,7.0244,7.1091,0.0,7.2514,7.286,7.2937,7.2745,7.2245,7.1468,7.1276,7.2514,7.3937,7.5245,7.6053,7.6669,7.6784,7.6361,7.6207,7.6053,7.5592,7.4343,7.2953,7.1875,7.2572,7.3343,7.3324,7.4438,7.5551,7.5257,7.4199,6.928,6.7551,6.815,6.9742,7.1866,7.4077,7.257,7.1939,7.1684,6.8588,6.6252,6.4476,6.1955,0.0,6.4671,6.5486,6.7116,6.9486,7.1229,7.2394,7.3134,7.3948,7.387,7.3018,7.3018,7.2121,7.0403,6.9587,6.8383,6.6512,5.8753,5.5539,5.6963,5.9251,6.1655,6.4217,6.8213,6.9916,6.9139,6.8396,6.793,6.7775,6.6224,6.5365,6.5249,6.3743,6.2498,6.152,5.7602,5.3755,5.0252,0.0,0.0,0.0,0.0,0.0,0.0,0.0,0.0,0.0,0.0,0.0,0.0,0.0,0.0,0.0,4.8691,0.0,5.2428,5.4044,0.0,0.0,0.0,5.3313,5.5126,5.8858,6.1973,6.3698,0.0,0.0,7.1206,7.3476,7.386,7.0783,7.1752,7.2976,7.3776,7.4546,7.5284,7.5976,7.6169,7.6169,7.5938,7.5322,7.5322,7.6707,7.7407,7.7561,7.8176,7.8369,7.8484,7.833,7.8484,7.8407,7.8446,7.8177,7.7691,7.5047,7.588,7.7007,7.687,7.7547,7.8176,7.8329,7.8056,7.678,7.4833,7.2729,7.3691,7.5239,7.6909,7.596,7.5574,7.5489,7.3451,7.1281,6.9016,6.7106,6.7301,6.9172,6.995,7.1001,7.2288,7.4039,7.4586,7.4196,7.5013,7.4621,7.3218,7.314,7.228,7.068,7.0408,6.9434,6.772,6.5679,6.3854,6.2235,6.2776,6.4366,6.6925,6.9215,7.026,7.0066,6.9874,6.9131,6.7843,6.7414,6.6908,6.6279,6.5828,6.5152,6.4202,6.1372,5.7889,5.3777,4.9552,0.0,0.0,0.0,0.0,0.0,0.0,0.0,0.0,0.0,4.0867,4.402,0.0,4.5975,0.0,5.2425,5.5401,5.7506,5.9248,0.0,0.0,5.9209,5.9588,6.1935,6.4205,6.6474,6.8821,7.1699,7.3822,7.4668,7.6445,7.733,7.6522,7.6714,7.7099,7.7284,7.7445,7.7676,7.7869,7.7907,7.7907,7.7946,7.7746,7.7746,7.8138,7.8215,7.8292,7.8484,7.8484,7.8484,7.8484,7.8484,7.8484,7.86,7.9,7.9238,7.8599,7.8703,7.8888,7.8871,7.9531,8.0145,8.098,8.0707,8.1058,8.0095,7.836,7.8295,7.9275,8.0796,8.0056,7.9726,7.9697,7.804,7.6386,7.4677,7.3702,7.3779,7.4716,7.5184,7.5614,7.6121,7.7096,7.7291,7.6823,7.7291,7.6627,7.4987,7.4596,7.3503,7.1902,7.1862,7.1355,7.0458,7.081,7.0217,6.8715,6.7205,6.7301,6.9128,7.0411,7.1072,7.1072,7.0721,6.9902,6.8574,6.8106,6.7559,6.6736,6.6629,6.6346,6.5758,6.3304,6.0282,5.6726,5.2532,4.8076,0.0,0.0,0.0,0.0,0.0,0.0,0.0,0.0,0.0,0.0,0.0,5.1376,5.4359,5.6989,5.9594,6.2127,6.4243,6.5634,6.5981,6.5942,6.6596,6.8353,7.0052,7.1745,7.3553,7.5668,7.7161,7.7669,7.8823,7.9638,7.9669,7.9677,7.9515,7.9131,7.9054,7.9208,7.96,7.9939,8.0331,8.0677,8.0754,8.0754,8.0754,8.0446,8.0208,8.0177,7.9908,7.9754,8.01,8.0215,8.0331,8.0716,8.1139,8.1477,8.1462,8.1406,8.105,8.038,8.0611,8.091,8.3242,8.2618,8.3359,8.3751,8.3786,8.2825,8.3248,8.4482,8.3793,8.3444,8.3322,8.1832,8.0664,7.9844,7.9648,7.9531,7.9531,7.9453,7.9375,7.9375,7.9492,7.957,7.957,7.9648,7.8828,7.7187,7.6328,7.5039,7.3476,7.3359,7.3359,7.3515,7.4336,7.4687,7.4492,7.1667,7.0556,7.118,7.1882,7.2232,7.2233,7.1453,7.0554,6.9578,6.872,6.7744,6.6687,6.6702,6.6625,6.6381,6.4273,6.1843,5.9248,5.5282,5.1206,0.0,4.6085,0.0,0.0,0.0,0.0,0.0,0.0,0.0,0.0,5.5889,5.7921,6.0151,6.184,6.3842,6.6332,6.8783,7.0541,7.1342,7.2175,7.3014,7.3892,7.5361,7.6669,7.7522,7.9015,7.9969,8.0085,8.0823,8.1285,8.1362,8.14,8.117,8.0477,8.0131,8.0246,8.1131,8.1823,8.2178,8.2678,8.3024,8.2986,8.3062,8.2516,8.2285,8.1977,8.167,8.1593,8.2093,8.2247,8.2639,8.3486,8.3524,8.3524,8.3409,8.3362,8.297,8.1854,8.15,8.14,8.4529,8.4412,8.4568,8.5037,8.5662,8.5464,8.5134,8.4737,8.4562,8.4155,8.3508,8.2499,8.1562,8.0664,7.9336,7.875,7.8672,7.8008,7.7695,7.7695,7.8398,7.8711,7.875,7.9375,7.8828,7.7226,7.6289,7.5351,7.4336,7.3633,7.3672,7.4375,7.5234,7.5312,7.4648,0.0,0.0,0.0,7.4022,7.4061,7.4061,7.3241,7.203,7.0506,6.9608,0.0,6.6014,6.6517,6.6463,6.5648,6.5123,0.0,0.0,0.0,0.0,0.0,0.0,0.0,0.0,0.0,0.0,0.0,6.1438,6.1359,5.9895,6.1819,6.3651,6.485,6.5884,6.7481,6.9981,7.1768,7.317,7.3996,7.4781,7.563,7.6476,7.7445,7.8361,7.9246,8.0246,8.1093,8.167,8.1977,8.2324,8.2909,8.3139,8.3062,8.2832,8.167,8.1208,8.1939,8.2324,8.2131,8.1631,8.1785,8.2054,8.1593,8.2054,8.2093,8.1708,8.2447,8.2793,8.2554,8.287,8.3409,8.364,8.3601,8.3717,8.3601,8.364,8.3524,8.3178,8.3139,8.3139,8.5312,0.0,8.539,8.582,0.0,8.664,8.656,8.6159,8.6124,8.566,8.4843,8.4414,8.3281,8.1562,8.0312,7.9258,7.8476,7.7578,7.7422,7.789,7.8711,7.9336,7.9765,8.0586,8.0078,7.8437,7.7578,7.6719,7.5898,7.543,7.5664,7.6523,7.7344,7.7539,7.7148,7.7578,7.6719,7.4609,7.457,7.457,7.457,7.418,7.3125,7.1406,7.0937,0.0,0.0,0.0,0.0,0.0,0.0,0.0,0.0,0.0,0.0,5.5964,5.5764,5.6145,5.7023,5.9426,6.2364,6.5714,6.8316,6.8569,6.5844,6.7213,6.8674,6.995,7.1226,7.2662,7.4275,7.549,7.6308,7.6705,7.7396,7.8054,7.8515,7.9285,7.9939,8.0362,8.0823,8.14,8.2208,8.2324,8.267,8.3447,8.3601,8.364,8.3524,8.2909,8.2631,8.3439,8.3593,8.3632,8.3593,8.3593,8.3516,8.3632,8.3593,8.3401,8.3046,8.3324,8.3563,8.3555,8.3978,8.4324,8.4747,8.4824,8.4824,8.4824,8.4824,8.4824,8.4786,8.4217,8.3601,8.6015,8.5429,8.6133,8.6445,8.6484,8.7187,8.75,8.75,0.0,0.0,0.0,8.6211,8.4844,8.25,8.1601,8.039,7.8906,7.8047,7.8047,7.875,7.9687,8.0469,8.1054,8.207,8.1601,7.9922,7.9101,7.832,7.7656,7.75,7.789,7.8711,7.9531,7.9922,7.9922,7.9765,7.832,7.5664,7.5508,7.5508,7.5508,7.5234,7.4297,7.2734,7.2383,7.1094,6.875,6.9413,6.945,6.8626,6.87,6.8069,6.65,6.5134,6.3338,6.1189,6.1728,6.2652,6.3649,6.5819,6.8221,7.0734,7.3654,7.4077,7.1191,7.1881,7.3087,7.4631,7.6066,7.7196,7.7986,7.8679,7.9129,7.9192,7.9885,8.0368,8.0546,8.1108,8.1609,8.1539,8.1608,8.1862,8.2708,8.2862,8.3093,8.3832,8.417,8.4024,8.4024,8.3909,8.3901,8.4324,8.4478,8.497,8.5401,8.5363,8.567,8.5209,8.5016,8.4854,8.4632,8.4324,8.4247,8.4362,8.4863,8.5277,8.5739,8.5863,8.6094,8.6094,8.6094,8.6094,8.5978,8.5016,8.4178,8.7226,8.7148,8.7265,8.7304,8.7304,8.7461,8.75,8.75,8.75,8.6992,8.6211,8.6211,8.5195,8.3359,8.25,8.1601,8.0625,7.9726,7.9414,7.9609,8.1211,8.1601,8.1094,8.2656,8.25,8.0859,7.9961,7.9453,7.9297,7.8672,7.875,7.957,8.039,8.082,8.0742,8.0078,7.9453,7.8984,7.8984,7.8984,7.8945,7.7578,7.6367,7.5351,7.3906,7.2265,7.043,7.1172,7.125,7.039,7.1054,7.0976,7.0039,6.9687,6.9139,6.812,6.8783,6.9949,7.1492,7.27,7.4412,7.6898,7.826,7.7489,7.4238,7.5237,7.6562,7.7533,7.7961,7.8319,7.9093,7.9852,8.0528,8.1115,8.1805,8.2548,8.3105,8.3235,8.3285,8.321,8.3294,8.3516,8.4209,8.4439,8.467,8.5478,8.5478,8.567,8.5478,8.5132,8.4478,8.4055,8.4439,8.4593,8.4478,8.4024,8.4255,8.3947,8.4632,8.4786,8.4217,8.4901,8.5132,8.4063,8.5016,8.5593,8.5324,8.5632,8.6017,8.6094,8.6094,8.6094,8.6094,8.5786,8.5632,8.75,8.75,8.75,8.75,8.75,8.75,8.75,8.75,8.75,8.7304,8.6992,8.7344,8.6367,8.4336,8.3906,8.2695,8.0976,8.0078,7.9961,8.0469,8.1719,8.2344,8.2539,8.3711,8.3906,8.3125,8.2734,8.2539,8.2461,8.1679,8.1484,8.1797,8.1758,8.1679,8.1679,8.1328,8.1133,8.1094,8.0156,7.9726,7.9687,7.8515,7.75,7.664,7.5351,7.3906,7.2187,7.293,7.3008,7.2148,7.293,7.3008,7.2187,7.2109,7.1717,7.0934,7.2061,7.3381,7.4581,7.6372,7.7849,7.9053,8.0341,8.0447,7.8854,7.9396,8.0177,8.0996,8.1462,8.1714,8.1616,8.1817,8.2088,8.2387,8.2673,8.3153,8.3828,8.3921,8.3814,8.377,8.3641,8.3947,8.4786,8.4893,8.5201,8.594,8.6094,8.6094,8.6094,8.5786,8.5401,8.5093,8.5286,8.5363,8.5016,8.4939,8.4939,8.4978,8.5286,8.5363,8.5016,8.5709,8.567,8.517,8.5632,8.5901,8.5555,8.5824,8.6055,8.6094,8.6094,8.6094,8.6094,8.6094,8.6094,8.7617,8.7773,8.7578,8.75,8.75,8.75,8.75,8.75,8.75,8.75,8.7578,8.8164,8.7226,8.5312,8.5195,8.3984,8.1992,8.1172,8.125,8.1914,8.2773,8.3437,8.3945,8.4804,8.5078,8.4922,8.4883,8.4883,8.4804,8.4219,8.3789,8.3515,8.2734,8.2304,8.2304,8.2304,8.2304,8.2226,8.0976,8.0273,8.0273,7.9492,7.8711,7.8047,7.7226,7.6133,7.4883,7.539,7.543,7.4844,7.539,7.5469,7.4804,7.4725,7.4449,7.3938,7.5021,7.6221,7.7271,7.9292,8.0654,8.0888,8.2098,8.2955,8.3152,8.3152,8.3308,8.3816,8.4242,8.4384,8.3759,8.356,8.3585,8.3718,8.3648,8.4023,8.4603,8.463,8.4521,8.4435,8.4296,8.4478,8.4978,8.5162,8.544,8.5931,8.6094,8.6094,8.6094,8.6094,8.6094,8.6094,8.6094,8.6055,8.6094,8.6017,8.6017,8.6094,8.6055,8.5978,8.5978,8.6055,8.594,8.5786,8.5901,8.5931,8.5901,8.5978,8.6055,8.6094,8.6094,8.6094,8.6094,8.6094,8.6094,8.7929,8.8437,8.7851,8.75,8.7578,8.7539,8.7578,8.7578,8.75,8.75,8.7617,8.7578,8.7109,8.6172,8.6094,8.5508,8.4531,8.4453,8.4414,8.457,8.5429,8.5469,8.4922,8.5703,8.5664,8.5039,8.5,8.5117,8.5039,8.4844,8.4375,8.3594,8.2734,8.2383,8.2344,8.2344,8.2344,8.2304,8.2148,8.207,8.2031,8.1211,8.0742,8.0664,7.9765,7.9297,7.8867,7.918,7.918,7.914,7.9062,7.914,7.9021,7.9059,7.9016,7.8844,7.9075,7.9966,8.1516,8.2606,8.3386,8.4244,8.4361,8.4829,8.5534,8.569,8.5416,8.4946,8.479,8.486,8.4685,8.462,8.4827,8.5384,8.5462,8.5941,8.6431,8.6549,8.6376,8.6289,8.583,8.5901,8.5863,8.5901,8.5978,8.6055,8.6094,8.6094,8.6094,8.6094,8.6094,8.6094,8.6094,8.6094,8.6094,8.6094,8.6094,8.6094,8.6094,8.6094,8.6094,8.6055,8.594,8.5632,8.5701,8.5863,8.5555,8.5555,8.6094,8.6094,8.6094,8.6094,8.6094,8.6094,8.6094,8.8398,8.8711,8.8906,8.8984,8.8945,8.8984,8.8984,8.8984,8.8984,8.8984,8.8906,8.8437,8.7734,8.6992,8.7461,8.7226,8.6445,8.6445,8.6445,8.6484,8.6836,8.6758,8.6562,8.7265,8.7226,8.6562,8.6914,8.6875,8.6406,8.5937,8.5195,8.4414,8.3984,8.3828,8.3828,8.3867,8.3828,8.3828,8.3828,8.3594,8.2969,8.1719,8.0976,8.0898,8.0156,7.9726,7.9726,7.9726,7.9726,7.9726,7.9726,7.9726,7.9724,7.9721,7.9714,7.9739,8.0706,8.1753,8.2918,8.3777,8.44,8.479,8.5299,8.5729,8.608,8.6549,8.6703,8.643,8.6352,8.6153,8.5639,8.5555,8.5703,8.6005,8.6036,8.6301,8.7035,8.6914,8.6721,8.6558,8.6285,8.6094,8.6094,8.6094,8.6094,8.6094,8.6094,8.6094,8.6094,8.6094,8.6094,8.6094,8.6094,8.6094,8.6094,8.6094,8.6094,8.6094,8.6094,8.6094,8.6094,8.6094,8.594,8.5632,8.5863,8.6017,8.5786,8.5786,8.6094,8.6094,8.6094,8.6094,8.6094,8.6094,8.6094,8.9219,8.9492,9.0117,9.0234,9.0,9.0,9.0,9.0,9.0,9.0,8.9922,8.9336,8.875,8.8281,8.8359,8.8008,8.7539,8.75,8.75,8.75,8.75,8.75,8.7578,8.8086,8.8086,8.7656,8.8047,8.8047,8.7461,8.664,8.5859,8.5312,8.5,8.4883,8.4883,8.4883,8.4883,8.4883,8.4883,8.457,8.3867,8.2695,8.1953,8.1719,8.1328,8.1133,8.1133,8.1133,8.1133,8.1133,8.1133,8.1132,8.1128,8.1123,8.1115,8.1178,8.226,8.3347,8.4167,8.4792,8.5259,8.5532,8.6118,8.6431,8.6549,8.7054,8.7367,8.7367,8.7406,8.7054,8.6588,8.6471,8.6471,8.6471,8.6471,8.6712,8.7157,8.7171,8.7107,8.6719,8.6679,8.647,8.6269,8.6231,8.6215,8.6183,8.6151,8.611,8.6094,8.6094,8.6094,8.6094,8.6094,8.6094,8.6094,8.6094,8.6094,8.6094,8.6094,8.6094,8.6094,8.6094,8.6094,8.5863,8.6055,8.6055,8.594,8.6055,8.6094,8.6094,8.6094,8.6094,8.6094,8.6094,8.6094,9.0429,9.1133,9.1211,9.082,9.0039,9.0078,9.0039,9.0195,9.0078,9.0078,9.0117,8.9961,8.9922,8.9726,8.8437,8.7578,8.7539,8.7578,8.7539,8.75,8.75,8.75,8.75,8.7539,8.7578,8.75,8.7695,8.7656,8.7461,8.6679,8.6172,8.6133,8.5429,8.5,8.5117,8.5117,8.4961,8.5195,8.5117,8.4922,8.4844,8.4765,8.4297,8.3633,8.4179,8.4414,8.4492,8.4609,8.457,8.4609,8.4453,8.4491,8.456,8.4518,8.4391,8.4445,8.4558,8.5026,8.5729,8.5963,8.6353,8.7054,8.7172,8.7289,8.7211,8.7406,8.7523,8.7445,8.7601,8.7523,8.7445,8.7289,8.725,8.725,8.7289,8.7299,8.7348,8.7829,8.7733,8.722,8.7422,8.7461,8.6783,8.6528,8.6573,8.65,8.6308,8.623,8.6225,8.617,8.6094,8.6094,8.6094,8.6094,8.6094,8.6094,8.6094,8.6094,8.6094,8.6094,8.6094,8.6094,8.6094,8.6094,8.6094,8.6094,8.6094,8.6094,8.6094,8.6094,8.6094,8.6094,8.6094,8.6094,8.6094,9.1328,9.2109,9.2148,9.1953,9.1679,9.1679,9.1679,9.1679,9.1679,9.164,9.1562,9.1094,9.0859,9.0742,8.9609,8.8789,8.832,8.8281,8.8008,8.7539,8.75,8.75,8.7539,8.8008,8.7969,8.7617,8.8008,8.8008,8.75,8.7187,8.7031,8.6992,8.6758,8.6797,8.7148,8.6797,8.6797,8.7226,8.6836,8.6289,8.582,8.6289,8.6133,8.5312,8.5,8.4883,8.4883,8.4883,8.4883,8.4883,8.4922,8.492,8.491,8.4856,8.4843,8.487,8.5338,8.5768,8.6119,8.6627,8.7054,8.7328,8.7406,8.7406,8.7523,8.7874,8.8226,8.8304,8.8774,8.9047,8.8852,8.8108,8.7406,8.7406,8.7443,8.7663,8.7999,8.8277,8.8383,8.8511,8.8704,8.8623,8.8329,8.8258,8.8184,8.7986,8.7478,8.7079,8.6866,8.6478,8.6094,8.6094,8.6094,8.6094,8.6094,8.6094,8.6094,8.6094,8.6094,8.6094,8.6094,8.6094,8.6094,8.6094,8.6094,8.6094,8.6094,8.6094,8.6094,8.6094,8.6094,8.6094,8.6094,8.6094,8.6094,9.207,9.2539,9.2578,9.2578,9.2578,9.2578,9.2578,9.2578,9.2578,9.2578,9.2461,9.1992,9.1719,9.164,9.1094,9.0351,8.957,8.9258,8.8828,8.8359,8.832,8.832,8.832,8.8554,8.8398,8.7969,8.8125,8.8008,8.7578,8.75,8.75,8.75,8.75,8.7734,8.8125,8.7773,8.7812,8.8125,8.7773,8.7187,8.6758,8.7187,8.7226,8.664,8.6054,8.5742,8.5742,8.5742,8.5742,8.5742,8.5742,8.5741,8.5691,8.5667,8.5649,8.5688,8.6196,8.651,8.6588,8.7093,8.7406,8.7406,8.7406,8.7484,8.7796,8.8382,8.8774,8.9164,8.9594,8.9986,8.9789,8.893,8.8265,8.8226,8.8226,8.8449,8.896,8.9189,8.9518,8.98,8.9623,8.9471,8.9453,8.9372,8.9227,8.9138,8.828,8.7686,8.7394,8.6728,8.6118,8.6094,8.6094,8.6094,8.6094,8.6132,8.6132,8.6132,8.6094,8.6094,8.6094,8.6094,8.6094,8.6094,8.6094,8.6094,8.6094,8.6094,8.6094,8.6094,8.6094,8.6094,8.6094,8.6094,8.6094,9.2578,9.2578,9.2578,9.2578,9.2578,9.2578,9.2578,9.2578,9.2578,9.2578,9.2578,9.2539,9.2461,9.25,9.2344,9.1992,9.1172,9.0469,9.0,8.9765,8.9804,8.9804,8.9765,8.914,8.875,8.8554,8.7929,8.7578,8.75,8.75,8.75,8.75,8.75,8.7617,8.7617,8.7617,8.7539,8.7656,8.7578,8.7461,8.75,8.75,8.7461,8.7422,8.7304,8.7265,8.7344,8.7344,8.7265,8.7304,8.7344,8.7422,8.7213,8.719,8.7289,8.7172,8.7328,8.7367,8.7406,8.7445,8.7562,8.7718,8.7562,8.7991,8.8618,8.8891,8.9242,8.9867,9.0142,9.0181,9.022,9.0064,8.9908,8.9947,8.9711,8.9743,9.0035,9.0596,9.1064,9.0941,9.0453,8.9904,8.9852,8.9956,8.9908,8.9644,8.8866,8.8197,8.7987,8.7249,8.6422,8.6311,8.6555,8.6748,8.644,8.617,8.617,8.617,8.6132,8.6094,8.6094,8.6094,8.6094,8.6094,8.6094,8.6094,8.6094,8.6094,8.6094,8.6094,8.6094,8.6094,8.6094,8.6094,8.6094,9.2578,9.2578,9.2578,9.2578,9.2578,9.2578,9.2578,9.2578,9.2578,9.2578,9.2578,9.2578,9.2578,9.2578,9.2578,9.2461,9.2187,9.1836,9.1172,9.0195,9.0039,9.0039,9.0,8.9726,8.9297,8.875,8.8476,8.8008,8.7617,8.7539,8.75,8.75,8.7539,8.7812,8.8242,8.7812,8.7734,8.8203,8.7773,8.75,8.75,8.75,8.75,8.75,8.75,8.75,8.75,8.75,8.75,8.75,8.746,8.7416,8.74,8.7418,8.7406,8.7406,8.7406,8.7718,8.8226,8.8304,8.854,8.9008,8.9164,8.9281,8.9633,9.0101,9.0531,9.096,9.135,9.1703,9.1702,9.1742,9.1235,9.0142,8.9986,9.0335,9.0834,9.1529,9.1991,9.2019,9.1781,9.1664,9.1615,9.1499,9.1314,9.1151,9.0344,8.9636,8.9324,8.845,8.8027,8.7905,8.7888,8.7632,8.744,8.7055,8.6748,8.6517,8.6324,8.6132,8.6094,8.6094,8.6094,8.6094,8.6094,8.6094,8.6094,8.6094,8.6094,8.6132,8.617,8.6132,8.6094,8.6247,8.6517,9.2578,9.2578,9.2578,9.2578,9.2578,9.2578,9.2578,9.2578,9.2578,9.2578,9.2578,9.2578,9.2578,9.2578,9.2578,9.2578,9.2578,9.2578,9.2031,9.1094,9.0976,9.0976,9.0898,9.0586,9.0039,8.9336,8.9179,8.8906,8.8476,8.8437,8.8437,8.8437,8.8437,8.8476,8.8672,8.8242,8.8125,8.8164,8.7773,8.75,8.75,8.75,8.75,8.7539,8.7773,8.7929,8.7969,8.8242,8.8124,8.7616,8.7416,8.7406,8.7392,8.7415,8.7406,8.7406,8.7445,8.7757,8.854,8.8657,8.9086,8.9789,8.9986,9.0179,9.0452,9.1077,9.135,9.178,9.2131,9.2484,9.2482,9.2484,9.1975,9.1079,9.1001,9.1194,9.1741,9.217,9.2443,9.244,9.2442,9.2484,9.2475,9.2494,9.2412,9.2156,9.1408,9.0667,9.0281,8.9494,8.9116,8.8802,8.8496,8.841,8.8526,8.8055,8.744,8.6978,8.6594,8.6286,8.6094,8.6094,8.6094,8.6094,8.6094,8.6094,8.6094,8.6094,8.6094,8.617,8.6278,8.6632,8.6824,8.7209,8.7401,9.2578,9.2578,9.2578,9.2578,9.2578,9.2578,9.2578,9.2578,9.2578,9.2578,9.2578,9.2578,9.2578,9.2578,9.2578,9.2578,9.2578,9.2578,9.2539,9.2383,9.2383,9.2344,9.2226,9.164,9.0898,9.0195,9.0078,9.0,8.9726,8.9726,9.0,8.9804,8.9726,8.957,8.9023,8.875,8.8476,8.8047,8.7851,8.7812,8.7812,8.7773,8.7773,8.7812,8.8515,8.8945,8.9062,8.9567,8.9253,8.7846,8.7755,8.7824,8.7622,8.757,8.7718,8.7796,8.7601,8.8187,8.8696,8.9125,8.9477,9.0298,9.0454,9.0454,9.1272,9.1467,9.1741,9.2287,9.2443,9.2484,9.2484,9.2484,9.2404,9.2482,9.2209,9.2287,9.2443,9.2482,9.2484,9.2484,9.2484,9.2484,9.2482,9.2505,9.2446,9.2253,9.1644,9.1121,9.0712,9.0145,8.9323,8.9167,8.9304,8.9363,8.9556,8.894,8.8363,8.8132,8.7478,8.6786,8.6286,8.617,8.6094,8.6094,8.6247,8.6209,8.6094,8.6132,8.6094,8.6132,8.6517,8.7171,8.7555,8.7786,8.7902,9.2578,9.2578,9.2578,9.2578,9.2578,9.2578,9.2578,9.2578,9.2578,9.2578,9.2578,9.2578,9.2578,9.2578,9.2578,9.2578,9.2578,9.2578,9.2578,9.2578,9.2578,9.2578,9.2578,9.2383,9.1797,9.1054,9.0937,9.0625,9.0039,9.0117,9.0078,9.0,9.0156,8.9961,8.9687,8.9648,8.957,8.9375,8.9297,8.9258,8.9258,8.9258,8.9336,8.9414,9.0117,9.0547,9.0622,9.0807,9.0486,8.947,8.9309,8.93,8.9213,8.9207,8.9164,8.9164,8.9242,8.9633,9.0335,9.0531,9.096,9.1703,9.1664,9.1938,9.2131,9.217,9.2287,9.2484,9.2484,9.2484,9.2484,9.2484,9.2484,9.2484,9.2523,9.2484,9.2484,9.2484,9.2484,9.2484,9.2484,9.2484,9.2522,9.2518,9.251,9.2412,9.2135,9.1754,9.1327,9.1082,9.0463,9.0507,9.0633,9.0594,9.0402,8.9787,8.9363,8.9286,8.8594,8.7555,8.6901,8.6324,8.6209,8.6094,8.6555,8.6671,8.6324,8.617,8.6132,8.6478,8.7017,8.7748,8.7786,8.794,8.8094,9.2578,9.2578,9.2578,9.2578,9.2578,9.2578,9.2578,9.2578,9.2578,9.2578,9.2578,9.2578,9.2578,9.2578,9.2578,9.2578,9.2578,9.2578,9.2578,9.2578,9.2578,9.2578,9.2578,9.2578,9.2304,9.1914,9.1836,9.1562,9.1211,9.1094,9.1094,9.1172,9.1094,9.0937,9.0547,9.0547,9.0312,9.0039,9.0,9.0,9.0,9.0,9.0,9.0156,9.0859,9.1405,9.175,9.1854,9.1453,9.0671,9.0196,8.9994,8.9987,8.9986,8.9986,8.9986,8.9986,9.0376,9.1077,9.1311,9.1702,9.2287,9.2484,9.2484,9.2482,9.2484,9.2484,9.2484,9.2484,9.2484,9.2484,9.2484,9.2678,9.2951,9.2717,9.2523,9.2523,9.2484,9.2484,9.2484,9.2484,9.2484,9.2484,9.2484,9.2484,9.2469,9.2407,9.2168,9.1928,9.182,9.1593,9.1392,9.1232,9.1061,9.0757,9.0201,8.9855,8.9816,8.944,8.8402,8.7863,8.7094,8.7055,8.7094,8.7132,8.7132,8.6978,8.6978,8.7363,8.7709,8.8055,8.8325,8.8517,8.8748,8.8786,9.2578,9.2578,9.2578,9.2578,9.2578,9.2578,9.2578,9.2578,9.2578,9.2578,9.2578,9.2578,9.2578,9.2578,9.2578,9.2578,9.2578,9.2578,9.2578,9.2578,9.2578,9.2578,9.2578,9.2578,9.2539,9.2461,9.2578,9.25,9.2304,9.2383,9.25,9.2344,9.2422,9.2148,9.1562,9.1445,9.1015,9.0586,9.0586,9.0586,9.0586,9.0586,9.0625,9.0742,9.1445,9.2224,9.2722,9.2787,9.2348,9.1606,9.0736,9.0456,9.0376,9.0337,9.0337,9.0415,9.0532,9.0845,9.135,9.1702,9.1936,9.26,9.2834,9.2756,9.299,9.3068,9.299,9.2795,9.264,9.2678,9.2523,9.2561,9.3029,9.3458,9.3107,9.2875,9.264,9.2562,9.2484,9.2484,9.2484,9.2484,9.2484,9.2484,9.2482,9.2518,9.2422,9.2298,9.2126,9.1944,9.1696,9.1446,9.1344,9.1275,9.0954,9.0547,9.0316,9.0163,8.9902,8.9325,8.9133,8.8671,8.8564,8.841,8.8025,8.7987,8.8179,8.8333,8.8526,8.8632,8.8709,8.9278,8.9816,9.0086,9.021,9.2578,9.2578,9.2578,9.2578,9.2578,9.2578,9.2578,9.2578,9.2578,9.2578,9.2578,9.2578,9.2578,9.2578,9.2578,9.2578,9.2578,9.2578,9.2578,9.2578,9.2578,9.2578,9.2578,9.2578,9.2578,9.2578,9.2578,9.2578,9.2578,9.2578,9.2578,9.2578,9.2578,9.25,9.2304,9.2187,9.2265,9.2031,9.1992,9.1875,9.1875,9.1875,9.1875,9.1953,9.2692,9.3622,9.4201,9.3909,9.3465,9.3112,9.2447,9.1858,9.178,9.1821,9.1782,9.1782,9.1821,9.1975,9.2287,9.2795,9.3302,9.3497,9.4005,9.4553,9.4552,9.4434,9.4122,9.3732,9.3497,9.3263,9.2873,9.3185,9.3654,9.3966,9.4239,9.42,9.3615,9.2951,9.2639,9.2523,9.2484,9.2484,9.2484,9.2484,9.252,9.2516,9.2442,9.2342,9.2195,9.2054,9.1832,9.1554,9.1408,9.1327,9.1138,9.0855,9.074,9.0586,9.0325,9.0171,9.0017,8.9748,8.941,8.9026,8.8603,8.8795,8.9218,8.8987,8.9026,8.9171,8.9402,8.9855,9.0355,9.0893,9.1124,9.2578,9.2578,9.2578,9.2578,9.2578,9.2578,9.2578,9.2578,9.2578,9.2578,9.2578,9.2578,9.2578,9.2578,9.2578,9.2578,9.2578,9.2578,9.2578,9.2578,9.2578,9.2578,9.2578,9.2578,9.2578,9.2578,9.2578,9.2578,9.2578,9.2617,9.2578,9.2578,9.2617,9.2578,9.2578,9.2578,9.2578,9.2539,9.2578,9.2578,9.2578,9.2578,9.2578,9.2617,9.3041,9.354,9.3734,9.3437,9.3228,9.3185,9.3107,9.2912,9.2562,9.2523,9.2523,9.2484,9.2484,9.2756,9.3146,9.3537,9.3927,9.4395,9.4903,9.502,9.5098,9.5098,9.4942,9.4552,9.4356,9.42,9.381,9.4044,9.4512,9.494,9.502,9.502,9.4825,9.3927,9.2912,9.2639,9.2484,9.2484,9.2484,9.2718,9.2639,9.2676,9.2544,9.2451,9.2321,9.219,9.1949,9.1721,9.155,9.14,9.1241,9.1124,9.1086,9.1009,9.0893,9.0825,9.0748,9.0402,9.0056,8.9787,8.9633,8.9902,9.021,8.9902,8.9748,9.0133,9.0393,9.047,9.0624,9.1009,9.1124,9.2578,9.2578,9.2578,9.2578,9.2578,9.2578,9.2578,9.2578,9.2578,9.2578,9.2578,9.2578,9.2578,9.2578,9.2578,9.2578,9.2578,9.2578,9.2578,9.2578,9.2578,9.2578,9.2578,9.2578,9.2578,9.2617,9.2851,9.289,9.2929,9.2929,9.3203,9.2929,9.2851,9.2773,9.2656,9.2578,9.2578,9.2578,9.2578,9.2578,9.2578,9.2578,9.2578,9.2617,9.2651,9.276,9.2833,9.2698,9.2639,9.2718,9.3419,9.3419,9.3146,9.2914,9.2875,9.2953,9.3107,9.3419,9.3966,9.4239,9.4669,9.5293,9.5527,9.5567,9.5606,9.5684,9.5567,9.5332,9.5137,9.4942,9.5059,9.5215,9.5606,9.6035,9.5723,9.584,9.5916,9.502,9.4083,9.3263,9.3343,9.3421,9.3304,9.3343,9.307,9.2832,9.2739,9.2641,9.2557,9.2271,9.2054,9.1832,9.1623,9.1415,9.1249,9.1201,9.1201,9.1201,9.1201,9.1201,9.1201,9.0941,9.0633,9.0864,9.0902,9.0941,9.0941,9.071,9.0748,9.1163,9.1124,9.0893,9.097,9.1163,9.1124,9.2578,9.2578,9.2578,9.2578,9.2578,9.2578,9.2578,9.2578,9.2578,9.2578,9.2578,9.2578,9.2578,9.2578,9.2578,9.2578,9.2578,9.2578,9.2578,9.2578,9.2578,9.2578,9.2578,9.2578,9.2578,9.2812,9.3203,9.3554,9.3789,9.4336,9.3984,9.375,9.3633,9.332,9.2929,9.2617,9.2734,9.2734,9.2656,9.2617,9.2734,9.2851,9.2851,9.2851,9.2884,9.2839,9.2716,9.2659,9.2834,9.3497,9.3693,9.4122,9.4473,9.463,9.4631,9.4436,9.4395,9.4512,9.4864,9.5527,9.5916,9.6308,9.6699,9.7089,9.7128,9.7128,9.6699,9.6191,9.5645,9.5217,9.5139,9.5801,9.6152,9.6503,9.6816,9.6894,9.6503,9.6074,9.5527,9.4825,9.4709,9.4475,9.4202,9.4085,9.4046,9.3771,9.3492,9.3369,9.3273,9.2717,9.2139,9.1944,9.1715,9.1469,9.1232,9.1227,9.1201,9.1201,9.1201,9.1201,9.1201,9.1201,9.1201,9.1201,9.1201,9.1124,9.1124,9.1201,9.1201,9.1201,9.1201,9.1201,9.1201,9.1201,9.1201,9.2578,9.2578,9.2578,9.2578,9.2578,9.2578,9.2578,9.2578,9.2578,9.2578,9.2578,9.2578,9.2578,9.2578,9.2578,9.2578,9.2578,9.2578,9.2578,9.2578,9.2578,9.2578,9.2617,9.2617,9.2578,9.2851,9.3437,9.3906,9.3867,9.375,9.4219,9.4453,9.4179,9.3867,9.3828,9.3515,9.332,9.3203,9.289,9.2851,9.332,9.3633,9.3867,9.3906,9.3861,9.3893,9.3888,9.3868,9.4046,9.4473,9.4903,9.5332,9.5762,9.6074,9.5996,9.5371,9.5176,9.5371,9.5684,9.6228,9.6503,9.705,9.7479,9.7675,9.7675,9.7597,9.7479,9.7089,9.6855,9.6464,9.6542,9.6816,9.7011,9.7128,9.744,9.744,9.7206,9.7089,9.6699,9.6191,9.5527,9.5098,9.4944,9.4903,9.502,9.4747,9.4317,9.4122,9.4005,9.3296,9.2565,9.2,9.1766,9.14,9.1215,9.1189,9.1201,9.1201,9.1201,9.1201,9.1201,9.1201,9.1201,9.1201,9.1201,9.1201,9.1201,9.1201,9.1201,9.1201,9.1201,9.1201,9.1201,9.1201,9.1201,9.2578,9.2578,9.2578,9.2578,9.2578,9.2578,9.2578,9.2578,9.2578,9.2578,9.2578,9.2578,9.2578,9.2578,9.2578,9.2578,9.2578,9.2578,9.2578,9.2578,9.2617,9.2656,9.2851,9.289,9.3047,9.3554,9.3906,9.4062,9.3945,9.3984,9.4336,9.4726,9.4531,9.457,9.4883,9.4414,9.4179,9.375,9.3515,9.3554,9.4179,9.4804,9.5195,9.5195,9.5111,9.5023,9.4904,9.4882,9.5063,9.541,9.5918,9.6425,9.6738,9.7323,9.7011,9.5918,9.5645,9.6035,9.6425,9.6699,9.705,9.7518,9.7636,9.7675,9.7675,9.7675,9.7675,9.7675,9.7597,9.7518,9.7401,9.7636,9.7636,9.7636,9.7636,9.7675,9.7597,9.7558,9.7518,9.6933,9.6152,9.5918,9.5918,9.6035,9.623,9.5957,9.5527,9.5096,9.4854,9.3914,9.3133,9.2282,9.1772,9.1358,9.1219,9.1219,9.1201,9.1201,9.1201,9.1201,9.1201,9.1201,9.1201,9.1201,9.1201,9.1201,9.1201,9.1201,9.1201,9.1201,9.1201,9.1201,9.1201,9.1201,9.1201,9.2578,9.2578,9.2578,9.2578,9.2578,9.2578,9.2578,9.2578,9.2578,9.2578,9.2578,9.2578,9.2578,9.2578,9.2578,9.2578,9.2578,9.2578,9.2578,9.2578,9.2695,9.3086,9.3594,9.3711,9.4101,9.4453,9.4804,9.457,9.4375,9.5117,9.5547,9.5508,9.5781,9.5937,9.5508,9.5195,9.4648,9.4179,9.4531,9.4922,9.5039,9.5273,9.5351,9.5312,9.5307,9.5335,9.541,9.5468,9.5646,9.623,9.6347,9.6816,9.7401,9.7597,9.7675,9.744,9.7401,9.7401,9.744,9.7401,9.7401,9.7675,9.7675,9.7675,9.7675,9.7675,9.7675,9.7675,9.7675,9.7675,9.7675,9.7675,9.7675,9.7675,9.7675,9.7675,9.7675,9.7675,9.7675,9.7636,9.6894,9.705,9.7167,9.7323,9.7401,9.7089,9.6699,9.6189,9.5501,9.4439,9.3579,9.2718,9.1828,9.1372,9.1227,9.1227,9.1201,9.1201,9.1201,9.1201,9.1201,9.1201,9.1201,9.1201,9.1201,9.1201,9.1201,9.1201,9.1201,9.1201,9.1201,9.1201,9.1201,9.1201,9.1201,9.2578,9.2578,9.2578,9.2578,9.2578,9.2578,9.2578,9.2578,9.2578,9.2578,9.2578,9.2578,9.2578,9.2578,9.2578,9.2578,9.2578,9.2578,9.2617,9.2812,9.3086,9.3554,9.3906,9.4375,9.4961,9.5156,9.5195,9.5039,9.5039,9.5351,9.5859,9.6562,9.6523,9.6601,9.6367,9.6133,9.5781,9.5586,9.5742,9.5898,9.6054,9.6328,9.6601,9.6561,9.6514,9.6507,9.6495,9.6597,9.67,9.7128,9.7128,9.7245,9.7597,9.7675,9.7675,9.7675,9.7675,9.7636,9.7675,9.7675,9.7675,9.7675,9.7675,9.7675,9.7675,9.7675,9.7675,9.7675,9.7675,9.7675,9.7675,9.7675,9.7675,9.7675,9.7675,9.7675,9.7675,9.7675,9.7675,9.7675,9.7675,9.7675,9.7675,9.7636,9.7558,9.7401,9.697,9.65,9.5639,9.453,9.3759,9.3076,9.2176,9.135,9.1258,9.1215,9.121,9.1201,9.1201,9.1201,9.1201,9.1201,9.1201,9.1201,9.1201,9.1201,9.1201,9.1201,9.1201,9.1201,9.1201,9.1201,9.1201,9.1201,9.1201,9.2578,9.2578,9.2578,9.2578,9.2578,9.2578,9.2578,9.2578,9.2578,9.2578,9.2578,9.2578,9.2578,9.2578,9.2578,9.2578,9.2578,9.2578,9.2773,9.3086,9.3554,9.414,9.4726,9.5312,9.5664,9.5781,9.6054,9.5976,9.5937,9.6015,9.6601,9.7383,9.6992,9.7109,9.7344,9.7109,9.6719,9.6719,9.6484,9.6523,9.6836,9.7304,9.7538,9.7612,9.7683,9.7672,9.7699,9.7607,9.7637,9.7636,9.7597,9.7597,9.7675,9.7675,9.7675,9.7675,9.7675,9.7675,9.7675,9.7675,9.7675,9.7675,9.7675,9.7675,9.7675,9.7675,9.7675,9.7675,9.7675,9.7675,9.7675,9.7675,9.7675,9.7675,9.7675,9.7675,9.7675,9.7714,9.7675,9.7675,9.7675,9.7675,9.7675,9.7675,9.7636,9.7597,9.7243,9.6773,9.598,9.5034,9.4331,9.3774,9.2707,9.1794,9.135,9.1322,9.1262,9.121,9.121,9.1201,9.1201,9.1201,9.1201,9.1201,9.1201,9.1201,9.1201,9.1201,9.1201,9.1201,9.1201,9.1201,9.1201,9.1201,9.1201,9.2578,9.2578,9.2578,9.2578,9.2578,9.2578,9.2578,9.2578,9.2578,9.2578,9.2578,9.2578,9.2578,9.2578,9.2578,9.2578,9.2578,9.2578,9.3086,9.3554,9.3984,9.4922,9.5664,9.6289,9.6719,9.7226,9.7148,9.7187,9.7383,9.707,9.6992,9.6719,9.7226,9.7539,9.7656,9.75,9.7422,9.7304,9.6953,9.6992,9.7304,9.7655,9.7692,9.7689,9.7676,9.7701,9.7699,9.7684,9.7675,9.7675,9.7675,9.7675,9.7675,9.7675,9.7675,9.7675,9.7675,9.7675,9.7675,9.7714,9.7753,9.7714,9.7714,9.7753,9.7909,9.7753,9.7714,9.7675,9.7675,9.7675,9.7675,9.7675,9.7714,9.787,9.7948,9.787,9.7831,9.7714,9.7714,9.7675,9.7675,9.7675,9.7675,9.7675,9.7675,9.7636,9.7634,9.7202,9.6929,9.6109,9.5334,9.4522,9.3394,9.2429,9.1616,9.1404,9.1313,9.1245,9.1227,9.121,9.1201,9.1201,9.1201,9.1201,9.1201,9.1201,9.1201,9.1201,9.1201,9.1201,9.1201,9.1201,9.1201,9.1201,9.1201,9.2578,9.2578,9.2578,9.2578,9.2578,9.2578,9.2578,9.2578,9.2578,9.2578,9.2578,9.2578,9.2578,9.2578,9.2578,9.2578,9.2695,9.3242,9.3594,9.4219,9.4961,9.582,9.6562,9.6992,9.7422,9.7656,9.7695,9.7695,9.7617,9.7695,9.7578,9.7422,9.7539,9.7617,9.7695,9.7695,9.7695,9.7617,9.7422,9.7461,9.7539,9.7693,9.7689,9.7684,9.7673,9.7695,9.7687,9.7678,9.7676,9.7675,9.7675,9.7675,9.7675,9.7675,9.7675,9.7714,9.7714,9.7792,9.7753,9.7792,9.7909,9.8336,9.8104,9.7948,9.8299,9.8065,9.7753,9.7675,9.7675,9.7675,9.7675,9.7714,9.7831,9.8143,9.8182,9.8065,9.8065,9.7948,9.7714,9.7675,9.7675,9.7675,9.7675,9.7675,9.7675,9.7675,9.7673,9.7626,9.7358,9.7009,9.6143,9.5219,9.4102,9.3194,9.2317,9.1832,9.1372,9.1258,9.1206,9.1219,9.1201,9.1201,9.1201,9.1201,9.1201,9.1201,9.1201,9.1201,9.1201,9.1201,9.1201,9.1201,9.1201,9.1201,9.1201,9.2578,9.2578,9.2578,9.2578,9.2578,9.2578,9.2578,9.2578,9.2578,9.2578,9.2578,9.2578,9.2578,9.2578,9.2578,9.2851,9.3086,9.3594,9.4179,9.4961,9.582,9.6562,9.6992,9.7304,9.7617,9.7695,9.7695,9.7695,9.7695,9.7695,9.7656,9.7617,9.7695,9.7695,9.7695,9.7695,9.7695,9.7695,9.7695,9.7695,9.7695,9.7692,9.7687,9.7679,9.7703,9.7689,9.768,9.7676,9.7676,9.7675,9.7675,9.7675,9.7675,9.7675,9.7675,9.7753,9.7948,9.8065,9.8065,9.8143,9.8377,9.8727,9.8885,9.8807,9.8729,9.8416,9.8182,9.7675,9.7675,9.7714,9.7753,9.7714,9.8104,9.8414,9.7987,9.787,9.8221,9.8221,9.7909,9.7675,9.7675,9.7675,9.7675,9.7675,9.7675,9.7675,9.7675,9.7671,9.7581,9.7202,9.6739,9.576,9.4756,9.3895,9.3127,9.2299,9.157,9.1325,9.1275,9.1227,9.1201,9.1287,9.124,9.1201,9.1201,9.1201,9.1201,9.1248,9.124,9.1201,9.1201,9.1201,9.1201,9.1201,9.1201,9.2578,9.2578,9.2578,9.2578,9.2578,9.2578,9.2578,9.2578,9.2578,9.2578,9.2578,9.2578,9.2578,9.2617,9.2695,9.3125,9.3711,9.4023,9.4804,9.5976,9.6445,9.6992,9.7344,9.7656,9.7695,9.7695,9.7695,9.7695,9.7695,9.7695,9.7695,9.7695,9.7695,9.7695,9.7695,9.7695,9.7695,9.7695,9.7695,9.7695,9.7695,9.7689,9.7683,9.7674,9.7696,9.7678,9.7676,9.7675,9.7675,9.7675,9.7675,9.7675,9.7675,9.7675,9.7675,9.7714,9.8455,9.8844,9.8961,9.8961,9.9195,9.9351,9.9627,9.9705,9.9273,9.8961,9.8766,9.8416,9.8143,9.7987,9.7831,9.7909,9.8533,9.8846,9.8494,9.8299,9.869,9.8533,9.8221,9.7753,9.7675,9.7675,9.7675,9.7675,9.7675,9.7675,9.7675,9.7673,9.763,9.7464,9.7088,9.65,9.5562,9.4872,9.4001,9.2599,9.1803,9.1516,9.1611,9.1844,9.1813,9.1873,9.1719,9.1402,9.1624,9.2018,9.1672,9.1325,9.1672,9.1941,9.1317,9.1201,9.1201,9.1201,9.1201,9.2578,9.2578,9.2578,9.2578,9.2578,9.2578,9.2578,9.2578,9.2578,9.2578,9.2578,9.2578,9.2578,9.2734,9.3203,9.3633,9.4023,9.539,9.6289,9.6445,9.6992,9.7383,9.7656,9.7695,9.7695,9.7695,9.7695,9.7695,9.7695,9.7695,9.7695,9.7695,9.7695,9.7695,9.7695,9.7695,9.7695,9.7695,9.7695,9.7695,9.7693,9.7686,9.7676,9.7707,9.7687,9.7676,9.7675,9.7675,9.7675,9.7675,9.7675,9.7675,9.7675,9.7675,9.7675,9.787,9.8533,9.9273,9.9822,10.0251,10.0642,10.0603,10.0446,10.0563,10.0524,10.0095,9.9744,9.9431,9.9197,9.9236,9.947,9.947,9.99,10.0368,10.0173,9.9744,9.9705,9.908,9.8572,9.7987,9.7675,9.7675,9.7675,9.7675,9.7675,9.7675,9.7675,9.7675,9.7673,9.7671,9.7462,9.7124,9.6488,9.587,9.4976,9.3674,9.3045,9.2957,9.3045,9.3255,9.308,9.2648,9.2681,9.2595,9.2749,9.2826,9.2556,9.2441,9.2749,9.2787,9.2133,9.1633,9.1595,9.1432,9.1201,9.2578,9.2578,9.2578,9.2578,9.2578,9.2578,9.2578,9.2578,9.2578,9.2578,9.2578,9.2578,9.2578,9.2851,9.3437,9.4179,9.4453,9.5781,9.6797,9.6914,9.7383,9.7617,9.7656,9.7695,9.7695,9.7695,9.7695,9.7695,9.7695,9.7695,9.7695,9.7695,9.7695,9.7695,9.7695,9.7695,9.7695,9.7695,9.7695,9.7694,9.769,9.7683,9.7671,9.7699,9.7687,9.7675,9.7675,9.7675,9.7675,9.7675,9.7675,9.7675,9.7675,9.7675,9.7675,9.7948,9.8846,9.99,10.1032,10.1539,10.1813,10.1852,10.1383,10.1305,10.1422,10.0915,10.0524,10.0329,10.0407,10.0368,10.0368,10.0407,10.0681,10.1149,10.0993,10.0524,10.0407,9.9783,9.8922,9.8299,9.7714,9.7714,9.7675,9.7675,9.7675,9.7675,9.7675,9.7675,9.7675,9.7673,9.7671,9.742,9.701,9.6341,9.5686,9.4889,9.4416,9.438,9.434,9.4319,9.3825,9.3316,9.3572,9.371,9.3518,9.3441,9.3557,9.3595,9.3595,9.3403,9.2903,9.2441,9.2095,9.1941,9.1825,9.25,9.2539,9.2578,9.2578,9.2578,9.2578,9.2578,9.2578,9.2578,9.2578,9.2578,9.2578,9.2578,9.2773,9.3554,9.4375,9.5195,9.6172,9.6914,9.7422,9.7656,9.7695,9.7695,9.7695,9.7695,9.7695,9.7695,9.7695,9.7695,9.7695,9.7695,9.7695,9.7695,9.7695,9.7695,9.7695,9.7695,9.7695,9.7694,9.7691,9.7685,9.7674,9.7702,9.7693,9.7684,9.7676,9.7675,9.7675,9.7675,9.7675,9.7675,9.7675,9.7675,9.7675,9.7675,9.826,9.9548,10.0954,10.2164,10.2515,10.2593,10.2515,10.2554,10.2242,10.1891,10.1618,10.1383,10.1032,10.0915,10.0759,10.0603,10.0798,10.0993,10.111,10.1071,10.0954,10.1032,10.0407,9.9468,9.8729,9.8026,9.7792,9.7714,9.7675,9.7675,9.7675,9.7675,9.7675,9.7675,9.7675,9.7675,9.7595,9.719,9.6672,9.6115,9.581,9.5668,9.5538,9.5092,9.4892,9.4435,9.4249,9.4518,9.4543,9.4113,9.4057,9.4441,9.4403,9.4134,9.3903,9.3941,9.3441,9.3133,9.3095,9.3056,9.1094,9.1679,9.1679,9.2031,9.2539,9.2578,9.2578,9.2578,9.2578,9.2578,9.2578,9.2578,9.2578,9.2734,9.414,9.4844,9.5625,9.6523,9.7265,9.7656,9.7695,9.7695,9.7695,9.7695,9.7695,9.7695,9.7695,9.7695,9.7695,9.7695,9.7695,9.7695,9.7695,9.7695,9.7695,9.7694,9.7694,9.7693,9.7691,9.7685,9.7677,9.7703,9.7693,9.7685,9.768,9.7675,9.7675,9.7753,9.7792,9.7753,9.7753,9.7714,9.7675,9.7753,9.7987,9.9548,10.0642,10.1618,10.2554,10.2789,10.2789,10.2789,10.2789,10.275,10.2476,10.2281,10.2164,10.1852,10.1696,10.1618,10.1618,10.1735,10.1813,10.1774,10.1735,10.1696,10.1696,10.111,10.0134,9.8961,9.826,9.787,9.7792,9.7675,9.7675,9.7675,9.7675,9.7675,9.7675,9.7675,9.7675,9.7636,9.7517,9.7075,9.7134,9.6887,9.6809,9.6659,9.6144,9.579,9.5765,9.5672,9.564,9.5434,9.5093,9.5258,9.5634,9.5403,9.498,9.5403,9.5441,9.4749,9.421,9.4172,9.4057,9.0312,9.082,9.1172,9.1797,9.25,9.2578,9.2578,9.2578,9.2578,9.2578,9.2578,9.2578,9.2617,9.2773,9.3945,9.4844,9.5312,9.6406,9.7265,9.7656,9.7695,9.7695,9.7695,9.7695,9.7695,9.7695,9.7695,9.7695,9.7695,9.7695,9.7695,9.7695,9.7695,9.7695,9.7695,9.7694,9.769,9.7687,9.7683,9.7675,9.7705,9.7695,9.7684,9.7678,9.7676,9.7675,9.7753,9.7909,9.8182,9.8338,9.8416,9.8729,9.8768,9.8807,9.9236,10.0603,10.1112,10.1891,10.2593,10.2789,10.2789,10.2789,10.2789,10.2789,10.275,10.2633,10.2633,10.2554,10.2633,10.2711,10.275,10.2789,10.275,10.275,10.2633,10.2515,10.2125,10.1737,10.0603,9.9275,9.8572,9.8143,9.7909,9.7792,9.7675,9.7675,9.7675,9.7675,9.7675,9.7675,9.7675,9.7675,9.7675,9.7552,9.7652,9.7597,9.7394,9.7167,9.7,9.6763,9.692,9.6634,9.6172,9.612,9.6171,9.6191,9.6095,9.6172,9.6019,9.6288,9.6288,9.5711,9.5211,9.5211,9.5057,8.9844,9.0,9.0898,9.1719,9.2422,9.2539,9.2578,9.2578,9.2578,9.2578,9.2578,9.2578,9.2578,9.2773,9.3672,9.4414,9.5117,9.6094,9.6953,9.7617,9.7695,9.7695,9.7695,9.7695,9.7695,9.7695,9.7695,9.7695,9.7695,9.7695,9.7695,9.7695,9.7695,9.7695,9.7695,9.7695,9.769,9.7686,9.7676,9.7702,9.7696,9.7685,9.7675,9.7676,9.7675,9.7714,9.7909,9.8377,9.9,9.9273,9.9666,10.0056,10.0056,10.0251,10.0798,10.1227,10.1578,10.2086,10.2593,10.2789,10.2789,10.2789,10.2789,10.2789,10.2789,10.2789,10.2789,10.2789,10.2789,10.2789,10.2789,10.2789,10.2789,10.2789,10.2711,10.2672,10.2476,10.193,10.1032,9.9861,9.9078,9.8612,9.8182,9.8065,9.7714,9.7675,9.7675,9.7675,9.7675,9.7675,9.7675,9.7675,9.7675,9.7675,9.7671,9.7657,9.7643,9.7522,9.7422,9.732,9.7142,9.6844,9.6522,9.6437,9.6349,9.6325,9.6259,9.6288,9.6288,9.6288,9.6288,9.6288,9.6172,9.598,9.5865,8.8437,8.914,9.0664,9.1445,9.1719,9.2304,9.2578,9.2578,9.2578,9.2578,9.2578,9.2578,9.2578,9.2734,9.3398,9.4023,9.4492,9.5703,9.6484,9.707,9.7383,9.7695,9.7695,9.7695,9.7695,9.7695,9.7695,9.7695,9.7695,9.7695,9.7695,9.7695,9.7695,9.7695,9.7695,9.7693,9.769,9.7687,9.7673,9.7695,9.7687,9.7682,9.7675,9.7753,9.7753,9.7909,9.8182,9.8612,9.8922,9.9156,9.9861,10.0212,10.029,10.0876,10.1266,10.1541,10.2086,10.2476,10.2633,10.2789,10.2789,10.2789,10.2789,10.2789,10.2789,10.2789,10.2789,10.2789,10.2789,10.2789,10.2789,10.2789,10.2789,10.2789,10.2789,10.2789,10.2789,10.2125,10.1383,10.0485,9.9625,9.9078,9.8612,9.8182,9.7831,9.7675,9.7675,9.7675,9.7675,9.7675,9.7675,9.7675,9.7675,9.7675,9.7675,9.7673,9.7659,9.7643,9.7561,9.7436,9.7321,9.7037,9.6718,9.6528,9.6429,9.6349,9.6325,9.6288,9.6288,9.6288,9.6288,9.6288,9.6288,9.6172,9.6211,8.7773,8.8359,9.0,9.0937,9.1406,9.2226,9.2578,9.2578,9.2578,9.2578,9.2578,9.2578,9.2578,9.2578,9.3125,9.3633,9.4023,9.5273,9.6094,9.664,9.7226,9.7578,9.7695,9.7695,9.7695,9.7695,9.7695,9.7695,9.7695,9.7695,9.7695,9.7695,9.7695,9.7695,9.7695,9.7694,9.7691,9.769,9.7713,9.7737,9.7802,9.7992,9.8221,9.8299,9.8572,9.869,9.9119,9.9627,9.9978,10.0368,10.1071,10.1422,10.1618,10.1891,10.2047,10.2203,10.2476,10.2789,10.2789,10.2789,10.2789,10.2789,10.2789,10.2789,10.2789,10.2789,10.2789,10.2789,10.2789,10.2789,10.2789,10.2789,10.2789,10.2789,10.2789,10.2789,10.2789,10.2476,10.1539,10.0485,9.9744,9.9197,9.8651,9.7987,9.7714,9.7675,9.7675,9.7675,9.7675,9.7675,9.7675,9.7675,9.7675,9.7675,9.7675,9.7675,9.7669,9.7655,9.7641,9.7499,9.7352,9.7131,9.687,9.666,9.6487,9.6394,9.6331,9.6325,9.6288,9.6288,9.6288,9.6288,9.6288,9.6288,9.6365,8.75,8.7734,8.9336,9.0429,9.1211,9.2187,9.2578,9.2578,9.2578,9.2578,9.2578,9.2578,9.2578,9.2578,9.2617,9.3164,9.3906,9.4922,9.5703,9.6328,9.7265,9.7578,9.7695,9.7695,9.7695,9.7695,9.7695,9.7695,9.7695,9.7695,9.7695,9.7695,9.7695,9.7695,9.7695,9.7694,9.7693,9.7769,9.7837,9.794,9.8204,9.8583,9.8809,9.9234,9.9783,10.0251,10.0524,10.0915,10.1346,10.1698,10.2008,10.232,10.2437,10.2515,10.2593,10.2672,10.2672,10.2789,10.2789,10.2789,10.2789,10.2789,10.2789,10.2789,10.2789,10.2789,10.2789,10.2789,10.2789,10.2789,10.2789,10.2789,10.2789,10.2789,10.2789,10.2789,10.2789,10.2672,10.1657,10.0524,9.9939,9.9353,9.8729,9.8026,9.7714,9.7714,9.7714,9.7675,9.7675,9.7675,9.7675,9.7675,9.7675,9.7675,9.7675,9.7675,9.7673,9.7671,9.7655,9.753,9.7418,9.725,9.7048,9.6777,9.6637,9.6503,9.6411,9.637,9.6334,9.6297,9.6288,9.6288,9.6288,9.6326,9.6442,8.75,8.7656,8.9297,9.0117,9.0508,9.1914,9.2578,9.2578,9.2578,9.2578,9.2578,9.2578,9.2578,9.2578,9.2578,9.2851,9.3203,9.4375,9.5039,9.5586,9.6914,9.7461,9.7695,9.7695,9.7695,9.7695,9.7695,9.7695,9.7695,9.7695,9.7695,9.7695,9.7695,9.7695,9.7695,9.7695,9.7695,9.7812,9.8312,9.8611,9.8723,9.8944,9.8926,9.9351,9.9861,10.0173,10.0524,10.1071,10.1385,10.1776,10.2281,10.2672,10.2789,10.2789,10.2789,10.2789,10.2789,10.2789,10.2789,10.2789,10.2789,10.2789,10.2789,10.2789,10.2789,10.2789,10.2789,10.2789,10.2789,10.2789,10.2789,10.2789,10.2789,10.2789,10.2789,10.2789,10.2789,10.2359,10.1618,10.0759,10.0056,9.9509,9.8961,9.8338,9.7792,9.7792,9.787,9.7909,9.8143,9.7948,9.7753,9.7753,9.7792,9.7675,9.7675,9.7675,9.7675,9.7675,9.7671,9.76,9.7508,9.7414,9.7217,9.6971,9.6804,9.6667,9.6552,9.6429,9.6361,9.6315,9.6297,9.6288,9.6288,9.648,9.6673]}]]